[[{"header":{"parameterUnit":"m.s-1","parameterCategory":1,"la1":31.0,"la2":29.5877,"lo1":-88.7671,"lo2":-86.6584,"dy":0.0162,"dx":0.0185,"nx":115,"ny":88,"refTime":"2023-10-16T00:00:00:Z","depth":0,"parameterNumber":2,"parameterNumberName":"U-component_of_WINDS"},"data":[0.0,0.0,0.0,0.0,0.0,0.0,0.0,0.0,0.0,0.0,0.0,0.0,0.0,0.0,0.0,0.0,0.0,0.0,0.0,0.0,0.0,0.0,0.0,0.0,0.0,0.0,0.0,0.0,0.0,0.0,0.0,0.0,0.0,0.0,0.0,0.0,0.0,0.0,0.0,0.0,0.0,0.0,0.0,0.0,0.0,0.0,0.0,0.0,0.0,0.0,0.0,0.0,0.0,0.0,0.0,0.0,0.0,0.0,0.0,0.0,0.0,0.0,0.0,0.0,0.0,0.0,0.0,0.0,0.0,0.0,0.0,0.0,0.0,0.0,0.0,0.0,0.0,0.0,0.0,0.0,0.0,0.0,0.0,0.0,0.0,0.0,0.0,0.0,0.0,0.0,0.0,0.0,0.0,0.0,0.0,0.0,0.0,0.0,0.0,0.0,0.0,0.0,0.0,0.0,0.0,0.0,0.0,0.0,0.0,0.0,0.0,0.0,0.0,0.0,0.0,0.0,0.0,0.0,0.0,0.0,0.0,0.0,0.0,0.0,0.0,0.0,0.0,0.0,0.0,0.0,0.0,0.0,0.0,0.0,0.0,0.0,0.0,0.0,0.0,0.0,0.0,0.0,0.0,0.0,0.0,0.0,0.0,0.0,0.0,0.0,0.0,0.0,0.0,0.0,0.0,0.0,0.0,0.0,0.0,0.0,0.0,0.0,0.0,0.0,0.0,0.0,0.0,0.0,0.0,0.0,0.0,0.0,0.0,0.0,0.0,0.0,0.0,0.0,0.0,0.0,0.0,0.0,0.0,0.0,0.0,0.0,0.0,0.0,0.0,0.0,0.0,0.0,0.0,0.0,0.0,0.0,0.0,0.0,0.0,0.0,0.0,0.0,0.0,0.0,0.0,0.0,0.0,0.0,0.0,0.0,0.0,0.0,0.0,0.0,0.0,0.0,0.0,0.0,0.0,0.0,0.0,0.0,0.0,0.0,0.0,0.0,0.0,0.0,0.0,0.0,0.0,0.0,0.0,0.0,0.0,0.0,0.0,0.0,0.0,0.0,0.0,0.0,0.0,0.0,0.0,0.0,0.0,0.0,0.0,0.0,0.0,0.0,0.0,0.0,0.0,0.0,0.0,0.0,0.0,0.0,0.0,0.0,0.0,0.0,0.0,0.0,0.0,0.0,0.0,0.0,0.0,0.0,0.0,0.0,0.0,0.0,0.0,0.0,0.0,0.0,0.0,0.0,0.0,0.0,0.0,0.0,0.0,0.0,0.0,0.0,0.0,0.0,0.0,0.0,0.0,0.0,0.0,0.0,0.0,0.0,0.0,0.0,0.0,0.0,0.0,0.0,0.0,0.0,0.0,0.0,0.0,0.0,0.0,0.0,0.0,0.0,0.0,0.0,0.0,0.0,0.0,0.0,0.0,0.0,0.0,0.0,0.0,0.0,0.0,0.0,0.0,0.0,0.0,0.0,0.0,0.0,0.0,0.0,0.0,0.0,0.0,0.0,0.0,0.0,0.0,0.0,0.0,0.0,0.0,0.0,0.0,0.0,0.0,0.0,0.0,0.0,0.0,0.0,0.0,0.0,0.0,0.0,0.0,0.0,0.0,0.0,0.0,0.0,0.0,0.0,0.0,0.0,0.0,0.0,0.0,0.0,0.0,0.0,0.0,0.0,0.0,0.0,0.0,0.0,0.0,0.0,0.0,0.0,0.0,0.0,0.0,0.0,0.0,0.0,0.0,0.0,0.0,0.0,0.0,0.0,0.0,0.0,0.0,0.0,0.0,0.0,0.0,0.0,0.0,0.0,0.0,0.0,0.0,0.0,0.0,0.0,0.0,0.0,0.0,0.0,0.0,0.0,0.0,0.0,0.0,0.0,0.0,0.0,0.0,0.0,0.0,0.0,0.0,0.0,0.0,0.0,0.0,0.0,0.0,0.0,0.0,0.0,0.0,0.0,0.0,0.0,0.0,0.0,0.0,0.0,0.0,0.0,0.0,0.0,0.0,0.0,0.0,0.0,0.0,0.0,0.0,0.0,0.0,0.0,0.0,0.0,0.0,0.0,0.0,0.0,0.0,0.0,0.0,0.0,0.0,0.0,0.0,0.0,0.0,0.0,0.0,0.0,0.0,0.0,0.0,0.0,0.0,0.0,0.0,0.0,0.0,0.0,0.0,0.0,0.0,0.0,0.0,0.0,0.0,0.0,0.0,0.0,0.0,0.0,0.0,0.0,0.0,0.0,0.0,0.0,0.0,0.0,0.0,0.0,0.0,0.0,0.0,0.0,0.0,0.0,0.0,0.0,0.0,0.0,0.0,0.0,0.0,0.0,0.0,0.0,0.0,0.0,0.0,0.0,0.0,0.0,0.0,0.0,0.0,0.0,0.0,0.0,0.0,0.0,0.0,0.0,0.0,0.0,0.0,0.0,0.0,0.0,0.0,0.0,0.0,0.0,0.0,0.0,0.0,0.0,0.0,0.0,0.0,0.0,0.0,0.0,0.0,0.0,0.0,0.0,0.0,0.0,0.0,0.0,0.0,0.0,0.0,0.0,0.0,0.0,0.0,0.0,0.0,0.0,0.0,0.0,0.0,0.0,0.0,0.0,0.0,0.0,0.0,0.0,0.0,0.0,0.0,0.0,0.0,0.0,0.0,0.0,0.0,0.0,0.0,0.0,0.0,0.0,0.0,0.0,0.0,0.0,0.0,0.0,0.0,0.0,0.0,0.0,0.0,0.0,0.0,0.0,0.0,0.0,0.0,0.0,0.0,0.0,0.0,0.0,0.0,0.0,0.0,0.0,0.0,0.0,0.0,0.0,0.0,0.0,0.0,0.0,0.0,0.0,0.0,0.0,0.0,0.0,0.0,0.0,0.0,0.0,0.0,0.0,0.0,0.0,0.0,0.0,0.0,0.0,0.0,0.0,0.0,0.0,0.0,0.0,0.0,0.0,0.0,0.0,0.0,0.0,0.0,0.0,0.0,0.0,0.0,0.0,0.0,0.0,0.0,0.0,0.0,0.0,0.0,0.0,0.0,0.0,0.0,0.0,0.0,0.0,0.0,0.0,0.0,0.0,0.0,0.0,0.0,0.0,0.0,0.0,0.0,0.0,0.0,0.0,0.0,0.0,0.0,0.0,0.0,0.0,0.0,0.0,0.0,0.0,0.0,0.0,0.0,0.0,0.0,0.0,0.0,0.0,0.0,0.0,0.0,0.0,0.0,0.0,0.0,0.0,0.0,0.0,0.0,0.0,0.0,0.0,0.0,0.0,0.0,0.0,0.0,0.0,0.0,0.0,0.0,0.0,0.0,0.0,0.0,0.0,0.0,0.0,0.0,0.0,0.0,0.0,0.0,0.0,0.0,0.0,0.0,0.0,0.0,0.0,0.0,0.0,0.0,0.0,0.0,0.0,0.0,0.0,0.0,0.0,0.0,0.0,0.0,0.0,0.0,0.0,0.0,0.0,0.0,0.0,0.0,0.0,0.0,0.0,0.0,0.0,0.0,0.0,0.0,0.0,0.0,0.0,0.0,0.0,0.0,0.0,0.0,0.0,0.0,0.0,0.0,0.0,0.0,0.0,0.0,0.0,0.0,0.0,0.0,0.0,0.0,0.0,0.0,0.0,0.0,0.0,0.0,0.0,0.0,0.0,0.0,0.0,0.0,0.0,0.0,0.0,0.0,0.0,0.0,0.0,0.0,0.0,0.0,0.0,0.0,0.0,0.0,0.0,0.0,0.0,0.0,0.0,0.0,0.0,0.0,0.0,0.0,0.0,0.0,0.0,0.0,0.0,0.0,0.0,0.0,0.0,0.0,0.0,0.0,0.0,0.0,0.0,0.0,0.0,0.0,0.0,0.0,0.0,0.0,0.0,0.0,0.0,0.0,0.0,0.0,0.0,0.0,0.0,0.0,0.0,0.0,0.0,0.0,0.0,0.0,0.0,0.0,0.0,0.0,0.0,0.0,0.0,0.0,0.0,0.0,0.0,0.0,0.0,0.0,0.0,0.0,0.0,0.0,0.0,0.0,0.0,0.0,0.0,0.0,0.0,0.0,0.0,0.0,0.0,0.0,0.0,0.0,0.0,0.0,0.0,0.0,0.0,0.0,0.0,0.0,0.0,0.0,0.0,0.0,0.0,0.0,0.0,0.0,0.0,0.0,0.0,0.0,0.0,0.0,0.0,0.0,0.0,0.0,0.0,0.0,0.0,0.0,0.0,0.0,0.0,0.0,0.0,0.0,0.0,0.0,0.0,0.0,0.0,0.0,0.0,2.561,0.0,0.0,0.0,0.0,0.0,0.0,0.0,0.0,0.0,0.0,0.0,0.0,0.0,0.0,0.0,0.0,0.0,0.0,0.0,0.0,0.0,0.0,0.0,0.0,0.0,0.0,0.0,0.0,0.0,0.0,0.0,0.0,0.0,0.0,0.0,0.0,0.0,0.0,0.0,0.0,0.0,0.0,0.0,0.0,0.0,0.0,0.0,0.0,0.0,0.0,0.0,0.0,0.0,0.0,0.0,0.0,0.0,0.0,0.0,0.0,0.0,0.0,0.0,0.0,0.0,0.0,0.0,0.0,0.0,0.0,0.0,0.0,0.0,0.0,0.0,0.0,0.0,0.0,0.0,0.0,0.0,0.0,0.0,0.0,0.0,0.0,0.0,0.0,0.0,0.0,0.0,0.0,0.0,0.0,0.0,0.0,0.0,0.0,0.0,0.0,0.0,0.0,0.0,0.0,0.0,0.0,0.0,0.0,0.0,0.0,2.5703,2.57,2.5698,2.5664,2.561,0.0,0.0,0.0,0.0,0.0,0.0,0.0,0.0,0.0,0.0,0.0,0.0,0.0,0.0,0.0,0.0,0.0,0.0,0.0,0.0,0.0,0.0,0.0,0.0,0.0,0.0,0.0,0.0,0.0,0.0,0.0,0.0,0.0,0.0,0.0,0.0,0.0,0.0,0.0,0.0,0.0,0.0,0.0,0.0,0.0,0.0,0.0,0.0,0.0,0.0,0.0,0.0,0.0,0.0,0.0,0.0,0.0,0.0,0.0,0.0,0.0,0.0,0.0,0.0,0.0,0.0,0.0,0.0,0.0,0.0,0.0,0.0,0.0,0.0,0.0,0.0,0.0,0.0,0.0,0.0,0.0,0.0,0.0,0.0,0.0,0.0,0.0,0.0,0.0,0.0,0.0,0.0,0.0,0.0,0.0,0.0,0.0,0.0,0.0,0.0,0.0,0.0,0.0,0.0,0.0,0.0,0.0,0.0,0.0,0.0,0.0,0.0,2.5891,2.5878,2.561,0.0,0.0,0.0,0.0,0.0,0.0,0.0,0.0,0.0,0.0,0.0,0.0,0.0,0.0,0.0,0.0,0.0,0.0,0.0,0.0,0.0,0.0,0.0,0.0,0.0,0.0,0.0,0.0,0.0,0.0,0.0,0.0,0.0,0.0,0.0,0.0,0.0,0.0,0.0,0.0,0.0,0.0,0.0,0.0,0.0,0.0,0.0,0.0,0.0,0.0,0.0,0.0,0.0,0.0,0.0,0.0,0.0,0.0,0.0,0.0,0.0,0.0,0.0,0.0,0.0,0.0,0.0,0.0,0.0,0.0,0.0,0.0,0.0,0.0,0.0,0.0,0.0,0.0,0.0,0.0,0.0,0.0,0.0,0.0,0.0,0.0,0.0,0.0,0.0,0.0,0.0,0.0,0.0,0.0,0.0,0.0,0.0,0.0,0.0,0.0,0.0,0.0,0.0,0.0,0.0,0.0,0.0,0.0,0.0,0.0,2.65,2.5739,2.6473,0.0,2.5688,0.0,0.0,0.0,0.0,0.0,0.0,0.0,0.0,0.0,0.0,0.0,0.0,0.0,0.0,0.0,0.0,0.0,0.0,0.0,0.0,0.0,0.0,0.0,0.0,0.0,0.0,0.0,0.0,0.0,0.0,0.0,0.0,0.0,0.0,0.0,0.0,0.0,0.0,0.0,0.0,0.0,0.0,0.0,0.0,0.0,0.0,0.0,0.0,0.0,0.0,0.0,0.0,0.0,0.0,0.0,0.0,0.0,0.0,0.0,0.0,0.0,0.0,0.0,0.0,0.0,0.0,0.0,0.0,0.0,0.0,0.0,0.0,0.0,0.0,0.0,0.0,0.0,0.0,0.0,0.0,0.0,0.0,0.0,0.0,0.0,0.0,0.0,0.0,0.0,0.0,0.0,0.0,0.0,0.0,0.0,0.0,0.0,0.0,0.0,0.0,0.0,0.0,0.0,0.0,0.0,0.0,0.0,0.0,0.0,0.0,2.7086,2.7243,2.7046,2.6515,0.0,0.0,0.0,0.0,0.0,0.0,0.0,0.0,0.0,0.0,0.0,0.0,0.0,0.0,0.0,0.0,0.0,0.0,0.0,0.0,0.0,0.0,0.0,0.0,0.0,0.0,0.0,0.0,0.0,0.0,0.0,0.0,0.0,0.0,0.0,0.0,0.0,0.0,0.0,0.0,0.0,0.0,0.0,0.0,0.0,0.0,0.0,0.0,0.0,0.0,0.0,0.0,0.0,0.0,0.0,0.0,0.0,0.0,0.0,0.0,0.0,0.0,0.0,0.0,0.0,0.0,0.0,0.0,0.0,0.0,0.0,0.0,0.0,0.0,0.0,0.0,0.0,0.0,0.0,0.0,0.0,0.0,0.0,0.0,0.0,0.0,0.0,0.0,0.0,0.0,0.0,0.0,0.0,0.0,0.0,0.0,0.0,0.0,0.0,0.0,0.0,0.0,0.0,0.0,0.0,0.0,0.0,0.0,0.0,0.0,2.7231,2.7673,2.8209,2.7383,2.651,2.5634,0.0,0.0,0.0,0.0,0.0,0.0,0.0,0.0,0.0,0.0,0.0,0.0,0.0,0.0,0.0,0.0,0.0,0.0,0.0,0.0,0.0,0.0,0.0,0.0,0.0,0.0,0.0,0.0,0.0,0.0,0.0,0.0,0.0,0.0,0.0,0.0,0.0,0.0,0.0,0.0,0.0,0.0,0.0,0.0,0.0,0.0,0.0,0.0,0.0,0.0,0.0,0.0,0.0,0.0,0.0,0.0,0.0,0.0,0.0,0.0,0.0,0.0,0.0,0.0,0.0,0.0,0.0,0.0,0.0,0.0,0.0,0.0,0.0,0.0,0.0,0.0,0.0,0.0,0.0,0.0,0.0,0.0,0.0,0.0,0.0,0.0,0.0,0.0,0.0,0.0,0.0,0.0,0.0,0.0,0.0,0.0,0.0,0.0,0.0,0.0,0.0,0.0,0.0,0.0,0.0,0.0,0.0,0.0,2.6976,2.7815,2.8262,2.8303,2.7385,2.65,0.0,0.0,0.0,0.0,0.0,0.0,0.0,0.0,0.0,0.0,0.0,0.0,0.0,0.0,0.0,0.0,0.0,0.0,0.0,0.0,0.0,0.0,0.0,0.0,0.0,0.0,0.0,0.0,0.0,0.0,0.0,0.0,0.0,0.0,0.0,0.0,0.0,0.0,0.0,0.0,0.0,0.0,0.0,0.0,0.0,0.0,0.0,0.0,0.0,0.0,0.0,0.0,0.0,0.0,0.0,0.0,0.0,0.0,0.0,0.0,0.0,0.0,0.0,0.0,0.0,0.0,0.0,0.0,0.0,0.0,0.0,0.0,0.0,0.0,0.0,0.0,0.0,0.0,0.0,0.0,0.0,0.0,0.0,0.0,0.0,0.0,0.0,0.0,0.0,0.0,0.0,0.0,0.0,0.0,0.0,0.0,0.0,0.0,0.0,0.0,0.0,0.0,0.0,0.0,0.0,0.0,0.0,0.0,0.0,2.7025,2.8353,2.8808,2.8315,2.7936,2.7078,0.0,0.0,0.0,0.0,0.0,0.0,0.0,0.0,0.0,0.0,0.0,0.0,0.0,0.0,0.0,0.0,0.0,0.0,0.0,0.0,0.0,0.0,0.0,0.0,0.0,0.0,0.0,0.0,0.0,0.0,0.0,0.0,0.0,0.0,0.0,0.0,0.0,0.0,0.0,0.0,0.0,0.0,0.0,0.0,0.0,0.0,0.0,0.0,0.0,0.0,0.0,0.0,0.0,0.0,0.0,0.0,0.0,0.0,0.0,0.0,0.0,0.0,0.0,0.0,0.0,0.0,0.0,0.0,0.0,0.0,0.0,0.0,0.0,0.0,0.0,0.0,0.0,0.0,0.0,0.0,0.0,0.0,0.0,0.0,0.0,0.0,0.0,0.0,0.0,0.0,0.0,0.0,0.0,0.0,0.0,0.0,0.0,0.0,0.0,0.0,0.0,0.0,0.0,0.0,0.0,0.0,0.0,0.0,0.0,2.7384,0.0,2.91,2.8328,2.8223,2.7374,0.0,0.0,0.0,0.0,0.0,0.0,0.0,0.0,0.0,0.0,0.0,0.0,0.0,0.0,0.0,0.0,0.0,0.0,0.0,0.0,0.0,0.0,0.0,0.0,0.0,0.0,0.0,0.0,0.0,0.0,0.0,0.0,0.0,0.0,0.0,0.0,0.0,0.0,0.0,0.0,0.0,0.0,0.0,0.0,0.0,0.0,0.0,0.0,0.0,0.0,0.0,0.0,0.0,0.0,0.0,0.0,0.0,0.0,0.0,0.0,0.0,0.0,0.0,0.0,0.0,0.0,0.0,0.0,0.0,0.0,0.0,0.0,0.0,0.0,0.0,0.0,0.0,0.0,0.0,0.0,0.0,0.0,0.0,0.0,0.0,0.0,0.0,0.0,0.0,0.0,0.0,0.0,0.0,0.0,0.0,0.0,0.0,0.0,0.0,0.0,0.0,0.0,0.0,0.0,0.0,0.0,0.0,0.0,2.6474,2.8099,2.8977,2.9004,2.8309,2.8184,2.7359,0.0,0.0,0.0,0.0,0.0,0.0,0.0,0.0,0.0,0.0,0.0,0.0,0.0,0.0,0.0,0.0,0.0,0.0,0.0,0.0,0.0,0.0,0.0,0.0,0.0,0.0,0.0,0.0,0.0,0.0,0.0,0.0,0.0,0.0,0.0,0.0,0.0,0.0,0.0,0.0,0.0,0.0,0.0,0.0,0.0,0.0,0.0,0.0,0.0,0.0,0.0,0.0,0.0,0.0,0.0,0.0,0.0,0.0,0.0,0.0,0.0,0.0,0.0,0.0,0.0,0.0,0.0,0.0,0.0,0.0,0.0,0.0,0.0,0.0,0.0,0.0,0.0,0.0,0.0,0.0,0.0,0.0,0.0,0.0,0.0,0.0,0.0,0.0,0.0,0.0,0.0,0.0,0.0,0.0,0.0,0.0,0.0,0.0,0.0,0.0,0.0,0.0,0.0,0.0,0.0,0.0,0.0,0.0,0.0,2.7269,2.7581,2.7595,2.7343,2.7315,2.6766,0.0,0.0,0.0,0.0,0.0,0.0,0.0,0.0,0.0,0.0,0.0,0.0,0.0,0.0,0.0,0.0,0.0,0.0,0.0,0.0,0.0,0.0,0.0,0.0,0.0,0.0,0.0,0.0,0.0,0.0,0.0,0.0,0.0,0.0,0.0,0.0,0.0,0.0,0.0,0.0,0.0,0.0,0.0,0.0,0.0,0.0,0.0,0.0,0.0,0.0,0.0,0.0,0.0,0.0,0.0,0.0,0.0,0.0,0.0,0.0,0.0,0.0,0.0,0.0,0.0,0.0,0.0,0.0,0.0,0.0,0.0,0.0,0.0,0.0,0.0,0.0,0.0,0.0,0.0,0.0,0.0,0.0,0.0,0.0,0.0,0.0,0.0,0.0,0.0,0.0,0.0,0.0,0.0,0.0,0.0,0.0,0.0,0.0,0.0,0.0,0.0,0.0,0.0,0.0,0.0,0.0,0.0,0.0,0.0,2.634,2.6698,2.6888,2.6894,2.688,2.6476,2.5604,0.0,0.0,0.0,0.0,0.0,0.0,0.0,0.0,0.0,0.0,0.0,0.0,0.0,0.0,0.0,0.0,0.0,0.0,0.0,0.0,0.0,0.0,0.0,0.0,0.0,0.0,0.0,0.0,0.0,0.0,0.0,0.0,0.0,0.0,0.0,0.0,0.0,0.0,0.0,0.0,0.0,0.0,0.0,0.0,0.0,0.0,0.0,0.0,0.0,0.0,0.0,0.0,0.0,0.0,0.0,0.0,0.0,0.0,0.0,0.0,0.0,0.0,0.0,0.0,0.0,0.0,0.0,0.0,0.0,0.0,0.0,0.0,0.0,0.0,0.0,0.0,0.0,0.0,0.0,0.0,0.0,0.0,0.0,0.0,0.0,0.0,0.0,0.0,0.0,0.0,0.0,0.0,0.0,0.0,0.0,0.0,0.0,0.0,0.0,0.0,0.0,0.0,0.0,0.0,0.0,0.0,0.0,0.0,2.5386,2.6329,2.6807,2.681,2.6802,2.6401,0.0,0.0,0.0,0.0,0.0,0.0,0.0,0.0,0.0,0.0,0.0,0.0,0.0,0.0,0.0,0.0,0.0,0.0,0.0,0.0,0.0,0.0,0.0,0.0,0.0,0.0,0.0,0.0,0.0,0.0,0.0,0.0,0.0,0.0,0.0,0.0,0.0,0.0,0.0,0.0,0.0,0.0,0.0,0.0,0.0,0.0,0.0,0.0,0.0,0.0,0.0,0.0,0.0,0.0,0.0,0.0,0.0,0.0,0.0,0.0,0.0,0.0,0.0,0.0,0.0,0.0,0.0,0.0,0.0,0.0,0.0,0.0,0.0,0.0,0.0,0.0,0.0,0.0,0.0,0.0,0.0,0.0,0.0,0.0,0.0,0.0,0.0,0.0,0.0,0.0,0.0,0.0,0.0,0.0,0.0,0.0,0.0,0.0,0.0,0.0,0.0,0.0,0.0,0.0,0.0,0.0,0.0,0.0,0.0,2.5337,2.5646,2.5839,2.5939,2.5896,2.5732,0.0,0.0,0.0,0.0,0.0,0.0,0.0,0.0,0.0,0.0,0.0,0.0,0.0,0.0,0.0,0.0,0.0,0.0,0.0,0.0,0.0,0.0,0.0,0.0,0.0,0.0,0.0,0.0,0.0,0.0,0.0,0.0,0.0,0.0,0.0,0.0,0.0,0.0,0.0,0.0,0.0,0.0,0.0,0.0,0.0,0.0,0.0,0.0,0.0,0.0,0.0,0.0,0.0,0.0,0.0,0.0,0.0,0.0,0.0,0.0,0.0,0.0,0.0,0.0,0.0,0.0,0.0,0.0,0.0,0.0,0.0,0.0,0.0,0.0,0.0,0.0,0.0,0.0,0.0,0.0,0.0,0.0,0.0,0.0,0.0,0.0,0.0,0.0,0.0,0.0,0.0,0.0,0.0,0.0,0.0,0.0,0.0,0.0,0.0,0.0,0.0,0.0,0.0,0.0,0.0,0.0,0.0,0.0,2.5145,2.5226,2.5344,2.5459,2.5549,2.5489,2.5432,0.0,0.0,0.0,0.0,0.0,0.0,0.0,0.0,0.0,0.0,0.0,0.0,0.0,0.0,0.0,0.0,0.0,0.0,0.0,0.0,0.0,0.0,0.0,0.0,0.0,0.0,0.0,0.0,0.0,0.0,0.0,0.0,0.0,0.0,0.0,0.0,0.0,0.0,0.0,0.0,0.0,0.0,0.0,0.0,0.0,0.0,0.0,0.0,0.0,0.0,0.0,0.0,0.0,0.0,0.0,0.0,0.0,0.0,0.0,0.0,0.0,0.0,0.0,0.0,0.0,0.0,0.0,0.0,0.0,0.0,0.0,0.0,0.0,0.0,0.0,0.0,0.0,0.0,0.0,0.0,0.0,0.0,0.0,0.0,0.0,0.0,0.0,0.0,0.0,0.0,0.0,0.0,0.0,0.0,0.0,0.0,0.0,0.0,0.0,0.0,0.0,0.0,0.0,0.0,0.0,0.0,0.0,0.0,2.5025,2.5086,2.5297,2.5431,2.5481,2.5425,2.5398,0.0,0.0,0.0,0.0,0.0,0.0,0.0,0.0,0.0,0.0,0.0,0.0,0.0,0.0,0.0,0.0,0.0,0.0,0.0,0.0,0.0,0.0,0.0,0.0,0.0,0.0,0.0,0.0,0.0,0.0,0.0,0.0,0.0,0.0,0.0,0.0,0.0,0.0,0.0,0.0,0.0,0.0,0.0,0.0,0.0,0.0,0.0,0.0,0.0,0.0,0.0,0.0,0.0,0.0,0.0,0.0,0.0,0.0,0.0,0.0,0.0,0.0,0.0,0.0,0.0,0.0,0.0,0.0,0.0,0.0,0.0,0.0,0.0,0.0,0.0,0.0,0.0,0.0,0.0,0.0,0.0,0.0,0.0,0.0,0.0,0.0,0.0,0.0,0.0,0.0,0.0,0.0,0.0,0.0,0.0,0.0,0.0,0.0,0.0,0.0,0.0,0.0,0.0,0.0,0.0,0.0,0.0,0.0,2.4974,2.5107,2.5297,2.5398,2.5421,2.5401,2.5363,0.0,0.0,0.0,0.0,0.0,0.0,0.0,0.0,0.0,0.0,0.0,0.0,0.0,0.0,0.0,0.0,0.0,0.0,0.0,0.0,0.0,0.0,0.0,0.0,0.0,0.0,0.0,0.0,0.0,0.0,0.0,0.0,0.0,0.0,0.0,0.0,0.0,0.0,0.0,0.0,0.0,0.0,0.0,0.0,0.0,0.0,0.0,0.0,3.4521,0.0,0.0,0.0,0.0,0.0,0.0,0.0,0.0,0.0,0.0,0.0,0.0,0.0,0.0,0.0,0.0,0.0,0.0,0.0,0.0,0.0,0.0,0.0,0.0,0.0,0.0,0.0,0.0,0.0,0.0,0.0,0.0,0.0,0.0,0.0,0.0,0.0,0.0,0.0,0.0,0.0,0.0,0.0,0.0,0.0,0.0,0.0,0.0,0.0,0.0,0.0,0.0,0.0,0.0,0.0,0.0,0.0,0.0,0.0,2.4915,2.505,2.5284,2.542,2.5436,2.5387,2.5293,0.0,0.0,0.0,0.0,0.0,0.0,0.0,0.0,0.0,0.0,0.0,0.0,0.0,0.0,0.0,0.0,0.0,0.0,0.0,0.0,0.0,0.0,0.0,0.0,0.0,0.0,0.0,0.0,0.0,0.0,0.0,0.0,0.0,0.0,0.0,0.0,0.0,0.0,0.0,0.0,0.0,0.0,0.0,0.0,0.0,0.0,0.0,0.0,0.0,0.0,0.0,0.0,0.0,0.0,0.0,0.0,0.0,0.0,0.0,0.0,0.0,0.0,0.0,0.0,0.0,0.0,0.0,0.0,0.0,0.0,0.0,0.0,0.0,0.0,0.0,0.0,0.0,0.0,0.0,0.0,0.0,0.0,0.0,0.0,0.0,0.0,0.0,0.0,0.0,0.0,0.0,0.0,0.0,0.0,0.0,0.0,0.0,0.0,0.0,0.0,0.0,0.0,0.0,0.0,0.0,0.0,0.0,2.4723,2.4869,2.5007,2.5279,2.5447,2.5505,2.5357,2.5235,2.5101,0.0,0.0,0.0,0.0,0.0,0.0,0.0,0.0,0.0,0.0,0.0,0.0,0.0,0.0,0.0,0.0,0.0,0.0,0.0,0.0,0.0,0.0,0.0,0.0,0.0,0.0,0.0,0.0,0.0,0.0,0.0,0.0,0.0,0.0,0.0,0.0,0.0,0.0,3.1152,3.2584,0.0,0.0,0.0,0.0,0.0,0.0,0.0,0.0,3.6005,0.0,0.0,0.0,0.0,0.0,0.0,0.0,0.0,0.0,0.0,0.0,0.0,0.0,0.0,0.0,0.0,0.0,0.0,0.0,0.0,0.0,0.0,0.0,0.0,0.0,0.0,0.0,0.0,0.0,0.0,0.0,0.0,0.0,0.0,0.0,0.0,0.0,0.0,0.0,0.0,0.0,0.0,0.0,0.0,0.0,0.0,0.0,0.0,0.0,0.0,0.0,0.0,0.0,0.0,0.0,0.0,2.4596,2.4753,2.4904,2.5079,2.5337,2.5478,2.5498,2.5369,2.5216,2.5038,0.0,0.0,0.0,0.0,0.0,0.0,0.0,0.0,0.0,0.0,0.0,0.0,0.0,0.0,0.0,0.0,0.0,0.0,0.0,0.0,0.0,0.0,0.0,0.0,0.0,0.0,0.0,0.0,0.0,0.0,0.0,0.0,0.0,0.0,0.0,0.0,0.0,0.0,0.0,3.3857,3.4842,0.0,0.0,0.0,0.0,0.0,0.0,0.0,0.0,3.6248,0.0,0.0,0.0,0.0,0.0,0.0,0.0,0.0,0.0,0.0,0.0,0.0,0.0,0.0,0.0,0.0,0.0,0.0,0.0,0.0,0.0,0.0,0.0,0.0,0.0,0.0,0.0,0.0,0.0,0.0,0.0,0.0,0.0,0.0,0.0,0.0,0.0,0.0,0.0,0.0,0.0,0.0,0.0,0.0,0.0,0.0,0.0,0.0,0.0,0.0,0.0,0.0,0.0,0.0,0.0,2.5164,2.5336,2.5538,2.5772,2.6034,2.597,2.5509,2.5383,2.5207,0.0,0.0,0.0,0.0,0.0,0.0,0.0,0.0,0.0,0.0,0.0,0.0,0.0,0.0,0.0,0.0,0.0,0.0,0.0,0.0,0.0,0.0,0.0,0.0,0.0,0.0,0.0,0.0,0.0,0.0,0.0,0.0,0.0,0.0,0.0,0.0,0.0,0.0,0.0,0.0,3.4135,3.5019,3.5879,0.0,0.0,0.0,0.0,0.0,0.0,3.6009,3.6289,0.0,0.0,0.0,0.0,0.0,0.0,0.0,0.0,0.0,0.0,0.0,0.0,0.0,0.0,0.0,0.0,0.0,0.0,0.0,0.0,0.0,0.0,0.0,0.0,0.0,0.0,0.0,0.0,0.0,0.0,0.0,0.0,0.0,0.0,0.0,0.0,0.0,0.0,0.0,0.0,0.0,0.0,0.0,0.0,0.0,0.0,0.0,0.0,0.0,0.0,0.0,0.0,0.0,0.0,0.0,2.5706,2.5919,2.6243,2.6669,2.6932,2.6656,2.5792,2.5645,2.5369,0.0,0.0,0.0,0.0,0.0,0.0,0.0,0.0,0.0,0.0,0.0,0.0,0.0,0.0,0.0,0.0,0.0,0.0,0.0,0.0,0.0,0.0,0.0,0.0,0.0,0.0,0.0,0.0,0.0,0.0,0.0,0.0,0.0,0.0,0.0,0.0,0.0,0.0,0.0,0.0,0.0,3.5215,3.5897,3.6012,0.0,0.0,0.0,0.0,3.6005,3.6014,0.0,0.0,0.0,0.0,0.0,0.0,0.0,0.0,0.0,0.0,0.0,0.0,0.0,0.0,0.0,0.0,0.0,0.0,0.0,0.0,0.0,0.0,0.0,0.0,0.0,0.0,0.0,0.0,0.0,0.0,0.0,0.0,0.0,0.0,0.0,0.0,0.0,0.0,0.0,0.0,0.0,0.0,0.0,0.0,0.0,0.0,0.0,0.0,0.0,0.0,0.0,0.0,0.0,0.0,0.0,0.0,2.5759,2.6004,2.6594,2.7575,2.7839,2.7537,2.6669,2.6532,2.6004,0.0,0.0,0.0,0.0,0.0,0.0,0.0,0.0,0.0,0.0,0.0,0.0,0.0,0.0,0.0,0.0,0.0,0.0,0.0,0.0,0.0,0.0,0.0,0.0,0.0,0.0,0.0,0.0,0.0,0.0,0.0,0.0,0.0,0.0,0.0,0.0,0.0,0.0,0.0,0.0,0.0,3.5876,3.5988,3.602,3.6001,0.0,0.0,0.0,3.6007,3.601,0.0,0.0,0.0,0.0,0.0,0.0,0.0,0.0,0.0,0.0,0.0,0.0,0.0,0.0,0.0,0.0,0.0,0.0,0.0,0.0,0.0,0.0,0.0,0.0,0.0,0.0,0.0,0.0,0.0,0.0,0.0,0.0,0.0,0.0,0.0,0.0,0.0,0.0,0.0,0.0,0.0,0.0,0.0,0.0,0.0,0.0,0.0,0.0,0.0,0.0,0.0,0.0,0.0,0.0,0.0,2.5612,2.6486,2.7185,2.7828,2.8454,2.872,2.8202,2.6844,2.6655,2.611,0.0,0.0,0.0,0.0,0.0,0.0,0.0,0.0,0.0,0.0,0.0,0.0,0.0,0.0,0.0,0.0,0.0,0.0,0.0,0.0,0.0,0.0,0.0,0.0,0.0,0.0,0.0,0.0,0.0,0.0,0.0,0.0,0.0,0.0,0.0,0.0,0.0,0.0,0.0,0.0,0.0,0.0,3.6013,3.6013,0.0,0.0,0.0,3.6016,3.6013,0.0,0.0,0.0,0.0,0.0,0.0,0.0,0.0,0.0,0.0,0.0,0.0,0.0,0.0,0.0,0.0,0.0,0.0,0.0,0.0,0.0,0.0,0.0,0.0,0.0,0.0,0.0,0.0,0.0,0.0,0.0,0.0,0.0,0.0,0.0,0.0,0.0,0.0,0.0,0.0,0.0,0.0,0.0,0.0,0.0,0.0,0.0,0.0,0.0,0.0,0.0,0.0,0.0,0.0,0.0,0.0,0.0,2.7027,2.8067,2.888,2.9332,2.9601,2.8906,2.7215,2.6992,0.0,0.0,0.0,0.0,0.0,0.0,0.0,0.0,0.0,0.0,0.0,0.0,0.0,0.0,0.0,0.0,0.0,0.0,0.0,0.0,0.0,0.0,0.0,0.0,0.0,0.0,0.0,0.0,0.0,0.0,0.0,0.0,0.0,0.0,0.0,0.0,0.0,0.0,0.0,0.0,0.0,0.0,3.5991,3.597,3.5975,3.601,0.0,0.0,3.6012,3.6017,3.601,3.6191,0.0,0.0,0.0,0.0,0.0,0.0,0.0,0.0,0.0,0.0,0.0,0.0,0.0,0.0,0.0,0.0,0.0,0.0,0.0,0.0,0.0,0.0,0.0,0.0,0.0,0.0,0.0,0.0,0.0,0.0,0.0,0.0,0.0,0.0,0.0,0.0,0.0,0.0,0.0,0.0,0.0,0.0,0.0,0.0,0.0,0.0,0.0,0.0,0.0,0.0,0.0,0.0,0.0,0.0,0.0,2.7099,2.8146,2.9232,3.026,3.0501,2.9785,2.8076,2.7872,2.6919,0.0,0.0,0.0,0.0,0.0,0.0,0.0,0.0,0.0,0.0,0.0,0.0,0.0,0.0,0.0,0.0,0.0,0.0,0.0,0.0,0.0,0.0,0.0,0.0,0.0,0.0,0.0,0.0,0.0,0.0,0.0,0.0,0.0,0.0,0.0,0.0,0.0,0.0,0.0,0.0,0.0,3.5914,3.5913,3.5954,3.601,0.0,0.0,3.6016,3.6015,3.6027,3.6021,3.607,0.0,0.0,0.0,0.0,0.0,0.0,0.0,0.0,0.0,0.0,0.0,0.0,0.0,0.0,0.0,0.0,0.0,0.0,0.0,0.0,0.0,0.0,0.0,0.0,0.0,0.0,0.0,0.0,0.0,0.0,0.0,0.0,0.0,0.0,0.0,0.0,0.0,0.0,0.0,0.0,0.0,0.0,0.0,0.0,0.0,0.0,0.0,0.0,0.0,0.0,0.0,0.0,0.0,2.6619,2.7115,2.8654,2.9749,3.0423,3.0622,2.9863,2.8154,2.7988,2.6986,0.0,0.0,0.0,0.0,0.0,0.0,0.0,0.0,0.0,0.0,0.0,0.0,0.0,0.0,0.0,0.0,0.0,0.0,0.0,0.0,0.0,0.0,0.0,0.0,0.0,0.0,0.0,0.0,2.5609,2.5819,2.6335,0.0,0.0,0.0,0.0,0.0,0.0,0.0,0.0,0.0,0.0,3.5781,3.5825,3.5929,0.0,0.0,3.6007,3.6191,3.6716,3.6797,3.6961,3.7454,3.7518,0.0,0.0,0.0,0.0,0.0,0.0,0.0,0.0,0.0,0.0,0.0,0.0,0.0,0.0,0.0,0.0,0.0,0.0,0.0,0.0,0.0,0.0,0.0,0.0,0.0,0.0,0.0,0.0,0.0,0.0,0.0,0.0,0.0,0.0,0.0,0.0,0.0,0.0,0.0,0.0,0.0,0.0,0.0,0.0,0.0,0.0,0.0,0.0,0.0,0.0,0.0,0.0,2.6878,2.7078,2.8954,3.0113,3.0501,3.0622,2.9863,2.8193,2.7961,2.6956,0.0,0.0,0.0,0.0,0.0,0.0,0.0,0.0,0.0,0.0,0.0,0.0,0.0,0.0,0.0,0.0,0.0,0.0,0.0,0.0,0.0,0.0,0.0,0.0,0.0,0.0,0.0,0.0,2.5818,2.6233,2.6822,0.0,0.0,0.0,0.0,0.0,0.0,0.0,0.0,0.0,0.0,3.5678,3.5743,3.5868,3.6034,3.6319,3.6384,3.6698,3.7569,3.7672,3.7847,3.8405,0.0,0.0,0.0,0.0,0.0,0.0,0.0,0.0,0.0,0.0,0.0,0.0,0.0,0.0,0.0,0.0,0.0,0.0,0.0,0.0,0.0,0.0,0.0,0.0,0.0,0.0,0.0,0.0,0.0,0.0,0.0,0.0,0.0,0.0,0.0,0.0,0.0,0.0,0.0,0.0,0.0,0.0,0.0,0.0,0.0,0.0,0.0,0.0,0.0,0.0,0.0,0.0,0.0,0.0,2.7025,2.8985,3.0164,3.0507,3.0618,2.9882,2.8205,2.7908,2.6886,2.4953,0.0,0.0,0.0,0.0,0.0,0.0,0.0,0.0,0.0,0.0,0.0,0.0,0.0,0.0,0.0,0.0,0.0,0.0,0.0,0.0,0.0,0.0,0.0,0.0,0.0,0.0,2.564,2.6357,2.6865,0.0,0.0,0.0,0.0,0.0,0.0,0.0,0.0,0.0,0.0,3.4956,3.5554,3.5698,3.5788,3.6163,3.705,3.7226,3.7596,3.8459,3.8514,3.8488,0.0,0.0,0.0,0.0,0.0,0.0,0.0,0.0,0.0,0.0,0.0,0.0,0.0,0.0,0.0,0.0,0.0,0.0,0.0,0.0,0.0,0.0,0.0,0.0,0.0,0.0,0.0,0.0,2.5697,0.0,0.0,0.0,0.0,0.0,0.0,0.0,0.0,0.0,0.0,0.0,2.5318,2.4872,0.0,0.0,0.0,0.0,0.0,0.0,0.0,0.0,0.0,0.0,0.0,0.0,2.7041,2.7811,2.9251,3.0177,3.05,3.0622,3.0135,2.8996,2.8218,2.6822,2.4776,0.0,0.0,0.0,0.0,0.0,0.0,0.0,0.0,0.0,0.0,0.0,0.0,0.0,0.0,0.0,0.0,0.0,0.0,0.0,0.0,0.0,0.0,0.0,0.0,0.0,2.5846,0.0,0.0,0.0,0.0,0.0,0.0,0.0,0.0,0.0,0.0,0.0,3.3764,3.462,3.5025,3.5532,3.6314,3.6526,3.6932,0.0,0.0,0.0,0.0,0.0,0.0,0.0,0.0,0.0,0.0,0.0,0.0,0.0,0.0,4.0955,4.071,4.0657,4.0569,4.0281,0.0,0.0,0.0,0.0,0.0,0.0,0.0,0.0,0.0,0.0,0.0,0.0,0.0,0.0,0.0,0.0,2.5693,0.0,0.0,0.0,0.0,0.0,0.0,0.0,0.0,2.4826,2.4834,2.4724,2.4343,2.4505,0.0,2.4336,2.4806,0.0,0.0,0.0,0.0,0.0,0.0,0.0,0.0,2.7324,2.8126,2.9371,3.0145,3.0482,3.0665,3.0311,2.9401,2.7971,2.6511,2.5061,2.4506,2.4265,0.0,0.0,0.0,0.0,0.0,0.0,0.0,0.0,0.0,0.0,0.0,0.0,0.0,0.0,0.0,0.0,0.0,0.0,0.0,0.0,0.0,0.0,0.0,2.6365,0.0,0.0,0.0,0.0,0.0,0.0,0.0,0.0,0.0,3.2966,3.3386,3.4074,3.523,3.5435,3.5889,3.6993,0.0,0.0,0.0,0.0,0.0,0.0,0.0,4.0444,4.0998,4.11,4.1106,4.1113,4.1112,4.1116,4.1111,0.0,0.0,4.1039,4.1064,4.1075,4.1109,4.1117,4.1117,4.1109,4.1086,4.1039,0.0,0.0,0.0,0.0,0.0,0.0,0.0,0.0,2.5257,2.5512,0.0,2.5561,0.0,0.0,0.0,0.0,0.0,0.0,0.0,0.0,2.4551,2.4356,2.379,2.3985,2.4187,2.4288,2.3556,2.3975,2.5454,2.5414,0.0,0.0,0.0,0.0,0.0,0.0,2.7693,2.7988,2.9309,3.0182,3.0494,3.0689,3.0349,2.9389,2.7301,2.6069,2.5772,2.4746,2.413,2.4112,2.4207,0.0,0.0,0.0,0.0,0.0,0.0,0.0,0.0,0.0,0.0,0.0,0.0,0.0,0.0,0.0,0.0,0.0,0.0,0.0,0.0,2.6327,0.0,0.0,0.0,0.0,0.0,0.0,0.0,0.0,0.0,0.0,3.3712,3.3658,3.4202,3.5886,0.0,0.0,0.0,0.0,3.8588,3.9595,3.9797,4.0137,4.0957,4.1092,4.1101,4.1094,0.0,0.0,4.1103,4.1112,4.1111,4.1106,4.1052,4.0996,4.0996,4.0991,4.102,4.107,4.1086,4.1111,4.1091,4.1045,4.0974,2.0337,0.0,0.0,0.0,0.0,2.3006,2.3811,2.4479,2.4447,2.453,2.4668,2.4081,0.0,0.0,0.0,0.0,0.0,0.0,2.362,2.3842,2.4136,2.4309,2.4408,2.4064,2.4317,2.5033,2.4261,2.4393,2.5332,2.5653,2.5777,2.5691,0.0,0.0,0.0,0.0,2.7827,2.8668,2.9509,3.0113,3.0474,3.065,3.0266,2.9276,2.7857,2.6721,2.5895,2.5319,2.4701,2.4091,2.4034,0.0,0.0,0.0,0.0,0.0,0.0,0.0,0.0,0.0,0.0,0.0,0.0,0.0,0.0,0.0,0.0,0.0,0.0,0.0,2.6296,2.7168,2.8066,0.0,0.0,0.0,0.0,0.0,0.0,0.0,0.0,0.0,3.4731,3.482,3.5235,0.0,0.0,3.7356,3.8553,3.8915,3.9437,4.0485,0.0,0.0,0.0,4.1111,4.1105,4.1108,4.1113,4.1113,4.1099,4.1113,4.1069,4.105,4.1025,4.0988,4.0935,4.098,4.1018,4.1033,4.1025,4.1019,4.1033,4.096,4.0921,1.9382,1.9585,1.9779,2.0224,2.0921,2.2106,2.3143,2.403,2.434,2.4612,2.4787,2.4296,2.4213,2.4405,2.3616,0.0,0.0,0.0,2.3045,2.3328,2.3759,2.3952,2.4022,2.3827,2.4085,2.4697,2.3983,2.4279,2.5584,2.5736,2.594,2.618,0.0,0.0,2.7242,2.7843,2.8558,2.9415,3.0057,3.0567,3.0912,3.0456,3.0038,2.9738,2.833,2.7352,2.6951,2.6247,2.5417,2.4468,2.4348,2.4247,0.0,0.0,0.0,0.0,0.0,0.0,0.0,0.0,0.0,0.0,0.0,2.7022,0.0,0.0,0.0,0.0,2.571,2.6361,2.7566,2.8238,0.0,0.0,0.0,0.0,0.0,0.0,0.0,3.3512,3.3952,3.4633,3.5892,3.6095,3.6424,3.7262,3.7558,3.8186,3.9409,0.0,4.0145,4.0839,4.1006,4.1061,4.111,4.1113,4.1107,4.1108,4.1113,4.1113,4.1099,4.1113,4.1085,4.1031,4.0979,4.098,4.0897,4.0935,4.096,4.0979,4.0993,4.0986,4.0953,4.0894,4.0859,1.9506,1.9058,1.8988,1.9339,1.9997,2.1449,2.2647,2.3658,2.4662,2.5233,2.55,2.5427,2.5162,2.47,2.3505,0.0,0.0,2.2415,2.2623,2.3072,2.3593,2.3653,2.3271,2.3615,2.3827,2.3983,2.3261,2.3988,2.5882,2.5757,2.6133,2.7051,2.7005,2.7222,2.7735,2.8856,2.9664,3.0197,3.0866,3.1339,3.1599,3.0167,2.9799,3.0562,2.8723,2.7967,2.8442,2.7345,2.6209,2.5175,2.4968,2.4603,2.4042,0.0,0.0,0.0,0.0,0.0,0.0,0.0,0.0,0.0,0.0,0.0,0.0,0.0,0.0,0.0,2.6381,0.0,2.9254,2.9525,0.0,0.0,0.0,3.2143,3.2711,3.308,3.3449,3.3935,0.0,0.0,0.0,0.0,3.7448,3.804,3.8409,3.9015,4.0138,4.0441,4.0668,4.0869,4.0964,4.1011,4.1085,4.1112,4.1103,4.1101,4.1105,4.1113,4.1101,4.1111,4.1074,4.1019,4.0979,4.098,4.0897,4.0888,4.0926,4.098,4.0988,4.098,4.0924,4.084,4.0787,2.0725,2.028,2.1059,2.099,2.0527,2.2032,2.3023,2.3619,2.4018,2.4347,2.4564,2.3854,2.33,2.2865,2.2652,2.2634,2.2792,2.2822,2.3376,2.435,2.4901,2.5285,2.5512,2.5245,2.5204,2.5359,2.5167,2.528,2.5719,2.6549,2.6928,2.6917,2.7893,2.8463,2.8614,2.9134,2.998,3.117,3.177,3.2026,3.1864,3.0307,2.9857,3.0639,2.9419,2.8676,2.8575,2.8035,2.6923,2.5193,2.4964,2.4847,2.4759,2.4388,0.0,0.0,0.0,0.0,0.0,0.0,0.0,0.0,0.0,2.5921,2.6475,0.0,2.6676,0.0,2.8599,2.9882,3.1018,3.1727,0.0,0.0,3.2742,3.2929,3.349,3.3254,3.3271,3.3778,3.4141,3.4599,3.5289,3.5985,3.6906,3.8091,3.8926,3.9624,4.0213,4.0469,4.0668,4.0859,4.0964,4.1025,4.1085,4.1113,4.1114,4.1108,4.1104,4.1114,4.1112,4.1101,4.1072,4.102,4.0991,4.096,4.0917,4.0888,4.0888,4.0926,4.0906,4.0917,4.0888,4.0837,4.0792,2.2589,2.2328,2.3276,2.3308,2.2718,2.3177,2.3556,2.393,2.434,2.4641,2.4764,2.3889,2.3116,2.2497,2.222,2.2333,2.2716,2.2811,2.3536,2.4773,2.5302,2.5775,2.6149,2.6023,2.6041,2.6209,2.6135,2.619,2.6395,2.7009,2.7284,2.7268,2.8411,2.92,2.9656,3.0241,3.103,3.2084,3.2428,3.2432,3.1968,3.0359,2.9884,3.0646,2.9659,2.9164,2.9246,2.8929,2.8009,2.6469,2.6182,2.5746,2.5081,2.4762,2.482,0.0,0.0,0.0,0.0,0.0,0.0,0.0,0.0,0.0,0.0,0.0,2.8241,0.0,0.0,0.0,3.2109,3.2709,3.318,3.3635,3.3581,3.3755,3.4274,3.3866,3.373,3.4238,3.4327,3.4588,3.5253,3.586,3.6592,3.759,3.8275,3.9081,4.0116,4.0485,4.0688,4.0869,4.0964,4.1017,4.1101,4.1113,4.1116,4.1111,4.1108,4.1099,4.1113,4.1114,4.1081,4.1013,4.0984,4.096,4.0917,4.0888,4.0888,4.0888,4.0888,4.0888,4.0877,4.0804,4.0745,2.4855,2.4798,2.5603,2.5841,2.564,2.4844,2.4458,2.4419,2.5032,2.5348,2.5363,2.4524,2.3694,2.287,2.2203,2.2217,2.2719,2.2963,2.379,2.5035,2.5544,2.5967,2.6314,2.6454,2.6596,2.672,2.6646,2.684,2.729,2.7306,2.7469,2.7893,2.8847,2.9768,3.0661,3.1639,3.2466,3.3044,3.295,3.2628,3.2038,3.0484,3.0005,3.0633,2.9773,2.9539,3.0079,2.9652,2.8912,2.7908,2.7433,2.659,2.5238,2.5126,2.502,0.0,2.4889,0.0,0.0,0.0,0.0,0.0,0.0,0.0,0.0,2.8422,3.0024,3.1569,3.1135,3.1443,3.3071,3.3284,3.3662,3.4439,3.4442,3.4515,3.4908,3.4544,3.436,3.4715,3.448,3.4677,3.5483,3.5889,3.6184,3.6789,3.713,3.7965,3.9637,4.01,4.0243,4.0675,4.0906,4.1033,4.1084,4.1113,4.1105,4.1114,4.1108,4.1099,4.1113,4.1111,4.1075,4.1013,4.0984,4.098,4.0917,4.0888,4.0888,4.0888,4.0888,4.0888,4.0828,4.0773,4.0675,2.717,2.7142,2.8022,2.8142,2.7739,2.7788,2.6645,2.4807,2.5197,2.5216,2.4885,2.4202,2.3524,2.2926,2.2971,2.3335,2.3994,2.4738,2.5715,2.6909,2.7221,2.7518,2.7825,2.7465,2.7318,2.7318,2.7271,2.7248,2.722,2.771,2.7994,2.8162,2.9647,3.0589,0.0,0.0,0.0,0.0,3.3461,3.2764,3.2314,3.1167,3.0597,3.0691,3.0382,0.0,3.0152,2.9266,2.8273,2.7176,2.6276,0.0,0.0,0.0,0.0,0.0,0.0,0.0,0.0,0.0,0.0,0.0,2.8376,2.8387,2.7748,2.9621,3.1562,3.3168,3.3325,3.3757,3.482,3.5039,3.5168,3.5342,3.5288,3.5172,3.4944,3.4527,3.4214,3.4034,3.3807,3.3816,3.4248,3.4381,3.4989,3.6058,3.6327,3.6976,3.8235,3.857,3.8914,3.9704,4.0512,4.1046,4.1105,4.1113,4.1111,4.1116,4.1108,4.1103,4.1112,4.1117,4.1078,4.1006,4.0976,4.0982,4.0917,4.0888,4.0888,4.0888,4.0888,4.0898,4.0888,4.0834,4.0745,2.8382,0.0,2.8831,2.8917,0.0,2.8372,2.7493,2.622,2.6026,2.5474,2.4615,2.4007,2.362,2.3388,2.3295,2.3846,2.4923,2.5357,2.6239,2.7386,2.76,2.7864,2.8191,2.7932,2.7839,2.7871,2.7813,2.7761,2.7736,2.8433,2.8612,2.8309,3.044,3.1392,3.132,3.3343,3.4372,3.4343,3.3469,3.2762,3.2239,3.1304,3.0754,3.0711,0.0,0.0,0.0,0.0,0.0,0.0,0.0,0.0,0.0,0.0,0.0,2.5911,2.6157,2.6619,2.7248,2.7779,2.8259,2.8676,2.9198,2.9651,2.999,3.0776,3.2079,3.4111,3.4137,3.4393,3.5278,3.5496,3.5558,3.5565,3.5489,3.5316,3.4977,3.4566,3.422,3.403,3.4164,3.4348,3.4467,3.5099,3.5544,3.5934,3.614,3.6384,3.6727,3.7552,3.8462,3.946,4.0052,4.0608,4.1004,4.1112,4.1113,4.1128,4.1126,4.1112,4.1107,4.11,4.1065,4.1013,4.0976,4.0974,4.0917,4.0888,4.0888,4.0888,4.0898,4.0878,4.0848,4.0792,4.0707,2.9271,2.9201,2.926,2.9298,2.929,2.854,2.8039,2.7661,0.0,0.0,0.0,2.4351,2.4139,2.4164,2.3864,2.4438,2.5622,2.5792,2.6439,2.7434,2.7587,2.7824,2.8099,2.8126,2.8191,2.83,2.8264,2.8237,2.8272,2.9106,2.9242,2.8953,3.1157,3.2243,3.2191,3.3911,3.4545,3.3954,3.3321,3.264,3.1884,3.1165,3.0758,3.0706,3.0646,3.0565,3.0444,3.0113,2.984,2.9633,2.9307,2.8465,2.712,2.766,2.7524,2.6439,2.7179,2.8099,2.8946,2.9264,2.9467,2.964,3.0196,3.1009,3.2204,3.1807,3.2448,3.4717,3.4447,3.4534,3.5321,3.547,3.5502,3.5502,3.5424,3.5315,3.5188,3.4794,3.4591,3.4587,3.5043,3.5376,3.5486,3.6247,3.6766,3.6371,3.6482,3.6322,3.5979,3.6974,3.8197,3.9171,3.9643,4.0115,4.0837,4.1089,4.1132,4.1171,4.1132,4.1108,4.1085,4.1081,4.1059,4.0999,4.0988,4.0954,4.0917,4.0888,4.0888,4.0898,4.0898,4.0848,4.0826,4.0745,4.064,3.0407,3.0351,3.0361,3.0334,3.0185,2.996,2.9223,2.8158,2.7292,2.6726,2.6354,2.5895,2.5529,2.5279,2.564,2.5945,2.6238,2.6922,2.7361,0.0,2.7842,2.8014,2.8099,2.8219,2.8273,2.83,2.8371,2.8353,2.8488,2.9269,2.9691,2.9999,3.1631,3.3105,3.4186,3.4751,3.4694,3.4082,3.3361,3.2337,3.1037,3.0863,3.08,3.0794,3.0714,3.0649,3.0559,2.974,2.9162,2.9032,2.8173,2.7532,2.7283,2.7444,2.7475,2.7389,2.762,2.7923,2.8272,2.8976,2.987,3.0963,3.2229,3.2769,3.2198,3.2726,3.354,3.4699,3.4868,3.5059,3.5355,3.5457,3.547,3.5488,3.5393,3.5436,3.578,3.5647,3.566,3.6073,3.6268,3.6361,3.6485,3.6795,3.7108,3.7133,3.7204,3.7198,3.6796,3.6899,3.7531,3.8427,3.9245,4.0026,4.0818,4.1062,4.1094,4.1116,4.1114,4.1062,4.1025,4.1006,4.1015,4.0999,4.0954,4.0917,4.0888,4.0888,4.0898,4.0898,4.0848,4.0826,4.0796,4.0675,4.0622,3.0574,3.0535,3.0468,3.0356,3.021,2.9921,2.9439,2.8817,2.8346,2.7537,2.6576,2.6209,2.6133,2.6269,2.6282,2.6568,2.7039,2.7309,2.7526,2.7694,2.8217,2.8594,2.8774,2.9298,2.9579,2.9589,2.9673,2.9737,2.9891,3.0695,3.0992,3.0869,3.2225,3.3542,3.4694,3.4965,3.4761,3.4154,3.3384,3.2492,3.1487,3.1028,3.0796,3.0801,3.0782,3.0691,3.0593,3.0134,2.9817,2.9724,2.9205,2.8706,2.8273,2.8701,2.8823,2.8514,2.8993,2.9386,2.9505,3.024,3.1079,3.1895,3.2934,3.3502,3.335,3.3789,3.4247,3.4706,3.4965,3.5181,3.5324,3.5379,3.5374,3.5407,3.5637,3.5905,3.6064,3.6266,3.6456,3.6714,3.7058,3.7299,3.7396,3.7997,3.8244,3.8088,3.7909,3.7677,3.7478,3.756,3.7822,3.8361,3.9132,3.9999,4.0831,4.1017,4.1047,4.1056,4.1056,4.1039,4.0991,4.0988,4.098,4.0991,4.0926,4.0907,4.0888,4.0888,4.0898,4.0848,4.0792,4.0757,4.07,4.0607,4.0539,3.0444,3.04,3.0284,3.0128,2.9927,2.9608,2.9373,2.9249,2.9138,2.8323,2.7108,2.6776,2.6921,2.7219,2.6919,2.711,2.7624,2.7557,2.7704,2.8047,2.8705,2.9213,2.965,3.0344,3.07,3.0751,3.0836,3.093,3.113,3.1947,3.229,3.2176,3.3041,3.3966,3.4812,3.502,3.4901,3.4437,3.3708,3.2878,3.2013,3.1203,3.0786,3.0798,3.0796,3.0745,3.0651,3.0591,3.052,3.0439,3.0344,2.9975,2.9421,2.999,3.01,2.9651,3.021,3.0736,3.1011,3.1657,3.2282,3.2768,3.3464,3.4033,3.4383,3.4583,3.468,3.4749,3.4945,3.5147,3.5305,3.5503,3.5573,3.5602,3.6171,3.6634,3.6707,3.6964,3.7272,3.7412,3.7884,3.8264,3.8515,3.918,3.9441,3.9007,3.8514,3.822,3.8272,3.8395,3.8519,3.8771,3.9271,3.9996,4.0797,4.0986,4.1006,4.0976,4.0991,4.0991,4.0996,4.0976,4.0996,4.098,4.0963,4.0926,4.0936,4.0898,4.0868,4.0818,4.0738,4.0687,4.0607,4.0583,4.0523,3.0248,3.0122,3.0037,2.9834,2.9551,2.9394,2.9228,2.9134,2.9108,2.8966,2.8594,2.8524,2.8377,2.8332,2.8021,2.7926,2.7975,2.7836,2.8176,2.887,2.92,2.9779,3.0469,3.0761,3.0874,3.0956,3.1084,3.1265,3.1362,3.2169,3.308,3.3929,3.4323,3.4576,3.487,3.5037,3.5165,3.527,3.4546,3.347,3.2052,3.1217,3.0801,3.0799,3.0813,3.0801,3.0794,3.073,3.0637,3.0591,3.0518,3.0424,3.0376,3.05,3.0546,3.0458,3.0598,3.1024,3.1814,3.2512,3.3138,3.3731,3.4371,3.4697,3.4623,3.4749,3.479,3.4902,3.4983,3.5169,3.5327,3.5985,3.6367,3.6413,3.6995,3.762,3.8104,3.8122,3.8321,3.9158,3.9083,3.9282,3.9397,3.9664,3.9854,3.9908,3.9374,3.904,3.9147,3.9244,3.9347,3.9461,3.9663,4.0068,4.0785,4.0988,4.0976,4.0996,4.0996,4.0984,4.0991,4.0984,4.0976,4.0976,4.0996,4.0971,4.0954,4.0945,4.0859,4.0796,4.0725,4.0654,4.0569,4.0558,4.0573,3.0,2.9902,2.9805,2.9626,2.937,2.9225,2.9156,2.9089,2.9044,2.9017,2.897,2.8858,2.8761,2.8594,2.838,2.8523,2.8907,2.8813,2.9183,3.0036,3.0646,3.1146,3.1516,3.2159,3.2426,3.2454,3.2538,3.2621,3.2765,3.318,3.3759,3.4302,3.4498,3.4708,3.4889,3.5035,3.5207,3.5369,3.4677,3.3994,3.3425,3.2688,3.2049,3.1621,3.1562,3.1321,3.0859,3.0784,3.0728,3.0652,3.0644,3.0614,3.0626,3.0661,3.0672,3.075,3.12,3.1608,3.1921,3.3042,3.3755,3.3907,3.456,3.5078,3.5469,3.5568,3.5836,3.6311,3.6084,3.6042,3.6608,3.7003,3.723,3.7292,3.7795,3.8343,3.8563,3.8822,3.9156,3.9451,3.9542,3.9577,3.9747,3.9933,4.0077,4.0215,3.9947,3.9849,3.9974,4.01,4.0198,4.0283,4.0374,4.0528,4.0887,4.0935,4.0971,4.0988,4.0996,4.0984,4.0979,4.0991,4.0976,4.0976,4.0952,4.0954,4.0937,4.0878,4.0828,4.0742,4.0681,4.0593,4.0511,4.0562,4.0573,2.9755,2.9664,2.9569,2.9409,2.9259,2.9152,2.9089,2.9099,2.9237,2.9305,2.9342,2.9502,2.9521,2.9387,2.9021,2.925,2.9936,2.9898,3.0273,3.1103,3.1802,3.222,3.2549,3.3201,3.353,3.3577,3.3597,3.3808,3.4119,3.4289,3.4593,3.5025,3.5011,3.5049,3.523,3.5207,3.519,3.5307,3.486,3.4665,3.4662,3.4241,3.3496,3.2549,3.2465,3.205,3.1205,3.1167,3.1012,3.0751,3.074,3.0725,3.0725,3.073,3.0837,3.1133,3.164,3.2168,3.252,3.3593,3.4224,3.4324,3.4804,3.5362,3.5989,3.6217,3.6787,3.7738,3.745,3.739,3.7563,3.7924,3.8054,3.8112,3.8671,3.9067,3.9123,3.9467,3.9632,3.9675,3.974,3.9789,3.9937,4.0098,4.0234,4.0272,4.031,4.0347,4.0471,4.0562,4.0668,4.0768,4.0849,4.0904,4.0935,4.0935,4.0952,4.0976,4.0991,4.0991,4.0986,4.0972,4.0996,4.0988,4.0935,4.0898,4.0898,4.0867,4.0773,4.0694,4.0654,4.0622,4.0492,4.0677,4.0904,2.9531,2.9412,2.9286,2.9215,2.9126,2.9144,2.9099,2.9237,2.9843,3.0155,3.0246,3.087,3.1256,3.1157,3.0305,3.0275,3.0965,3.0939,3.1347,3.2107,3.2272,3.2728,3.3419,3.3615,3.3698,3.3698,3.3844,3.432,3.5153,3.5254,3.5832,3.6742,3.6164,3.5941,3.6046,3.5549,3.525,3.5358,3.5364,3.5451,3.551,3.5581,3.4827,3.3487,3.331,3.2929,3.2163,3.2031,3.166,3.0835,3.0814,3.0796,3.0778,3.08,3.1168,3.1804,3.1967,3.2619,3.3851,3.4193,3.4491,3.5063,3.5196,3.5528,3.6311,3.6557,3.7298,3.8689,3.8857,3.8609,3.8098,3.8628,3.8971,3.8993,3.9624,4.0024,4.0062,3.9835,3.9905,3.9975,3.9963,3.9983,4.0157,4.0273,4.0291,4.031,4.0329,4.0329,4.0419,4.0521,4.066,4.077,4.0882,4.0981,4.0979,4.0976,4.0972,4.0993,4.0993,4.0993,4.0967,4.096,4.0976,4.0971,4.0926,4.0888,4.0888,4.0846,4.0738,4.0694,4.0781,4.0746,4.0831,4.1335,4.1643,2.9347,2.9203,2.9156,2.9384,2.9793,2.9793,3.0068,3.0558,3.0834,3.0962,3.0999,3.1256,3.1678,3.2155,3.1785,3.1751,3.1991,3.1919,3.2329,3.3011,3.3168,3.3341,3.3606,3.3707,3.3753,3.3853,3.4312,3.5073,3.5947,3.6066,3.6363,3.6849,3.6784,3.6791,3.6862,3.6348,3.5995,3.6017,3.5681,3.5483,3.5608,3.5659,3.5433,3.4924,3.4417,3.3765,3.29,3.2381,3.1941,3.1655,3.1128,3.0784,3.085,3.1281,3.1649,3.1972,3.2879,3.368,3.4192,3.4672,3.499,3.5223,3.5711,3.6325,3.7089,3.7716,3.8572,3.9488,3.9848,3.9731,3.9618,3.975,3.9902,3.9884,4.0079,4.0252,4.0196,4.0118,4.0093,4.0138,4.0139,4.0139,4.0349,4.0291,4.031,4.0329,4.0329,4.0386,4.0421,4.049,4.0703,4.0759,4.0863,4.0948,4.0981,4.0986,4.0986,4.1026,4.1039,4.1007,4.0981,4.0964,4.0988,4.0917,4.0888,4.0848,4.0823,4.0931,4.081,4.0814,4.0911,4.1378,4.1343,4.2063,4.2467,2.995,2.9881,2.9858,3.0129,3.0558,3.0577,3.0889,3.1403,3.1678,3.1788,3.1825,3.2045,3.2485,3.2926,3.2999,3.3138,3.325,3.2994,3.314,3.3634,3.3698,3.3726,3.3789,3.4037,3.4192,3.4339,3.5037,3.5919,3.6777,3.6897,3.7225,3.7796,3.7615,3.7662,3.7755,3.7185,3.6854,3.6766,3.64,3.6219,3.6273,3.6385,3.6357,3.6115,3.5648,3.4841,3.3763,3.3193,3.2765,3.2435,3.168,3.1203,3.1254,3.1662,3.2194,3.2716,3.3662,3.4419,3.4648,3.5316,3.5722,3.5717,3.6411,3.7254,3.8056,3.8703,3.9407,4.0095,4.0398,4.0415,4.0432,4.0411,4.0427,4.037,4.0358,4.036,4.0341,4.0539,4.0826,4.1074,4.1151,4.1113,4.1113,4.1151,4.1189,4.1113,4.1113,4.1113,4.1168,4.1259,4.1354,4.1509,4.1762,4.1868,4.1999,4.2097,4.1439,4.1312,4.1136,4.1078,4.1057,4.1046,4.1012,4.0917,4.0865,4.0781,4.0829,4.0971,4.1045,4.1065,4.1632,4.2233,4.2502,4.2906,4.3275,3.1446,3.1348,3.1391,3.1336,3.1403,3.1403,3.1421,3.1696,3.232,3.2614,3.2706,3.3385,3.3715,3.3807,3.3917,3.4284,3.4679,3.422,3.3963,3.4037,3.4027,3.4009,3.4064,3.4743,3.511,3.5155,3.5917,3.6793,3.7645,3.7757,3.8247,3.9077,3.8681,3.8556,3.8803,3.8099,3.7714,3.7672,3.7622,3.767,3.7871,3.7833,3.7507,3.6911,3.6784,3.609,3.4659,3.4504,3.4043,3.3301,3.2547,3.2088,3.2007,3.2098,3.2664,3.3877,3.4306,3.468,3.5383,3.6128,3.6535,3.6734,3.7386,3.8175,3.8788,3.9133,3.9555,4.0224,4.0468,4.0485,4.0482,4.0572,4.0588,4.0518,4.0559,4.0636,4.0732,4.1253,4.1967,4.2449,4.2527,4.2719,4.2737,4.2507,4.2431,4.245,4.2488,4.247,4.2431,4.2505,4.2874,4.2951,4.286,4.2768,4.3102,4.3326,4.2388,4.1622,4.1388,4.1225,4.1244,4.1247,4.1276,4.1222,4.1512,4.1448,4.1517,4.1668,4.1851,4.2017,4.2637,4.3082,4.3333,4.366,4.4102,3.1427,3.1409,3.1409,3.1715,3.2192,3.2228,3.2504,3.3054,3.3348,3.344,3.3568,3.4257,3.4651,3.4798,3.522,3.5642,3.5862,3.5605,3.5514,3.5514,3.5514,3.5459,3.5532,3.5771,3.6193,3.667,3.6982,3.7603,3.8346,3.8533,3.8951,3.9364,3.9406,3.9491,3.9602,3.8994,3.8592,3.8534,3.807,3.7833,3.7824,3.792,3.7588,3.689,3.6829,3.6345,3.5359,3.4816,3.4395,3.412,3.3305,3.2823,3.2848,3.3267,3.3793,3.4253,3.4809,3.5449,3.6161,3.6516,3.6976,3.7498,3.8249,3.8747,3.915,3.9701,4.0104,4.0447,4.0479,4.0492,4.0588,4.1069,4.1162,4.0569,4.103,4.1415,4.155,4.2168,4.2654,4.2813,4.2871,4.2852,4.2833,4.2851,4.2947,4.2928,4.2908,4.2909,4.2948,4.312,4.3042,4.3137,4.3299,4.3608,4.3782,4.3908,4.341,4.2656,4.2238,4.182,4.1743,4.1692,4.1656,4.1732,4.1994,4.2165,4.2217,4.2418,4.2653,4.2945,4.3429,4.3737,4.3968,4.4333,4.4759,3.2302,3.2302,3.2284,3.2577,3.3036,3.3054,3.3311,3.3807,3.4137,3.4247,3.4412,3.5128,3.5495,3.5605,3.6083,3.6468,3.6725,3.6743,3.6909,3.7019,3.6468,3.6303,3.6358,3.6633,3.7165,3.7808,3.7936,3.8265,3.8892,3.8997,3.9156,3.9458,3.9693,3.9892,4.0058,3.9719,3.947,3.9393,3.901,3.872,3.8736,3.8767,3.8408,3.7743,3.7665,3.7095,3.6112,3.5531,3.519,3.4816,3.4061,3.3576,3.3553,3.3994,3.4524,3.5193,3.5652,3.6262,3.7045,3.7487,3.7794,3.8447,3.9161,3.9602,3.9717,4.0249,4.0476,4.0495,4.0816,4.0985,4.1123,4.1777,4.1966,4.1546,4.195,4.2393,4.2701,4.3201,4.3667,4.3826,4.3942,4.3828,4.379,4.377,4.377,4.3789,4.375,4.375,4.381,4.3905,4.3942,4.403,4.4338,4.4491,4.4351,4.4355,4.4337,4.3833,4.3315,4.2862,4.254,4.2504,4.2454,4.2458,4.2637,4.2661,4.271,4.325,4.358,4.3929,4.4182,4.4566,4.4872,4.5045,4.5355,3.3788,3.3807,3.3788,3.3752,3.3844,3.3862,3.399,3.4137,3.4761,3.5064,3.5247,3.5991,3.6358,3.6358,3.6597,3.7019,3.7441,3.7551,3.7881,3.7991,3.7312,3.667,3.678,3.7312,3.7918,3.8505,3.8597,3.8743,3.891,3.8968,3.9175,3.9483,3.9693,3.9911,4.0058,4.0215,4.0177,4.0157,4.0177,4.0119,4.0138,4.0174,3.9789,3.8999,3.8933,3.8289,3.6993,3.668,3.6317,3.5577,3.4677,3.4287,3.4283,3.4309,3.5181,3.6426,3.6684,3.7203,3.7963,3.8589,3.9142,3.9373,3.995,4.0546,4.0566,4.0646,4.0835,4.0969,4.1485,4.1886,4.2024,4.264,4.3082,4.3239,4.3201,4.347,4.4215,4.4372,4.4587,4.5145,4.5454,4.5399,4.5151,4.515,4.5168,4.5168,4.507,4.5013,4.5073,4.5017,4.5342,4.5374,4.5208,4.5167,4.497,4.4978,4.4979,4.4766,4.4277,4.3852,4.3401,4.3297,4.3501,4.3481,4.3378,4.3327,4.3522,4.4083,4.4391,4.4528,4.4913,4.5432,4.5586,4.5566,4.5566,3.3807,3.3807,3.3807,3.4137,3.4623,3.4688,3.5073,3.5605,3.5826,3.5954,3.6138,3.6835,3.7184,3.7221,3.779,3.8212,3.8303,3.834,3.845,3.8615,3.834,3.8083,3.8083,3.8267,3.8487,3.8726,3.8836,3.8762,3.891,3.9108,3.9276,3.9502,3.9779,3.9924,4.0077,4.0272,4.0253,4.0291,4.0329,4.0329,4.0329,4.031,3.987,3.9123,3.912,3.8599,3.7619,3.7504,3.6838,3.5586,3.5258,3.5078,3.5177,3.5622,3.6201,3.6742,3.7333,3.8001,3.8762,3.9161,3.958,4.0104,4.0412,4.0758,4.1412,4.145,4.1777,4.222,4.2659,4.2752,4.2893,4.3508,4.4165,4.4759,4.4338,4.4299,4.4987,4.5257,4.5336,4.547,4.5512,4.5475,4.5438,4.5419,4.5419,4.54,4.536,4.5338,4.5419,4.5458,4.5477,4.5608,4.5543,4.5601,4.5616,4.5626,4.56,4.5522,4.5214,4.4851,4.4407,4.4099,4.4511,4.4881,4.4598,4.4468,4.4757,4.5199,4.524,4.5066,4.5278,4.5586,4.5586,4.5586,4.5586,3.4302,3.4357,3.4706,3.5128,3.5532,3.555,3.5844,3.6303,3.6652,3.678,3.6964,3.7643,3.7991,3.8046,3.8505,3.8689,3.8707,3.8707,3.8689,3.8781,3.9019,3.8982,3.8854,3.8982,3.9203,3.9258,3.9564,3.9823,3.9944,4.0044,4.0253,4.0558,4.0678,4.0867,4.1176,4.1204,4.1055,4.0883,4.0788,4.0692,4.0348,4.0329,4.01,3.9623,3.9564,3.92,3.8416,3.7976,3.7283,3.6577,3.6381,3.6351,3.6412,3.6782,3.7277,3.7667,3.8216,3.8843,3.9585,3.9796,4.0181,4.0835,4.1046,4.1508,4.2124,4.2354,4.2662,4.2951,4.3371,4.3564,4.3739,4.4338,4.5028,4.5355,4.5143,4.5066,4.5566,4.5547,4.5566,4.5547,4.5549,4.555,4.5495,4.5458,4.5458,4.5438,4.538,4.54,4.5458,4.5458,4.5496,4.5589,4.5661,4.5642,4.5642,4.5654,4.5651,4.5651,4.5594,4.5365,4.5153,4.4771,4.506,4.5409,4.5526,4.5586,4.5586,4.5586,4.5509,4.5432,4.5566,4.5624,4.5663,4.5951,4.5893,3.5045,3.5202,3.5973,3.634,3.6395,3.6413,3.6541,3.6725,3.7331,3.7624,3.7753,3.8377,3.856,3.8707,3.867,3.8707,3.8707,3.8707,3.8817,3.9056,3.9441,3.957,3.935,3.979,3.9992,4.0102,4.0859,4.1033,4.1065,4.1315,4.1613,4.1649,4.1907,4.22,4.2177,4.2441,4.2256,4.1743,4.1628,4.138,4.096,4.0883,4.0826,4.075,4.0463,4.0005,3.9202,3.8534,3.8054,3.8068,3.7863,3.7557,3.7615,3.7745,3.8219,3.892,3.933,3.9919,4.0508,4.0777,4.1104,4.1777,4.195,4.2316,4.2989,4.3201,4.3335,4.3643,4.4064,4.4372,4.4528,4.5143,4.5451,4.5566,4.5547,4.5566,4.5586,4.5586,4.5586,4.5586,4.5586,4.5586,4.5568,4.555,4.5495,4.5514,4.5438,4.5438,4.5458,4.5477,4.5495,4.553,4.5566,4.5586,4.5603,4.5603,4.5603,4.562,4.562,4.5505,4.5505,4.5334,4.5449,4.5586,4.5586,4.5586,4.5586,4.5586,4.5624,4.572,4.5817,4.5817,4.5874,4.6394,4.6567,3.5375,3.6046,3.6229,3.6652,3.7184,3.7239,3.7588,3.8157,3.8322,3.8377,3.8487,3.8652,3.8726,3.8726,3.8817,3.8707,3.8836,3.8872,3.9001,3.9643,3.9753,4.0249,4.0469,4.0836,4.0855,4.0928,4.1098,4.1272,4.1416,4.1674,4.1686,4.1986,4.2243,4.2221,4.2576,4.2797,4.2635,4.2507,4.2526,4.2412,4.2183,4.2087,4.2087,4.2068,4.1552,4.0864,4.0196,3.985,3.9753,3.9447,3.8647,3.8113,3.8035,3.847,3.8961,3.9454,4.0502,4.1261,4.1585,4.2063,4.2582,4.2739,4.2854,4.3165,4.3932,4.4047,4.4374,4.4855,4.522,4.5218,4.524,4.5432,4.5663,4.572,4.574,4.5738,4.5624,4.5605,4.5586,4.5643,4.5624,4.5605,4.5605,4.5566,4.5549,4.5568,4.5532,4.5495,4.5496,4.5515,4.5553,4.5626,4.5817,4.5855,4.5586,4.5586,4.5586,4.5586,4.5586,4.5586,4.5586,4.5586,4.5586,4.5586,4.5586,4.5624,4.5778,4.5759,4.5836,4.5951,4.6182,4.6432,4.6701,4.7067,4.7221,3.645,3.689,3.7276,3.7661,3.8028,3.8065,3.8303,3.8652,3.8707,3.8707,3.8799,3.9056,3.9258,3.9294,3.9643,3.9863,3.9845,3.9827,4.0065,4.0524,4.0818,4.1277,4.168,4.1992,4.2103,4.1809,4.2169,4.2359,4.2474,4.2532,4.2865,4.3016,4.309,4.3434,4.3568,4.3646,4.3624,4.3363,4.3347,4.3214,4.287,4.2794,4.2794,4.2775,4.2335,4.1877,4.1533,4.1475,4.1474,4.1245,4.0594,3.9696,3.912,3.9459,3.9876,4.0485,4.1111,4.203,4.2412,4.2832,4.3233,4.3643,4.3662,4.4162,4.4662,4.4893,4.5086,4.5451,4.5566,4.5586,4.5624,4.6065,4.6161,4.6297,4.6565,4.6738,4.666,4.6103,4.5797,4.597,4.5893,4.597,4.5951,4.5951,4.5682,4.5741,4.5609,4.5572,4.5726,4.5745,4.5764,4.5859,4.6126,4.6124,4.572,4.5586,4.5586,4.5586,4.5586,4.5586,4.5586,4.5586,4.5586,4.5663,4.5778,4.6009,4.6124,4.6086,4.6394,4.6913,4.7259,4.7394,4.7528,4.774,4.7817,3.7551,3.7716,3.8414,3.8707,3.8707,3.867,3.867,3.8707,3.8836,3.8982,3.9038,3.9717,4.0084,4.0212,4.0689,4.1075,4.1056,4.102,4.0983,4.1332,4.1791,4.2194,4.2543,4.2928,4.302,4.2598,4.3051,4.3483,4.3638,4.3865,4.3726,4.4162,4.4327,4.4269,4.4631,4.4887,4.4623,4.4138,4.4145,4.3977,4.3461,4.3348,4.3329,4.3061,4.3042,4.2813,4.2603,4.2585,4.2699,4.2814,4.2889,4.2159,4.1276,4.0871,4.1116,4.1843,4.2184,4.2665,4.322,4.3525,4.391,4.447,4.4489,4.4795,4.5353,4.5682,4.5836,4.5913,4.6047,4.6201,4.6047,4.6642,4.7027,4.7163,4.772,4.8046,4.7852,4.6814,4.6624,4.6818,4.6778,4.674,4.674,4.6721,4.6278,4.5895,4.5782,4.5726,4.5918,4.6071,4.6128,4.6185,4.6453,4.6182,4.5759,4.574,4.572,4.6028,4.5932,4.6028,4.6067,4.6394,4.6509,4.6028,4.6067,4.6394,4.6759,4.699,4.7394,4.8009,4.8259,4.8298,4.8355,4.8413,4.8529,3.7863,3.8524,3.8652,3.8707,3.8707,3.8707,3.8726,3.8836,3.9405,3.9698,3.9808,4.0524,4.091,4.0983,4.1001,4.1148,4.135,4.1405,4.1607,4.2011,4.2359,4.2635,4.3185,4.3332,4.3369,4.3403,4.3529,4.3667,4.3771,4.3883,4.3979,4.4184,4.4285,4.444,4.4613,4.477,4.4862,4.4691,4.4786,4.4696,4.4584,4.4529,4.4321,4.3862,4.3786,4.3519,4.3043,4.2929,4.2889,4.2889,4.2998,4.2917,4.2708,4.2576,4.2652,4.2842,4.3321,4.3742,4.4105,4.472,4.5122,4.5355,4.5297,4.5336,4.574,4.624,4.6528,4.6817,4.7201,4.7586,4.7702,4.7777,4.7874,4.7971,4.8106,4.8298,4.8201,4.799,4.7759,4.8029,4.7855,4.7605,4.7625,4.7548,4.7202,4.6818,4.653,4.6397,4.6398,4.6532,4.6646,4.6703,4.678,4.6317,4.5759,4.5855,4.597,4.6624,4.6778,4.7046,4.72,4.7605,4.7567,4.7144,4.6913,4.7105,4.7451,4.7836,4.8182,4.8625,4.8894,4.9163,4.924,4.9356,4.9779,3.8358,3.8689,3.8707,3.8707,3.8707,3.8707,3.8946,3.935,3.9735,4.0139,4.0653,4.1332,4.1735,4.1846,4.2231,4.2341,4.2304,4.2341,4.258,4.2892,4.2947,4.3057,4.3497,4.3497,4.3479,4.3479,4.3532,4.3637,4.3686,4.3734,4.3865,4.4055,4.4177,4.4306,4.4477,4.4632,4.4745,4.4852,4.5014,4.5106,4.5113,4.5154,4.4887,4.4696,4.4543,4.4353,4.4145,4.4075,4.4154,4.4193,4.4249,4.4267,4.4246,4.419,4.4054,4.384,4.409,4.4549,4.4874,4.5393,4.5528,4.5566,4.5624,4.5855,4.6201,4.6682,4.7144,4.7548,4.7721,4.8105,4.8048,4.8509,4.874,4.8856,4.9106,4.9336,4.9394,4.9413,4.9336,4.9144,4.8529,4.8317,4.8586,4.8414,4.8126,4.776,4.7375,4.7108,4.6954,4.7108,4.726,4.7279,4.7356,4.7202,4.6682,4.6586,4.6721,4.724,4.7605,4.7855,4.8066,4.8336,4.849,4.8355,4.8221,4.8029,4.8355,4.8798,4.9029,4.926,4.9644,4.9971,5.0125,5.0375,5.0587,3.8707,3.8707,3.8707,3.8707,3.8726,3.8891,3.9313,3.9863,4.0286,4.0799,4.1405,4.2158,4.2543,4.269,4.3094,4.3424,4.3479,4.3424,4.3387,4.3387,4.3406,4.3461,4.3497,4.3681,4.3809,4.392,4.4158,4.3807,4.3618,4.3615,4.3749,4.3929,4.4036,4.4109,4.4306,4.4421,4.4541,4.4681,4.4852,4.4953,4.5007,4.5045,4.508,4.508,4.5061,4.5004,4.4871,4.4985,4.5046,4.5107,4.5227,4.5323,4.54,4.54,4.5131,4.4648,4.4551,4.4953,4.5374,4.5855,4.599,4.6009,4.6067,4.6509,4.699,4.7471,4.7855,4.8413,4.8702,4.8779,4.8971,4.9278,4.9586,4.9759,5.0202,5.0625,5.0491,5.0414,5.0317,4.9913,4.9144,4.9067,4.9413,4.951,4.926,4.8933,4.851,4.7722,4.7588,4.7799,4.7932,4.7913,4.7971,4.8105,4.7894,4.7644,4.7817,4.8202,4.8452,4.8625,4.8778,4.8913,4.9105,4.9356,4.924,4.9144,4.9452,4.9663,4.9817,5.0067,5.0491,5.0644,5.0529,5.051,5.0625,3.8707,3.8707,3.8707,3.8707,3.8836,3.9441,3.979,4.012,4.135,4.2047,4.2213,4.2928,4.3277,4.3332,4.3369,4.3479,4.3497,4.3642,4.3679,4.3697,4.3752,4.3807,4.3699,4.4287,4.4525,4.4635,4.5168,4.4726,4.4152,4.3839,4.3815,4.4022,4.4128,4.399,4.442,4.4531,4.4269,4.4505,4.4731,4.4933,4.5019,4.5014,4.4991,4.4991,4.4967,4.5024,4.5057,4.5213,4.5322,4.5385,4.5436,4.5457,4.5419,4.54,4.54,4.5323,4.5342,4.5435,4.5778,4.624,4.6701,4.6817,4.724,4.7759,4.8086,4.8663,4.9298,5.0279,5.0279,5.0125,5.0048,5.0356,5.051,5.0471,5.0529,5.0683,5.0683,5.0683,5.0683,5.0644,4.9875,5.0048,5.0337,5.0394,5.0375,5.0028,4.9567,4.8721,4.826,4.8433,4.8586,4.8567,4.8836,4.9029,4.9009,4.8779,4.8836,4.9183,4.9279,4.9413,4.9548,4.9721,5.0067,5.024,5.0106,5.001,5.0125,5.0298,5.0529,5.0606,5.0664,5.0683,5.0664,5.0683,5.0683,3.8707,3.8707,3.8707,3.8964,3.9386,3.9753,4.0432,4.1277,4.1974,4.2561,4.2965,4.3296,4.3479,4.3479,4.3479,4.3479,4.3624,4.4062,4.4283,4.443,4.4651,4.4925,4.5055,4.524,4.5369,4.548,4.5663,4.559,4.4965,4.4908,4.4961,4.4994,4.5065,4.521,4.5086,4.5278,4.5475,4.5518,4.5396,4.5111,4.489,4.477,4.4757,4.4757,4.4775,4.499,4.5306,4.5558,4.5927,4.6225,4.653,4.6628,4.6666,4.671,4.6732,4.6793,4.6876,4.6743,4.6454,4.676,4.7145,4.7529,4.7971,4.8241,4.8836,4.9586,5.0183,5.0606,5.0683,5.0683,5.0683,5.0683,5.0683,5.0683,5.0683,5.0683,5.0683,5.0683,5.0683,5.0683,5.0683,5.0683,5.0683,5.0644,5.0548,5.0336,4.9932,4.9298,4.8933,4.899,4.9125,4.9221,4.9606,5.0029,4.999,4.9856,4.9837,5.0029,5.0048,5.0183,5.0375,5.0606,5.0683,5.0683,5.0471,5.051,5.0683,5.0664,5.0625,5.0644,5.0683,5.0683,5.0683,5.0683,5.0683,3.8817,3.9001,3.9001,3.935,3.9937,4.0304,4.1167,4.2213,4.2525,4.2947,4.3351,4.3479,4.3479,4.3571,4.3718,4.3883,4.3883,4.4777,4.5125,4.5438,4.5768,4.5989,4.599,4.6048,4.625,4.6214,4.6599,4.6581,4.6562,4.6434,4.6342,4.6084,4.5771,4.5971,4.6133,4.6091,4.6135,4.632,4.6029,4.5734,4.5442,4.5265,4.5219,4.5153,4.5153,4.5341,4.5866,4.6191,4.6701,4.7024,4.7324,4.7372,4.7386,4.7419,4.7484,4.7529,4.7618,4.7741,4.7569,4.7722,4.7875,4.826,4.8721,4.9221,4.9663,5.0394,5.0683,5.0683,5.0683,5.0683,5.0683,5.0683,5.0683,5.0683,5.0683,5.0683,5.0683,5.0683,5.0683,5.0683,5.0683,5.0683,5.0683,5.0683,5.0625,5.0528,5.0182,4.976,4.9625,4.9567,4.9625,4.974,5.0048,5.0452,5.0471,5.051,5.0644,5.0683,5.0683,5.0644,5.0625,5.0664,5.0683,5.0683,5.0644,5.0683,5.0683,5.0683,5.0683,5.0683,5.0683,5.0683,5.0683,5.0683,5.0683,3.9148,3.9827,3.9827,3.99,4.0084,4.1534,4.2158,4.247,4.3094,4.3369,4.3461,4.3497,4.3497,4.3699,4.4213,4.4525,4.4672,4.5587,4.5971,4.6098,4.6172,4.6393,4.6579,4.6929,4.7151,4.7168,4.7462,4.781,4.8031,4.7719,4.7058,4.614,4.6379,4.6158,4.6285,4.6577,4.6712,4.6871,4.6693,4.6688,4.6588,4.6532,4.6435,4.6465,4.6529,4.6637,4.6663,4.692,4.7286,4.7511,4.7789,4.7908,4.7979,4.8057,4.81,4.8147,4.8286,4.8565,4.8779,4.8837,4.9144,4.949,4.9836,5.0202,5.0375,5.0529,5.0683,5.0683,5.0683,5.0683,5.0683,5.0683,5.0683,5.0683,5.0683,5.0683,5.0683,5.0683,5.0683,5.0683,5.0683,5.0683,5.0683,5.0683,5.0683,5.0606,5.0606,5.0202,5.0125,5.0067,5.0125,5.024,5.0452,5.0644,5.0644,5.0683,5.0683,5.0683,5.0683,5.0606,5.051,5.0567,5.0683,5.0529,5.0471,5.0587,5.0683,5.0683,5.0683,5.0683,5.0683,5.0683,5.0683,5.0683,5.0683,3.9606,3.9974,4.0946,4.1368,4.1405,4.2029,4.2613,4.3088,4.3385,4.3479,4.3497,4.3497,4.3773,4.4232,4.4507,4.5056,4.5624,4.6468,4.6853,4.7219,4.7457,4.7662,4.7831,4.7776,4.8015,4.7902,4.8196,4.8324,4.8269,4.8324,4.8104,4.7498,4.7241,4.7407,4.7481,4.7426,4.7675,4.775,4.7555,4.7372,4.7099,4.6856,4.6663,4.6632,4.6632,4.6949,4.7311,4.7597,4.8058,4.8494,4.8745,4.878,4.8795,4.896,4.9009,4.9058,4.9242,4.9561,4.9738,4.9721,4.9625,5.0183,5.0491,5.0702,5.076,5.0702,5.0683,5.0683,5.0702,5.0683,5.0683,5.0683,5.0683,5.0683,5.0721,5.076,5.0798,5.0856,5.0702,5.0721,5.0702,5.0683,5.0683,5.0683,5.0683,5.0683,5.0683,5.0664,5.0529,5.0433,5.0452,5.0452,5.0625,5.0683,5.0683,5.0683,5.0683,5.0664,5.0644,5.0394,5.024,5.0587,5.0625,5.0433,5.0337,5.051,5.0606,5.0664,5.0683,5.0683,5.0683,5.0683,5.0683,5.0683,5.0683,4.0175,4.0726,4.1846,4.2304,4.2323,4.2543,4.2981,4.3526,4.3548,4.3513,4.355,4.3752,4.414,4.469,4.5387,4.579,4.6597,4.735,4.7772,4.812,4.8398,4.8695,4.866,4.8514,4.8365,4.8363,4.8324,4.8324,4.8324,4.8324,4.8214,4.8196,4.8306,4.8214,4.8252,4.8514,4.8677,4.8667,4.8438,4.8062,4.7742,4.7555,4.7341,4.7345,4.7434,4.7686,4.8138,4.8428,4.8769,4.9238,4.9542,4.9712,4.9833,4.9959,5.0082,5.0207,5.0348,5.05,5.039,5.0259,5.0048,5.051,5.0625,5.0818,5.0971,5.0894,5.076,5.1106,5.0933,5.0721,5.0741,5.0683,5.0971,5.1087,5.1221,5.126,5.1241,5.126,5.0952,5.076,5.0721,5.0683,5.0683,5.0683,5.0683,5.0683,5.0683,5.0683,5.0644,5.0587,5.0606,5.0625,5.0664,5.0683,5.0683,5.076,5.0798,5.0529,5.0414,4.9971,4.9913,5.0317,5.0356,4.9952,4.9971,5.0356,5.0567,5.0683,5.0702,5.0683,5.0721,5.0779,5.0683,5.0683,5.0683,4.0799,4.2194,4.2304,4.2359,4.247,4.313,4.3511,4.3634,4.3615,4.3671,4.3784,4.4303,4.4727,4.5203,4.636,4.6966,4.7407,4.8216,4.862,4.8692,4.8728,4.875,4.866,4.855,4.8495,4.8363,4.8324,4.8324,4.8324,4.8324,4.8324,4.8324,4.8324,4.8324,4.8306,4.8476,4.8678,4.8768,4.88,4.8742,4.863,4.8519,4.8444,4.8373,4.8426,4.8587,4.8725,4.8894,4.9134,4.9389,4.9566,4.9702,4.9807,4.9879,4.9986,5.0114,5.0302,5.0435,5.0502,5.0605,5.076,5.0856,5.0991,5.1221,5.1548,5.1414,5.1241,5.1818,5.1433,5.1029,5.0837,5.0875,5.1395,5.1625,5.1779,5.1645,5.1606,5.1318,5.0952,5.076,5.0721,5.0683,5.0683,5.0683,5.0683,5.0683,5.0683,5.0683,5.0683,5.0683,5.0702,5.0818,5.0837,5.1048,5.1087,5.0991,5.0875,5.0567,5.0529,5.051,5.0164,5.026,5.0067,4.9586,4.999,5.0702,5.0741,5.0721,5.101,5.1318,5.0952,5.0894,5.0779,5.0933,5.1221,4.1313,4.2341,4.2873,4.3094,4.313,4.3419,4.3615,4.3701,4.3734,4.3941,4.4336,4.4654,4.5479,4.6378,4.6948,4.7665,4.8308,4.8419,4.8822,4.8874,4.8909,4.875,4.866,4.8587,4.8495,4.8344,4.8324,4.8324,4.8324,4.8324,4.8324,4.8324,4.8324,4.8363,4.8457,4.8569,4.8661,4.8805,4.893,4.8983,4.8857,4.8874,4.882,4.8677,4.875,4.8874,4.8959,4.9075,4.9193,4.9308,4.9464,4.9585,4.975,4.9843,5.0038,5.0207,5.039,5.0519,5.0776,5.1029,5.1471,5.1529,5.1568,5.1914,5.2529,5.2549,5.2587,5.2626,5.2356,5.2183,5.2394,5.2395,5.2626,5.251,5.2433,5.1991,5.1722,5.1202,5.0818,5.0741,5.0683,5.0683,5.0683,5.0683,5.0683,5.0683,5.0683,5.0683,5.0683,5.0702,5.0721,5.0952,5.1106,5.1375,5.1529,5.1664,5.1895,5.1895,5.1933,5.2029,5.1568,5.0683,5.0587,5.051,5.0779,5.1048,5.1183,5.1375,5.1856,5.2029,5.1818,5.1587,5.1548,5.1952,5.251,4.1992,4.2779,4.3293,4.3566,4.3618,4.36,4.3667,4.3818,4.38,4.421,4.4791,4.5073,4.5919,4.704,4.7738,4.8015,4.8787,4.8822,4.8839,4.889,4.889,4.8785,4.866,4.8569,4.8495,4.8344,4.8324,4.8324,4.8324,4.8324,4.8324,4.8324,4.8363,4.8438,4.8513,4.8587,4.8679,4.8805,4.8895,4.8895,4.8822,4.8768,4.875,4.8642,4.8697,4.8785,4.889,4.8978,4.9098,4.923,4.9358,4.9464,4.9644,4.9843,5.0038,5.0231,5.0435,5.0696,5.1182,5.1491,5.2049,5.2837,5.2549,5.2799,5.3318,5.3241,5.3376,5.3435,5.3395,5.3241,5.3201,5.326,5.3183,5.3029,5.2779,5.2318,5.1798,5.1298,5.0952,5.0856,5.0683,5.0683,5.0683,5.0683,5.0683,5.0683,5.0683,5.0721,5.0798,5.0914,5.1068,5.1375,5.176,5.2183,5.2452,5.2606,5.2856,5.3145,5.3087,5.2953,5.2106,5.1125,5.1279,5.1414,5.1471,5.1587,5.1798,5.2106,5.2568,5.2914,5.2991,5.2722,5.2433,5.2818,5.3395,4.2779,4.3545,4.3615,4.3667,4.3771,4.3667,4.3734,4.3883,4.3874,4.4358,4.5097,4.5842,4.6672,4.7462,4.8345,4.8713,4.8804,4.8874,4.8855,4.889,4.889,4.875,4.866,4.8569,4.8476,4.8382,4.8324,4.8324,4.8324,4.8324,4.8324,4.8363,4.8419,4.8513,4.8587,4.866,4.8697,4.8822,4.8892,4.8857,4.8768,4.8714,4.866,4.8606,4.866,4.875,4.8855,4.8978,4.9079,4.9179,4.9276,4.9421,4.9574,4.9721,4.9952,5.0188,5.0459,5.0987,5.1625,5.1914,5.2818,5.3683,5.3703,5.3914,5.4087,5.4068,5.4145,5.4184,5.4126,5.3683,5.3395,5.3376,5.3337,5.3183,5.301,5.2549,5.199,5.1548,5.1202,5.0991,5.076,5.0683,5.0683,5.0683,5.0779,5.0798,5.0856,5.1068,5.1183,5.1471,5.1702,5.2105,5.2528,5.3106,5.3376,5.3568,5.3837,5.4145,5.351,5.3203,5.2318,5.2087,5.2433,5.2568,5.2145,5.2183,5.2722,5.3029,5.328,5.3587,5.401,5.3741,5.3414,5.353,5.3895,4.2897,4.3701,4.3738,4.3753,4.3804,4.38,4.3897,4.4016,4.4439,4.5112,4.5941,4.6562,4.7316,4.8382,4.8604,4.8731,4.8839,4.8874,4.889,4.889,4.889,4.875,4.866,4.8569,4.8476,4.8382,4.8324,4.8324,4.8324,4.8324,4.8363,4.8457,4.8494,4.8606,4.8679,4.8733,4.8787,4.8857,4.8909,4.8839,4.8732,4.8697,4.8642,4.8569,4.8513,4.8642,4.8731,4.8785,4.8925,4.9113,4.9179,4.9358,4.9574,4.9759,5.0012,5.0355,5.06,5.095,5.1817,5.2491,5.3337,5.4357,5.4626,5.5068,5.5203,5.503,5.4895,5.478,5.4684,5.4299,5.3799,5.3645,5.3356,5.301,5.2779,5.2337,5.1837,5.1568,5.126,5.1356,5.1106,5.0914,5.0875,5.0856,5.0952,5.0933,5.1106,5.1453,5.176,5.2125,5.2413,5.2855,5.3432,5.403,5.4357,5.4568,5.4857,5.5011,5.4376,5.4107,5.4184,5.4068,5.401,5.3741,5.3337,5.3491,5.3933,5.4126,5.4164,5.4741,5.5126,5.4741,5.4472,5.4511,5.4607,4.331,4.3781,4.3837,4.3851,4.3865,4.3929,4.4109,4.448,4.4831,4.5463,4.6276,4.6911,4.7776,4.864,4.8732,4.8768,4.889,4.889,4.889,4.889,4.889,4.875,4.866,4.8587,4.8495,4.8382,4.8324,4.8324,4.8324,4.8306,4.8344,4.8494,4.8532,4.8642,4.8769,4.8822,4.8839,4.8874,4.8909,4.8857,4.8822,4.8732,4.8642,4.8532,4.8457,4.855,4.8605,4.866,4.882,4.9012,4.9113,4.9276,4.9555,4.9824,5.0089,5.0418,5.0562,5.1315,5.2278,5.2856,5.378,5.4587,5.5068,5.5049,5.528,5.5222,5.5145,5.5049,5.5011,5.4857,5.4357,5.3857,5.3299,5.2741,5.2356,5.1972,5.1702,5.1453,5.151,5.1683,5.1568,5.1337,5.1221,5.1183,5.1241,5.1471,5.1972,5.2626,5.2933,5.326,5.3451,5.3699,5.4336,5.4972,5.5184,5.5261,5.5357,5.5453,5.5318,5.5222,5.5684,5.5511,5.4953,5.4703,5.4549,5.4703,5.4799,5.4953,5.5088,5.553,5.5684,5.5338,5.5107,5.5184,5.5338,4.3832,4.3897,4.3915,4.391,4.4005,4.4098,4.448,4.5101,4.5241,4.5632,4.6408,4.7076,4.7942,4.8677,4.8751,4.8804,4.8874,4.889,4.889,4.889,4.889,4.8785,4.866,4.8569,4.8495,4.8382,4.8324,4.8324,4.8324,4.8306,4.8344,4.8494,4.8569,4.8678,4.8822,4.8839,4.8874,4.889,4.8909,4.8892,4.8822,4.8787,4.8715,4.8587,4.8643,4.8697,4.8678,4.875,4.8909,4.8978,4.9079,4.9276,4.9596,4.9852,5.0163,5.0348,5.05,5.1352,5.22,5.2779,5.3722,5.4414,5.4838,5.4511,5.4549,5.4741,5.4607,5.4472,5.4318,5.3933,5.3414,5.3087,5.2645,5.2106,5.1664,5.1664,5.1779,5.1818,5.2241,5.2356,5.2279,5.2068,5.2029,5.2029,5.2049,5.2202,5.2741,5.3569,5.3935,5.4222,5.4393,5.4507,5.4932,5.5376,5.5472,5.553,5.5588,5.5665,5.5684,5.5684,5.5684,5.5684,5.5684,5.5395,5.5126,5.5357,5.5511,5.5491,5.5453,5.5588,5.5684,5.5684,5.5684,5.5645,5.5665,4.3929,4.3974,4.3974,4.3974,4.4098,4.4711,4.4981,4.523,4.635,4.6888,4.7203,4.7776,4.8274,4.8714,4.8697,4.8768,4.8874,4.889,4.889,4.889,4.889,4.8785,4.8623,4.8569,4.8476,4.8344,4.8324,4.8324,4.8324,4.8306,4.8382,4.855,4.8569,4.8678,4.8839,4.889,4.889,4.889,4.8909,4.8909,4.8874,4.8822,4.8751,4.8697,4.8752,4.8733,4.8697,4.8769,4.8911,4.9068,4.9131,4.9371,4.9702,4.9879,5.0108,5.0278,5.0412,5.1193,5.1872,5.2394,5.3029,5.3491,5.3703,5.3587,5.3587,5.3741,5.3741,5.3587,5.3356,5.2914,5.2491,5.2241,5.1991,5.1491,5.1183,5.1529,5.1933,5.251,5.3029,5.3047,5.3009,5.2932,5.2914,5.2895,5.2895,5.3222,5.376,5.4318,5.457,5.4818,5.5068,5.5182,5.5338,5.5626,5.5684,5.5684,5.5684,5.5684,5.5684,5.5684,5.5684,5.5684,5.5684,5.5684,5.5626,5.5684,5.5684,5.5665,5.5665,5.5684,5.5684,5.5684,5.5684,5.5665,5.5684,4.3942,4.4005,4.4005,4.4246,4.4636,4.5101,4.5626,4.6305,4.7159,4.7627,4.7887,4.8255,4.855,4.8787,4.8732,4.8768,4.8909,4.889,4.889,4.889,4.8855,4.8785,4.866,4.8569,4.8439,4.8344,4.8306,4.8324,4.8324,4.8324,4.8382,4.855,4.8623,4.8695,4.8855,4.889,4.889,4.889,4.889,4.889,4.889,4.8874,4.8822,4.8787,4.8787,4.8751,4.8751,4.8805,4.8946,4.9116,4.9262,4.9483,4.9721,4.9898,5.0038,5.0212,5.0425,5.0823,5.1485,5.1912,5.2241,5.2722,5.2703,5.2665,5.251,5.2606,5.2472,5.2356,5.2587,5.226,5.1683,5.1337,5.1279,5.0971,5.1433,5.1991,5.2972,5.3991,5.4337,5.4511,5.426,5.3799,5.378,5.378,5.3799,5.3953,5.4549,5.4934,5.5164,5.5224,5.5511,5.5684,5.5684,5.5684,5.5684,5.5684,5.5684,5.5684,5.5684,5.5684,5.5684,5.5684,5.5684,5.5684,5.5684,5.5684,5.5684,5.5684,5.5684,5.5684,5.5684,5.5684,5.5684,5.5684,5.5684,4.4005,4.4005,4.4005,4.4488,4.5249,4.5435,4.6257,4.7432,4.7712,4.8032,4.8403,4.8495,4.8642,4.8715,4.8787,4.8857,4.8874,4.889,4.889,4.889,4.889,4.8785,4.866,4.8569,4.8439,4.8382,4.8324,4.8324,4.8324,4.8363,4.8438,4.8569,4.8678,4.8714,4.882,4.889,4.889,4.889,4.889,4.889,4.889,4.889,4.8874,4.8839,4.8839,4.8874,4.8857,4.8892,4.8996,4.9168,4.9396,4.9582,4.9731,4.9906,5.0019,5.0169,5.0348,5.0801,5.1312,5.1548,5.2029,5.2357,5.1992,5.1741,5.1606,5.1529,5.1395,5.151,5.1741,5.1645,5.1068,5.0798,5.076,5.1164,5.1895,5.2626,5.3916,5.5089,5.5338,5.5568,5.5184,5.4645,5.4607,5.4607,5.4684,5.4818,5.503,5.5415,5.5645,5.553,5.5607,5.5684,5.5684,5.5684,5.5684,5.5684,5.5684,5.5684,5.5684,5.5684,5.5684,5.5684,5.5684,5.5684,5.5684,5.5684,5.5684,5.5684,5.5684,5.5684,5.5684,5.5684,5.5684,5.5684,5.5684,4.4005,4.4005,4.4005,4.4525,4.5342,4.5974,4.681,4.7705,4.8322,4.8604,4.8623,4.866,4.8751,4.8642,4.8787,4.8857,4.8909,4.889,4.889,4.889,4.889,4.8785,4.8642,4.855,4.8439,4.8382,4.8324,4.8324,4.8324,4.8419,4.8476,4.8605,4.8751,4.8804,4.8855,4.8909,4.889,4.889,4.889,4.889,4.889,4.889,4.889,4.889,4.889,4.8962,4.9015,4.9064,4.9164,4.93,4.949,4.9638,4.9769,4.9895,5.0025,5.0169,5.0325,5.0552,5.0928,5.1067,5.1471,5.1414,5.1145,5.1106,5.101,5.101,5.0971,5.1087,5.1241,5.1241,5.0875,5.0875,5.0914,5.2011,5.2896,5.3589,5.4551,5.5186,5.5568,5.5645,5.553,5.5299,5.5299,5.5299,5.5299,5.5376,5.5376,5.5684,5.5684,5.5684,5.5684,5.5684,5.5684,5.5684,5.5684,5.5684,5.5684,5.5684,5.5684,5.5684,5.5684,5.5684,5.5684,5.5684,5.5684,5.5684,5.5684,5.5684,5.5684,5.5684,5.5684,5.5684,5.5684,5.5684,5.5684]},{"header":{"parameterUnit":"m.s-1","parameterCategory":1,"la1":31.0,"la2":29.5877,"lo1":-88.7671,"lo2":-86.6584,"dy":0.0162,"dx":0.0185,"nx":115,"ny":88,"refTime":"2023-10-16T00:00:00:Z","depth":0,"parameterNumber":3,"parameterNumberName":"V-component_of_WINDS"},"data":[0.0,0.0,0.0,0.0,0.0,0.0,0.0,0.0,0.0,0.0,0.0,0.0,0.0,0.0,0.0,0.0,0.0,0.0,0.0,0.0,0.0,0.0,0.0,0.0,0.0,0.0,0.0,0.0,0.0,0.0,0.0,0.0,0.0,0.0,0.0,0.0,0.0,0.0,0.0,0.0,0.0,0.0,0.0,0.0,0.0,0.0,0.0,0.0,0.0,0.0,0.0,0.0,0.0,0.0,0.0,0.0,0.0,0.0,0.0,0.0,0.0,0.0,0.0,0.0,0.0,0.0,0.0,0.0,0.0,0.0,0.0,0.0,0.0,0.0,0.0,0.0,0.0,0.0,0.0,0.0,0.0,0.0,0.0,0.0,0.0,0.0,0.0,0.0,0.0,0.0,0.0,0.0,0.0,0.0,0.0,0.0,0.0,0.0,0.0,0.0,0.0,0.0,0.0,0.0,0.0,0.0,0.0,0.0,0.0,0.0,0.0,0.0,0.0,0.0,0.0,0.0,0.0,0.0,0.0,0.0,0.0,0.0,0.0,0.0,0.0,0.0,0.0,0.0,0.0,0.0,0.0,0.0,0.0,0.0,0.0,0.0,0.0,0.0,0.0,0.0,0.0,0.0,0.0,0.0,0.0,0.0,0.0,0.0,0.0,0.0,0.0,0.0,0.0,0.0,0.0,0.0,0.0,0.0,0.0,0.0,0.0,0.0,0.0,0.0,0.0,0.0,0.0,0.0,0.0,0.0,0.0,0.0,0.0,0.0,0.0,0.0,0.0,0.0,0.0,0.0,0.0,0.0,0.0,0.0,0.0,0.0,0.0,0.0,0.0,0.0,0.0,0.0,0.0,0.0,0.0,0.0,0.0,0.0,0.0,0.0,0.0,0.0,0.0,0.0,0.0,0.0,0.0,0.0,0.0,0.0,0.0,0.0,0.0,0.0,0.0,0.0,0.0,0.0,0.0,0.0,0.0,0.0,0.0,0.0,0.0,0.0,0.0,0.0,0.0,0.0,0.0,0.0,0.0,0.0,0.0,0.0,0.0,0.0,0.0,0.0,0.0,0.0,0.0,0.0,0.0,0.0,0.0,0.0,0.0,0.0,0.0,0.0,0.0,0.0,0.0,0.0,0.0,0.0,0.0,0.0,0.0,0.0,0.0,0.0,0.0,0.0,0.0,0.0,0.0,0.0,0.0,0.0,0.0,0.0,0.0,0.0,0.0,0.0,0.0,0.0,0.0,0.0,0.0,0.0,0.0,0.0,0.0,0.0,0.0,0.0,0.0,0.0,0.0,0.0,0.0,0.0,0.0,0.0,0.0,0.0,0.0,0.0,0.0,0.0,0.0,0.0,0.0,0.0,0.0,0.0,0.0,0.0,0.0,0.0,0.0,0.0,0.0,0.0,0.0,0.0,0.0,0.0,0.0,0.0,0.0,0.0,0.0,0.0,0.0,0.0,0.0,0.0,0.0,0.0,0.0,0.0,0.0,0.0,0.0,0.0,0.0,0.0,0.0,0.0,0.0,0.0,0.0,0.0,0.0,0.0,0.0,0.0,0.0,0.0,0.0,0.0,0.0,0.0,0.0,0.0,0.0,0.0,0.0,0.0,0.0,0.0,0.0,0.0,0.0,0.0,0.0,0.0,0.0,0.0,0.0,0.0,0.0,0.0,0.0,0.0,0.0,0.0,0.0,0.0,0.0,0.0,0.0,0.0,0.0,0.0,0.0,0.0,0.0,0.0,0.0,0.0,0.0,0.0,0.0,0.0,0.0,0.0,0.0,0.0,0.0,0.0,0.0,0.0,0.0,0.0,0.0,0.0,0.0,0.0,0.0,0.0,0.0,0.0,0.0,0.0,0.0,0.0,0.0,0.0,0.0,0.0,0.0,0.0,0.0,0.0,0.0,0.0,0.0,0.0,0.0,0.0,0.0,0.0,0.0,0.0,0.0,0.0,0.0,0.0,0.0,0.0,0.0,0.0,0.0,0.0,0.0,0.0,0.0,0.0,0.0,0.0,0.0,0.0,0.0,0.0,0.0,0.0,0.0,0.0,0.0,0.0,0.0,0.0,0.0,0.0,0.0,0.0,0.0,0.0,0.0,0.0,0.0,0.0,0.0,0.0,0.0,0.0,0.0,0.0,0.0,0.0,0.0,0.0,0.0,0.0,0.0,0.0,0.0,0.0,0.0,0.0,0.0,0.0,0.0,0.0,0.0,0.0,0.0,0.0,0.0,0.0,0.0,0.0,0.0,0.0,0.0,0.0,0.0,0.0,0.0,0.0,0.0,0.0,0.0,0.0,0.0,0.0,0.0,0.0,0.0,0.0,0.0,0.0,0.0,0.0,0.0,0.0,0.0,0.0,0.0,0.0,0.0,0.0,0.0,0.0,0.0,0.0,0.0,0.0,0.0,0.0,0.0,0.0,0.0,0.0,0.0,0.0,0.0,0.0,0.0,0.0,0.0,0.0,0.0,0.0,0.0,0.0,0.0,0.0,0.0,0.0,0.0,0.0,0.0,0.0,0.0,0.0,0.0,0.0,0.0,0.0,0.0,0.0,0.0,0.0,0.0,0.0,0.0,0.0,0.0,0.0,0.0,0.0,0.0,0.0,0.0,0.0,0.0,0.0,0.0,0.0,0.0,0.0,0.0,0.0,0.0,0.0,0.0,0.0,0.0,0.0,0.0,0.0,0.0,0.0,0.0,0.0,0.0,0.0,0.0,0.0,0.0,0.0,0.0,0.0,0.0,0.0,0.0,0.0,0.0,0.0,0.0,0.0,0.0,0.0,0.0,0.0,0.0,0.0,0.0,0.0,0.0,0.0,0.0,0.0,0.0,0.0,0.0,0.0,0.0,0.0,0.0,0.0,0.0,0.0,0.0,0.0,0.0,0.0,0.0,0.0,0.0,0.0,0.0,0.0,0.0,0.0,0.0,0.0,0.0,0.0,0.0,0.0,0.0,0.0,0.0,0.0,0.0,0.0,0.0,0.0,0.0,0.0,0.0,0.0,0.0,0.0,0.0,0.0,0.0,0.0,0.0,0.0,0.0,0.0,0.0,0.0,0.0,0.0,0.0,0.0,0.0,0.0,0.0,0.0,0.0,0.0,0.0,0.0,0.0,0.0,0.0,0.0,0.0,0.0,0.0,0.0,0.0,0.0,0.0,0.0,0.0,0.0,0.0,0.0,0.0,0.0,0.0,0.0,0.0,0.0,0.0,0.0,0.0,0.0,0.0,0.0,0.0,0.0,0.0,0.0,0.0,0.0,0.0,0.0,0.0,0.0,0.0,0.0,0.0,0.0,0.0,0.0,0.0,0.0,0.0,0.0,0.0,0.0,0.0,0.0,0.0,0.0,0.0,0.0,0.0,0.0,0.0,0.0,0.0,0.0,0.0,0.0,0.0,0.0,0.0,0.0,0.0,0.0,0.0,0.0,0.0,0.0,0.0,0.0,0.0,0.0,0.0,0.0,0.0,0.0,0.0,0.0,0.0,0.0,0.0,0.0,0.0,0.0,0.0,0.0,0.0,0.0,0.0,0.0,0.0,0.0,0.0,0.0,0.0,0.0,0.0,0.0,0.0,0.0,0.0,0.0,0.0,0.0,0.0,0.0,0.0,0.0,0.0,0.0,0.0,0.0,0.0,0.0,0.0,0.0,0.0,0.0,0.0,0.0,0.0,0.0,0.0,0.0,0.0,0.0,0.0,0.0,0.0,0.0,0.0,0.0,0.0,0.0,0.0,0.0,0.0,0.0,0.0,0.0,0.0,0.0,0.0,0.0,0.0,0.0,0.0,0.0,0.0,0.0,0.0,0.0,0.0,0.0,0.0,0.0,0.0,0.0,0.0,0.0,0.0,0.0,0.0,0.0,0.0,0.0,0.0,0.0,0.0,0.0,0.0,0.0,0.0,0.0,0.0,0.0,0.0,0.0,0.0,0.0,0.0,0.0,0.0,0.0,0.0,0.0,0.0,0.0,0.0,0.0,0.0,0.0,0.0,0.0,0.0,0.0,0.0,0.0,0.0,0.0,0.0,0.0,0.0,0.0,0.0,0.0,0.0,0.0,0.0,0.0,0.0,0.0,0.0,0.0,0.0,0.0,0.0,0.0,0.0,0.0,0.0,0.0,0.0,0.0,0.0,0.0,0.0,0.0,0.0,0.0,0.0,0.0,0.0,0.0,0.0,0.0,0.0,0.0,0.0,0.0,0.0,0.0,0.0,0.0,0.0,0.0,0.0,0.0,0.0,0.0,0.0,0.0,0.0,0.0,0.0,0.0,-0.2184,0.0,0.0,0.0,0.0,0.0,0.0,0.0,0.0,0.0,0.0,0.0,0.0,0.0,0.0,0.0,0.0,0.0,0.0,0.0,0.0,0.0,0.0,0.0,0.0,0.0,0.0,0.0,0.0,0.0,0.0,0.0,0.0,0.0,0.0,0.0,0.0,0.0,0.0,0.0,0.0,0.0,0.0,0.0,0.0,0.0,0.0,0.0,0.0,0.0,0.0,0.0,0.0,0.0,0.0,0.0,0.0,0.0,0.0,0.0,0.0,0.0,0.0,0.0,0.0,0.0,0.0,0.0,0.0,0.0,0.0,0.0,0.0,0.0,0.0,0.0,0.0,0.0,0.0,0.0,0.0,0.0,0.0,0.0,0.0,0.0,0.0,0.0,0.0,0.0,0.0,0.0,0.0,0.0,0.0,0.0,0.0,0.0,0.0,0.0,0.0,0.0,0.0,0.0,0.0,0.0,0.0,0.0,0.0,0.0,0.0,0.0168,-0.0393,-0.1122,-0.1738,-0.2184,0.0,0.0,0.0,0.0,0.0,0.0,0.0,0.0,0.0,0.0,0.0,0.0,0.0,0.0,0.0,0.0,0.0,0.0,0.0,0.0,0.0,0.0,0.0,0.0,0.0,0.0,0.0,0.0,0.0,0.0,0.0,0.0,0.0,0.0,0.0,0.0,0.0,0.0,0.0,0.0,0.0,0.0,0.0,0.0,0.0,0.0,0.0,0.0,0.0,0.0,0.0,0.0,0.0,0.0,0.0,0.0,0.0,0.0,0.0,0.0,0.0,0.0,0.0,0.0,0.0,0.0,0.0,0.0,0.0,0.0,0.0,0.0,0.0,0.0,0.0,0.0,0.0,0.0,0.0,0.0,0.0,0.0,0.0,0.0,0.0,0.0,0.0,0.0,0.0,0.0,0.0,0.0,0.0,0.0,0.0,0.0,0.0,0.0,0.0,0.0,0.0,0.0,0.0,0.0,0.0,0.0,0.0,0.0,0.0,0.0,0.0,0.0,-0.1187,-0.1753,-0.2184,0.0,0.0,0.0,0.0,0.0,0.0,0.0,0.0,0.0,0.0,0.0,0.0,0.0,0.0,0.0,0.0,0.0,0.0,0.0,0.0,0.0,0.0,0.0,0.0,0.0,0.0,0.0,0.0,0.0,0.0,0.0,0.0,0.0,0.0,0.0,0.0,0.0,0.0,0.0,0.0,0.0,0.0,0.0,0.0,0.0,0.0,0.0,0.0,0.0,0.0,0.0,0.0,0.0,0.0,0.0,0.0,0.0,0.0,0.0,0.0,0.0,0.0,0.0,0.0,0.0,0.0,0.0,0.0,0.0,0.0,0.0,0.0,0.0,0.0,0.0,0.0,0.0,0.0,0.0,0.0,0.0,0.0,0.0,0.0,0.0,0.0,0.0,0.0,0.0,0.0,0.0,0.0,0.0,0.0,0.0,0.0,0.0,0.0,0.0,0.0,0.0,0.0,0.0,0.0,0.0,0.0,0.0,0.0,0.0,0.0,0.0463,-0.0393,-0.1272,0.0,-0.2191,0.0,0.0,0.0,0.0,0.0,0.0,0.0,0.0,0.0,0.0,0.0,0.0,0.0,0.0,0.0,0.0,0.0,0.0,0.0,0.0,0.0,0.0,0.0,0.0,0.0,0.0,0.0,0.0,0.0,0.0,0.0,0.0,0.0,0.0,0.0,0.0,0.0,0.0,0.0,0.0,0.0,0.0,0.0,0.0,0.0,0.0,0.0,0.0,0.0,0.0,0.0,0.0,0.0,0.0,0.0,0.0,0.0,0.0,0.0,0.0,0.0,0.0,0.0,0.0,0.0,0.0,0.0,0.0,0.0,0.0,0.0,0.0,0.0,0.0,0.0,0.0,0.0,0.0,0.0,0.0,0.0,0.0,0.0,0.0,0.0,0.0,0.0,0.0,0.0,0.0,0.0,0.0,0.0,0.0,0.0,0.0,0.0,0.0,0.0,0.0,0.0,0.0,0.0,0.0,0.0,0.0,0.0,0.0,0.0,0.0,0.0473,-0.0416,-0.1536,-0.2145,0.0,0.0,0.0,0.0,0.0,0.0,0.0,0.0,0.0,0.0,0.0,0.0,0.0,0.0,0.0,0.0,0.0,0.0,0.0,0.0,0.0,0.0,0.0,0.0,0.0,0.0,0.0,0.0,0.0,0.0,0.0,0.0,0.0,0.0,0.0,0.0,0.0,0.0,0.0,0.0,0.0,0.0,0.0,0.0,0.0,0.0,0.0,0.0,0.0,0.0,0.0,0.0,0.0,0.0,0.0,0.0,0.0,0.0,0.0,0.0,0.0,0.0,0.0,0.0,0.0,0.0,0.0,0.0,0.0,0.0,0.0,0.0,0.0,0.0,0.0,0.0,0.0,0.0,0.0,0.0,0.0,0.0,0.0,0.0,0.0,0.0,0.0,0.0,0.0,0.0,0.0,0.0,0.0,0.0,0.0,0.0,0.0,0.0,0.0,0.0,0.0,0.0,0.0,0.0,0.0,0.0,0.0,0.0,0.0,0.0,0.0891,0.0362,-0.0862,-0.1795,-0.2203,-0.213,0.0,0.0,0.0,0.0,0.0,0.0,0.0,0.0,0.0,0.0,0.0,0.0,0.0,0.0,0.0,0.0,0.0,0.0,0.0,0.0,0.0,0.0,0.0,0.0,0.0,0.0,0.0,0.0,0.0,0.0,0.0,0.0,0.0,0.0,0.0,0.0,0.0,0.0,0.0,0.0,0.0,0.0,0.0,0.0,0.0,0.0,0.0,0.0,0.0,0.0,0.0,0.0,0.0,0.0,0.0,0.0,0.0,0.0,0.0,0.0,0.0,0.0,0.0,0.0,0.0,0.0,0.0,0.0,0.0,0.0,0.0,0.0,0.0,0.0,0.0,0.0,0.0,0.0,0.0,0.0,0.0,0.0,0.0,0.0,0.0,0.0,0.0,0.0,0.0,0.0,0.0,0.0,0.0,0.0,0.0,0.0,0.0,0.0,0.0,0.0,0.0,0.0,0.0,0.0,0.0,0.0,0.0,0.0,0.0942,0.0971,0.0062,-0.1793,-0.2035,-0.2086,0.0,0.0,0.0,0.0,0.0,0.0,0.0,0.0,0.0,0.0,0.0,0.0,0.0,0.0,0.0,0.0,0.0,0.0,0.0,0.0,0.0,0.0,0.0,0.0,0.0,0.0,0.0,0.0,0.0,0.0,0.0,0.0,0.0,0.0,0.0,0.0,0.0,0.0,0.0,0.0,0.0,0.0,0.0,0.0,0.0,0.0,0.0,0.0,0.0,0.0,0.0,0.0,0.0,0.0,0.0,0.0,0.0,0.0,0.0,0.0,0.0,0.0,0.0,0.0,0.0,0.0,0.0,0.0,0.0,0.0,0.0,0.0,0.0,0.0,0.0,0.0,0.0,0.0,0.0,0.0,0.0,0.0,0.0,0.0,0.0,0.0,0.0,0.0,0.0,0.0,0.0,0.0,0.0,0.0,0.0,0.0,0.0,0.0,0.0,0.0,0.0,0.0,0.0,0.0,0.0,0.0,0.0,0.0,0.0,0.118,0.0619,-0.0189,-0.1174,-0.1709,-0.1953,0.0,0.0,0.0,0.0,0.0,0.0,0.0,0.0,0.0,0.0,0.0,0.0,0.0,0.0,0.0,0.0,0.0,0.0,0.0,0.0,0.0,0.0,0.0,0.0,0.0,0.0,0.0,0.0,0.0,0.0,0.0,0.0,0.0,0.0,0.0,0.0,0.0,0.0,0.0,0.0,0.0,0.0,0.0,0.0,0.0,0.0,0.0,0.0,0.0,0.0,0.0,0.0,0.0,0.0,0.0,0.0,0.0,0.0,0.0,0.0,0.0,0.0,0.0,0.0,0.0,0.0,0.0,0.0,0.0,0.0,0.0,0.0,0.0,0.0,0.0,0.0,0.0,0.0,0.0,0.0,0.0,0.0,0.0,0.0,0.0,0.0,0.0,0.0,0.0,0.0,0.0,0.0,0.0,0.0,0.0,0.0,0.0,0.0,0.0,0.0,0.0,0.0,0.0,0.0,0.0,0.0,0.0,0.0,0.0,0.1435,0.0,-0.0254,-0.0804,-0.1479,-0.1914,0.0,0.0,0.0,0.0,0.0,0.0,0.0,0.0,0.0,0.0,0.0,0.0,0.0,0.0,0.0,0.0,0.0,0.0,0.0,0.0,0.0,0.0,0.0,0.0,0.0,0.0,0.0,0.0,0.0,0.0,0.0,0.0,0.0,0.0,0.0,0.0,0.0,0.0,0.0,0.0,0.0,0.0,0.0,0.0,0.0,0.0,0.0,0.0,0.0,0.0,0.0,0.0,0.0,0.0,0.0,0.0,0.0,0.0,0.0,0.0,0.0,0.0,0.0,0.0,0.0,0.0,0.0,0.0,0.0,0.0,0.0,0.0,0.0,0.0,0.0,0.0,0.0,0.0,0.0,0.0,0.0,0.0,0.0,0.0,0.0,0.0,0.0,0.0,0.0,0.0,0.0,0.0,0.0,0.0,0.0,0.0,0.0,0.0,0.0,0.0,0.0,0.0,0.0,0.0,0.0,0.0,0.0,0.0,0.1619,0.1596,0.0632,-0.0127,-0.0803,-0.1477,-0.1853,0.0,0.0,0.0,0.0,0.0,0.0,0.0,0.0,0.0,0.0,0.0,0.0,0.0,0.0,0.0,0.0,0.0,0.0,0.0,0.0,0.0,0.0,0.0,0.0,0.0,0.0,0.0,0.0,0.0,0.0,0.0,0.0,0.0,0.0,0.0,0.0,0.0,0.0,0.0,0.0,0.0,0.0,0.0,0.0,0.0,0.0,0.0,0.0,0.0,0.0,0.0,0.0,0.0,0.0,0.0,0.0,0.0,0.0,0.0,0.0,0.0,0.0,0.0,0.0,0.0,0.0,0.0,0.0,0.0,0.0,0.0,0.0,0.0,0.0,0.0,0.0,0.0,0.0,0.0,0.0,0.0,0.0,0.0,0.0,0.0,0.0,0.0,0.0,0.0,0.0,0.0,0.0,0.0,0.0,0.0,0.0,0.0,0.0,0.0,0.0,0.0,0.0,0.0,0.0,0.0,0.0,0.0,0.0,0.0,0.1728,0.0963,0.0361,-0.0179,-0.1252,-0.193,0.0,0.0,0.0,0.0,0.0,0.0,0.0,0.0,0.0,0.0,0.0,0.0,0.0,0.0,0.0,0.0,0.0,0.0,0.0,0.0,0.0,0.0,0.0,0.0,0.0,0.0,0.0,0.0,0.0,0.0,0.0,0.0,0.0,0.0,0.0,0.0,0.0,0.0,0.0,0.0,0.0,0.0,0.0,0.0,0.0,0.0,0.0,0.0,0.0,0.0,0.0,0.0,0.0,0.0,0.0,0.0,0.0,0.0,0.0,0.0,0.0,0.0,0.0,0.0,0.0,0.0,0.0,0.0,0.0,0.0,0.0,0.0,0.0,0.0,0.0,0.0,0.0,0.0,0.0,0.0,0.0,0.0,0.0,0.0,0.0,0.0,0.0,0.0,0.0,0.0,0.0,0.0,0.0,0.0,0.0,0.0,0.0,0.0,0.0,0.0,0.0,0.0,0.0,0.0,0.0,0.0,0.0,0.0,0.0,0.2362,0.1458,0.0587,-0.0117,-0.135,-0.2142,-0.2465,0.0,0.0,0.0,0.0,0.0,0.0,0.0,0.0,0.0,0.0,0.0,0.0,0.0,0.0,0.0,0.0,0.0,0.0,0.0,0.0,0.0,0.0,0.0,0.0,0.0,0.0,0.0,0.0,0.0,0.0,0.0,0.0,0.0,0.0,0.0,0.0,0.0,0.0,0.0,0.0,0.0,0.0,0.0,0.0,0.0,0.0,0.0,0.0,0.0,0.0,0.0,0.0,0.0,0.0,0.0,0.0,0.0,0.0,0.0,0.0,0.0,0.0,0.0,0.0,0.0,0.0,0.0,0.0,0.0,0.0,0.0,0.0,0.0,0.0,0.0,0.0,0.0,0.0,0.0,0.0,0.0,0.0,0.0,0.0,0.0,0.0,0.0,0.0,0.0,0.0,0.0,0.0,0.0,0.0,0.0,0.0,0.0,0.0,0.0,0.0,0.0,0.0,0.0,0.0,0.0,0.0,0.0,0.0,0.3342,0.2014,0.0702,-0.0585,-0.1698,-0.2542,0.0,0.0,0.0,0.0,0.0,0.0,0.0,0.0,0.0,0.0,0.0,0.0,0.0,0.0,0.0,0.0,0.0,0.0,0.0,0.0,0.0,0.0,0.0,0.0,0.0,0.0,0.0,0.0,0.0,0.0,0.0,0.0,0.0,0.0,0.0,0.0,0.0,0.0,0.0,0.0,0.0,0.0,0.0,0.0,0.0,0.0,0.0,0.0,0.0,0.0,0.0,0.0,0.0,0.0,0.0,0.0,0.0,0.0,0.0,0.0,0.0,0.0,0.0,0.0,0.0,0.0,0.0,0.0,0.0,0.0,0.0,0.0,0.0,0.0,0.0,0.0,0.0,0.0,0.0,0.0,0.0,0.0,0.0,0.0,0.0,0.0,0.0,0.0,0.0,0.0,0.0,0.0,0.0,0.0,0.0,0.0,0.0,0.0,0.0,0.0,0.0,0.0,0.0,0.0,0.0,0.0,0.0,0.0,0.0,0.3956,0.2639,0.1015,-0.0962,-0.2038,-0.3102,0.0,0.0,0.0,0.0,0.0,0.0,0.0,0.0,0.0,0.0,0.0,0.0,0.0,0.0,0.0,0.0,0.0,0.0,0.0,0.0,0.0,0.0,0.0,0.0,0.0,0.0,0.0,0.0,0.0,0.0,0.0,0.0,0.0,0.0,0.0,0.0,0.0,0.0,0.0,0.0,0.0,0.0,0.0,0.0,0.0,0.0,0.0,0.0,0.0,0.0,0.0,0.0,0.0,0.0,0.0,0.0,0.0,0.0,0.0,0.0,0.0,0.0,0.0,0.0,0.0,0.0,0.0,0.0,0.0,0.0,0.0,0.0,0.0,0.0,0.0,0.0,0.0,0.0,0.0,0.0,0.0,0.0,0.0,0.0,0.0,0.0,0.0,0.0,0.0,0.0,0.0,0.0,0.0,0.0,0.0,0.0,0.0,0.0,0.0,0.0,0.0,0.0,0.0,0.0,0.0,0.0,0.0,0.0,0.523,0.4505,0.3056,0.1223,-0.0948,-0.223,-0.3292,0.0,0.0,0.0,0.0,0.0,0.0,0.0,0.0,0.0,0.0,0.0,0.0,0.0,0.0,0.0,0.0,0.0,0.0,0.0,0.0,0.0,0.0,0.0,0.0,0.0,0.0,0.0,0.0,0.0,0.0,0.0,0.0,0.0,0.0,0.0,0.0,0.0,0.0,0.0,0.0,0.0,0.0,0.0,0.0,0.0,0.0,0.0,0.0,0.0,0.0,0.0,0.0,0.0,0.0,0.0,0.0,0.0,0.0,0.0,0.0,0.0,0.0,0.0,0.0,0.0,0.0,0.0,0.0,0.0,0.0,0.0,0.0,0.0,0.0,0.0,0.0,0.0,0.0,0.0,0.0,0.0,0.0,0.0,0.0,0.0,0.0,0.0,0.0,0.0,0.0,0.0,0.0,0.0,0.0,0.0,0.0,0.0,0.0,0.0,0.0,0.0,0.0,0.0,0.0,0.0,0.0,0.0,0.0,0.5778,0.4933,0.3274,0.1388,-0.0612,-0.228,-0.34,0.0,0.0,0.0,0.0,0.0,0.0,0.0,0.0,0.0,0.0,0.0,0.0,0.0,0.0,0.0,0.0,0.0,0.0,0.0,0.0,0.0,0.0,0.0,0.0,0.0,0.0,0.0,0.0,0.0,0.0,0.0,0.0,0.0,0.0,0.0,0.0,0.0,0.0,0.0,0.0,0.0,0.0,0.0,0.0,0.0,0.0,0.0,0.0,0.0,0.0,0.0,0.0,0.0,0.0,0.0,0.0,0.0,0.0,0.0,0.0,0.0,0.0,0.0,0.0,0.0,0.0,0.0,0.0,0.0,0.0,0.0,0.0,0.0,0.0,0.0,0.0,0.0,0.0,0.0,0.0,0.0,0.0,0.0,0.0,0.0,0.0,0.0,0.0,0.0,0.0,0.0,0.0,0.0,0.0,0.0,0.0,0.0,0.0,0.0,0.0,0.0,0.0,0.0,0.0,0.0,0.0,0.0,0.0,0.5996,0.5222,0.3274,0.1275,-0.0666,-0.2334,-0.379,0.0,0.0,0.0,0.0,0.0,0.0,0.0,0.0,0.0,0.0,0.0,0.0,0.0,0.0,0.0,0.0,0.0,0.0,0.0,0.0,0.0,0.0,0.0,0.0,0.0,0.0,0.0,0.0,0.0,0.0,0.0,0.0,0.0,0.0,0.0,0.0,0.0,0.0,0.0,0.0,0.0,0.0,0.0,0.0,0.0,0.0,0.0,0.0,0.1432,0.0,0.0,0.0,0.0,0.0,0.0,0.0,0.0,0.0,0.0,0.0,0.0,0.0,0.0,0.0,0.0,0.0,0.0,0.0,0.0,0.0,0.0,0.0,0.0,0.0,0.0,0.0,0.0,0.0,0.0,0.0,0.0,0.0,0.0,0.0,0.0,0.0,0.0,0.0,0.0,0.0,0.0,0.0,0.0,0.0,0.0,0.0,0.0,0.0,0.0,0.0,0.0,0.0,0.0,0.0,0.0,0.0,0.0,0.0,0.6154,0.521,0.3217,0.1221,-0.0833,-0.2668,-0.4233,0.0,0.0,0.0,0.0,0.0,0.0,0.0,0.0,0.0,0.0,0.0,0.0,0.0,0.0,0.0,0.0,0.0,0.0,0.0,0.0,0.0,0.0,0.0,0.0,0.0,0.0,0.0,0.0,0.0,0.0,0.0,0.0,0.0,0.0,0.0,0.0,0.0,0.0,0.0,0.0,0.0,0.0,0.0,0.0,0.0,0.0,0.0,0.0,0.0,0.0,0.0,0.0,0.0,0.0,0.0,0.0,0.0,0.0,0.0,0.0,0.0,0.0,0.0,0.0,0.0,0.0,0.0,0.0,0.0,0.0,0.0,0.0,0.0,0.0,0.0,0.0,0.0,0.0,0.0,0.0,0.0,0.0,0.0,0.0,0.0,0.0,0.0,0.0,0.0,0.0,0.0,0.0,0.0,0.0,0.0,0.0,0.0,0.0,0.0,0.0,0.0,0.0,0.0,0.0,0.0,0.0,0.0,0.7031,0.6258,0.5031,0.3104,0.1055,-0.1058,-0.2945,-0.4563,-0.5795,0.0,0.0,0.0,0.0,0.0,0.0,0.0,0.0,0.0,0.0,0.0,0.0,0.0,0.0,0.0,0.0,0.0,0.0,0.0,0.0,0.0,0.0,0.0,0.0,0.0,0.0,0.0,0.0,0.0,0.0,0.0,0.0,0.0,0.0,0.0,0.0,0.0,0.0,0.1564,0.0924,0.0,0.0,0.0,0.0,0.0,0.0,0.0,0.0,0.0864,0.0,0.0,0.0,0.0,0.0,0.0,0.0,0.0,0.0,0.0,0.0,0.0,0.0,0.0,0.0,0.0,0.0,0.0,0.0,0.0,0.0,0.0,0.0,0.0,0.0,0.0,0.0,0.0,0.0,0.0,0.0,0.0,0.0,0.0,0.0,0.0,0.0,0.0,0.0,0.0,0.0,0.0,0.0,0.0,0.0,0.0,0.0,0.0,0.0,0.0,0.0,0.0,0.0,0.0,0.0,0.0,0.7461,0.6923,0.6036,0.4761,0.2775,0.0723,-0.1225,-0.2834,-0.4333,-0.5723,0.0,0.0,0.0,0.0,0.0,0.0,0.0,0.0,0.0,0.0,0.0,0.0,0.0,0.0,0.0,0.0,0.0,0.0,0.0,0.0,0.0,0.0,0.0,0.0,0.0,0.0,0.0,0.0,0.0,0.0,0.0,0.0,0.0,0.0,0.0,0.0,0.0,0.0,0.0,0.0813,0.038,0.0,0.0,0.0,0.0,0.0,0.0,0.0,0.0,0.0395,0.0,0.0,0.0,0.0,0.0,0.0,0.0,0.0,0.0,0.0,0.0,0.0,0.0,0.0,0.0,0.0,0.0,0.0,0.0,0.0,0.0,0.0,0.0,0.0,0.0,0.0,0.0,0.0,0.0,0.0,0.0,0.0,0.0,0.0,0.0,0.0,0.0,0.0,0.0,0.0,0.0,0.0,0.0,0.0,0.0,0.0,0.0,0.0,0.0,0.0,0.0,0.0,0.0,0.0,0.0,0.7874,0.7086,0.6072,0.4777,0.2679,0.0567,-0.1393,-0.306,-0.4501,0.0,0.0,0.0,0.0,0.0,0.0,0.0,0.0,0.0,0.0,0.0,0.0,0.0,0.0,0.0,0.0,0.0,0.0,0.0,0.0,0.0,0.0,0.0,0.0,0.0,0.0,0.0,0.0,0.0,0.0,0.0,0.0,0.0,0.0,0.0,0.0,0.0,0.0,0.0,0.0,0.0596,0.0153,0.0,0.0,0.0,0.0,0.0,0.0,0.0,0.0707,0.0079,0.0,0.0,0.0,0.0,0.0,0.0,0.0,0.0,0.0,0.0,0.0,0.0,0.0,0.0,0.0,0.0,0.0,0.0,0.0,0.0,0.0,0.0,0.0,0.0,0.0,0.0,0.0,0.0,0.0,0.0,0.0,0.0,0.0,0.0,0.0,0.0,0.0,0.0,0.0,0.0,0.0,0.0,0.0,0.0,0.0,0.0,0.0,0.0,0.0,0.0,0.0,0.0,0.0,0.0,0.0,0.8167,0.7249,0.6059,0.4643,0.2534,0.0465,-0.1577,-0.3319,-0.4702,0.0,0.0,0.0,0.0,0.0,0.0,0.0,0.0,0.0,0.0,0.0,0.0,0.0,0.0,0.0,0.0,0.0,0.0,0.0,0.0,0.0,0.0,0.0,0.0,0.0,0.0,0.0,0.0,0.0,0.0,0.0,0.0,0.0,0.0,0.0,0.0,0.0,0.0,0.0,0.0,0.0,0.0077,-0.0313,-0.0471,0.0,0.0,0.0,0.0,0.0864,0.0314,0.0,0.0,0.0,0.0,0.0,0.0,0.0,0.0,0.0,0.0,0.0,0.0,0.0,0.0,0.0,0.0,0.0,0.0,0.0,0.0,0.0,0.0,0.0,0.0,0.0,0.0,0.0,0.0,0.0,0.0,0.0,0.0,0.0,0.0,0.0,0.0,0.0,0.0,0.0,0.0,0.0,0.0,0.0,0.0,0.0,0.0,0.0,0.0,0.0,0.0,0.0,0.0,0.0,0.0,0.0,0.0,0.7998,0.7089,0.5835,0.4183,0.2252,0.03,-0.1631,-0.3316,-0.4702,0.0,0.0,0.0,0.0,0.0,0.0,0.0,0.0,0.0,0.0,0.0,0.0,0.0,0.0,0.0,0.0,0.0,0.0,0.0,0.0,0.0,0.0,0.0,0.0,0.0,0.0,0.0,0.0,0.0,0.0,0.0,0.0,0.0,0.0,0.0,0.0,0.0,0.0,0.0,0.0,0.0,0.047,-0.1414,-0.1967,-0.1965,0.0,0.0,0.0,-0.0786,-0.0629,0.0,0.0,0.0,0.0,0.0,0.0,0.0,0.0,0.0,0.0,0.0,0.0,0.0,0.0,0.0,0.0,0.0,0.0,0.0,0.0,0.0,0.0,0.0,0.0,0.0,0.0,0.0,0.0,0.0,0.0,0.0,0.0,0.0,0.0,0.0,0.0,0.0,0.0,0.0,0.0,0.0,0.0,0.0,0.0,0.0,0.0,0.0,0.0,0.0,0.0,0.0,0.0,0.0,0.0,0.0,0.8076,0.8161,0.7284,0.6042,0.4379,0.226,0.0246,-0.1642,-0.3273,-0.4663,0.0,0.0,0.0,0.0,0.0,0.0,0.0,0.0,0.0,0.0,0.0,0.0,0.0,0.0,0.0,0.0,0.0,0.0,0.0,0.0,0.0,0.0,0.0,0.0,0.0,0.0,0.0,0.0,0.0,0.0,0.0,0.0,0.0,0.0,0.0,0.0,0.0,0.0,0.0,0.0,0.0,0.0,-0.0393,-0.1258,0.0,0.0,0.0,-0.0,-0.173,0.0,0.0,0.0,0.0,0.0,0.0,0.0,0.0,0.0,0.0,0.0,0.0,0.0,0.0,0.0,0.0,0.0,0.0,0.0,0.0,0.0,0.0,0.0,0.0,0.0,0.0,0.0,0.0,0.0,0.0,0.0,0.0,0.0,0.0,0.0,0.0,0.0,0.0,0.0,0.0,0.0,0.0,0.0,0.0,0.0,0.0,0.0,0.0,0.0,0.0,0.0,0.0,0.0,0.0,0.0,0.0,0.0,0.8328,0.7389,0.6073,0.4449,0.2265,0.0189,-0.1665,-0.3254,0.0,0.0,0.0,0.0,0.0,0.0,0.0,0.0,0.0,0.0,0.0,0.0,0.0,0.0,0.0,0.0,0.0,0.0,0.0,0.0,0.0,0.0,0.0,0.0,0.0,0.0,0.0,0.0,0.0,0.0,0.0,0.0,0.0,0.0,0.0,0.0,0.0,0.0,0.0,0.0,0.0,0.0,0.1335,0.0706,-0.0314,-0.1336,0.0,0.0,-0.0471,-0.1651,-0.1336,-0.1185,0.0,0.0,0.0,0.0,0.0,0.0,0.0,0.0,0.0,0.0,0.0,0.0,0.0,0.0,0.0,0.0,0.0,0.0,0.0,0.0,0.0,0.0,0.0,0.0,0.0,0.0,0.0,0.0,0.0,0.0,0.0,0.0,0.0,0.0,0.0,0.0,0.0,0.0,0.0,0.0,0.0,0.0,0.0,0.0,0.0,0.0,0.0,0.0,0.0,0.0,0.0,0.0,0.0,0.0,0.0,0.8091,0.7083,0.5815,0.432,0.1999,0.0,-0.1656,-0.3299,-0.4686,0.0,0.0,0.0,0.0,0.0,0.0,0.0,0.0,0.0,0.0,0.0,0.0,0.0,0.0,0.0,0.0,0.0,0.0,0.0,0.0,0.0,0.0,0.0,0.0,0.0,0.0,0.0,0.0,0.0,0.0,0.0,0.0,0.0,0.0,0.0,0.0,0.0,0.0,0.0,0.0,0.0,0.2118,0.1333,0.0471,-0.0629,0.0,0.0,-0.0,-0.0157,-0.1415,-0.2282,-0.2127,0.0,0.0,0.0,0.0,0.0,0.0,0.0,0.0,0.0,0.0,0.0,0.0,0.0,0.0,0.0,0.0,0.0,0.0,0.0,0.0,0.0,0.0,0.0,0.0,0.0,0.0,0.0,0.0,0.0,0.0,0.0,0.0,0.0,0.0,0.0,0.0,0.0,0.0,0.0,0.0,0.0,0.0,0.0,0.0,0.0,0.0,0.0,0.0,0.0,0.0,0.0,0.0,0.0,0.8457,0.7968,0.7144,0.5917,0.414,0.194,0.0,-0.166,-0.3313,-0.4758,0.0,0.0,0.0,0.0,0.0,0.0,0.0,0.0,0.0,0.0,0.0,0.0,0.0,0.0,0.0,0.0,0.0,0.0,0.0,0.0,0.0,0.0,0.0,0.0,0.0,0.0,0.0,0.0,0.241,0.2259,0.2188,0.0,0.0,0.0,0.0,0.0,0.0,0.0,0.0,0.0,0.0,0.313,0.1956,0.0784,0.0,0.0,-0.0786,-0.0079,-0.0401,-0.1205,-0.1937,-0.2209,-0.213,0.0,0.0,0.0,0.0,0.0,0.0,0.0,0.0,0.0,0.0,0.0,0.0,0.0,0.0,0.0,0.0,0.0,0.0,0.0,0.0,0.0,0.0,0.0,0.0,0.0,0.0,0.0,0.0,0.0,0.0,0.0,0.0,0.0,0.0,0.0,0.0,0.0,0.0,0.0,0.0,0.0,0.0,0.0,0.0,0.0,0.0,0.0,0.0,0.0,0.0,0.0,0.0,0.8733,0.7957,0.7152,0.599,0.4287,0.194,-0.0065,-0.1663,-0.3371,-0.4814,0.0,0.0,0.0,0.0,0.0,0.0,0.0,0.0,0.0,0.0,0.0,0.0,0.0,0.0,0.0,0.0,0.0,0.0,0.0,0.0,0.0,0.0,0.0,0.0,0.0,0.0,0.0,0.0,0.2486,0.2237,0.2229,0.0,0.0,0.0,0.0,0.0,0.0,0.0,0.0,0.0,0.0,0.4144,0.2891,0.1488,0.0236,-0.0792,-0.0397,-0.024,-0.082,-0.1316,-0.1818,-0.2349,0.0,0.0,0.0,0.0,0.0,0.0,0.0,0.0,0.0,0.0,0.0,0.0,0.0,0.0,0.0,0.0,0.0,0.0,0.0,0.0,0.0,0.0,0.0,0.0,0.0,0.0,0.0,0.0,0.0,0.0,0.0,0.0,0.0,0.0,0.0,0.0,0.0,0.0,0.0,0.0,0.0,0.0,0.0,0.0,0.0,0.0,0.0,0.0,0.0,0.0,0.0,0.0,0.0,0.0,0.8134,0.7026,0.5932,0.49,0.2007,-0.0196,-0.1787,-0.3488,-0.4983,-0.6164,0.0,0.0,0.0,0.0,0.0,0.0,0.0,0.0,0.0,0.0,0.0,0.0,0.0,0.0,0.0,0.0,0.0,0.0,0.0,0.0,0.0,0.0,0.0,0.0,0.0,0.0,0.2695,0.2596,0.2409,0.0,0.0,0.0,0.0,0.0,0.0,0.0,0.0,0.0,0.0,0.5771,0.5234,0.4304,0.2817,0.1421,0.0162,-0.0,-0.0328,-0.1175,-0.1766,-0.227,0.0,0.0,0.0,0.0,0.0,0.0,0.0,0.0,0.0,0.0,0.0,0.0,0.0,0.0,0.0,0.0,0.0,0.0,0.0,0.0,0.0,0.0,0.0,0.0,0.0,0.0,0.0,0.0,0.0561,0.0,0.0,0.0,0.0,0.0,0.0,0.0,0.0,0.0,0.0,0.0,0.3953,0.2889,0.0,0.0,0.0,0.0,0.0,0.0,0.0,0.0,0.0,0.0,0.0,0.0,0.9113,0.837,0.709,0.5866,0.4694,0.194,-0.0329,-0.1964,-0.3527,-0.5214,-0.6987,0.0,0.0,0.0,0.0,0.0,0.0,0.0,0.0,0.0,0.0,0.0,0.0,0.0,0.0,0.0,0.0,0.0,0.0,0.0,0.0,0.0,0.0,0.0,0.0,0.0,0.2603,0.0,0.0,0.0,0.0,0.0,0.0,0.0,0.0,0.0,0.0,0.0,0.7331,0.7438,0.7126,0.6345,0.5023,0.3758,0.2421,0.0,0.0,0.0,0.0,0.0,0.0,0.0,0.0,0.0,0.0,0.0,0.0,0.0,0.0,0.2864,0.2401,0.2309,0.2126,0.1583,0.0,0.0,0.0,0.0,0.0,0.0,0.0,0.0,0.0,0.0,0.0,0.0,0.0,0.0,0.0,0.0,0.0729,0.0,0.0,0.0,0.0,0.0,0.0,0.0,0.0,0.619,0.5562,0.475,0.3475,0.2468,0.0,0.1382,0.168,0.0,0.0,0.0,0.0,0.0,0.0,0.0,0.0,0.9609,0.8936,0.7255,0.5723,0.4284,0.1876,-0.0331,-0.2314,-0.418,-0.5938,-0.7543,-0.8438,-0.8652,0.0,0.0,0.0,0.0,0.0,0.0,0.0,0.0,0.0,0.0,0.0,0.0,0.0,0.0,0.0,0.0,0.0,0.0,0.0,0.0,0.0,0.0,0.0,0.2713,0.0,0.0,0.0,0.0,0.0,0.0,0.0,0.0,0.0,0.7233,0.7938,0.8496,0.8539,0.8181,0.7383,0.6025,0.0,0.0,0.0,0.0,0.0,0.0,0.0,-0.1412,-0.2149,-0.2424,-0.2334,-0.1795,-0.0269,0.1166,0.2244,0.0,0.0,0.278,0.2691,0.2512,0.1885,0.1705,0.1705,0.1885,0.2333,0.278,0.0,0.0,0.0,0.0,0.0,0.0,0.0,0.0,-0.2599,-0.1337,0.0,0.0502,0.0,0.0,0.0,0.0,0.0,0.0,0.0,0.0,0.7272,0.6526,0.5821,0.4229,0.2863,0.1805,0.1647,0.2045,0.2956,0.3572,0.0,0.0,0.0,0.0,0.0,0.0,1.0423,0.9842,0.758,0.5526,0.3744,0.181,-0.0397,-0.2895,-0.5307,-0.6924,-0.7757,-0.8581,-0.9022,-0.9015,-0.8871,0.0,0.0,0.0,0.0,0.0,0.0,0.0,0.0,0.0,0.0,0.0,0.0,0.0,0.0,0.0,0.0,0.0,0.0,0.0,0.0,0.3058,0.0,0.0,0.0,0.0,0.0,0.0,0.0,0.0,0.0,0.0,0.8249,0.8705,0.9244,0.9448,0.0,0.0,0.0,0.0,0.4653,0.3464,0.1477,0.0,0.0,-0.0359,-0.0987,-0.1794,0.0,0.0,-0.0897,0.0269,0.1346,0.2334,0.3141,0.3587,0.3587,0.3406,0.3048,0.2602,0.2333,0.2244,0.2243,0.269,0.3135,-1.4439,0.0,0.0,0.0,0.0,-0.9062,-0.7223,-0.5539,-0.3708,-0.22,-0.0969,0.0263,0.0,0.0,0.0,0.0,0.0,0.0,0.9784,0.9392,0.8606,0.7664,0.6483,0.506,0.3906,0.3018,0.255,0.2779,0.3729,0.4986,0.6248,0.7549,0.0,0.0,0.0,0.0,1.0891,1.0434,0.8045,0.5785,0.3742,0.1808,-0.066,-0.3724,-0.5415,-0.6662,-0.7548,-0.8533,-0.9113,-0.9127,-0.9166,0.0,0.0,0.0,0.0,0.0,0.0,0.0,0.0,0.0,0.0,0.0,0.0,0.0,0.0,0.0,0.0,0.0,0.0,0.0,0.3754,0.3577,0.3322,0.0,0.0,0.0,0.0,0.0,0.0,0.0,0.0,0.0,1.0784,1.0895,1.0941,0.0,0.0,0.9055,0.7407,0.6251,0.5104,0.3809,0.0,0.0,0.0,-0.0448,-0.0807,-0.1436,-0.1795,-0.1795,-0.1076,0.0179,0.1434,0.2601,0.3229,0.3676,0.4032,0.3765,0.3318,0.2869,0.2689,0.2778,0.2869,0.3314,0.376,-1.7148,-1.6434,-1.5733,-1.4829,-1.3651,-1.1508,-0.9351,-0.7175,-0.4676,-0.275,-0.1353,0.0212,0.2012,0.3975,0.6494,0.0,0.0,0.0,1.1116,1.0509,0.9599,0.86,0.7402,0.5996,0.4955,0.4244,0.3638,0.39,0.5031,0.6417,0.7807,0.9271,0.0,0.0,1.2703,1.2179,1.1538,1.0779,0.8336,0.6011,0.3864,0.1396,-0.1115,-0.3651,-0.5123,-0.6378,-0.7474,-0.8591,-0.9314,-0.9454,-0.9652,-0.9429,0.0,0.0,0.0,0.0,0.0,0.0,0.0,0.0,0.0,0.0,0.0,0.1239,0.0,0.0,0.0,0.0,0.3842,0.4234,0.4243,0.3969,0.0,0.0,0.0,0.0,0.0,0.0,0.0,1.1376,1.219,1.2605,1.2798,1.2693,1.2276,1.1392,1.0593,0.9521,0.8107,0.0,0.5553,0.4202,0.3227,0.2062,0.0538,-0.0179,-0.0718,-0.1436,-0.1795,-0.1795,-0.1076,0.0179,0.1524,0.2599,0.3315,0.3765,0.4208,0.4032,0.3764,0.3315,0.3136,0.3226,0.3403,0.3848,0.4385,-1.843,-1.881,-1.7784,-1.6811,-1.5835,-1.3144,-1.0681,-0.832,-0.5524,-0.3154,-0.1169,0.0333,0.2367,0.4969,0.8964,0.0,0.0,1.2618,1.2283,1.1504,1.0443,0.9496,0.8585,0.6995,0.5996,0.5427,0.4891,0.5318,0.6633,0.7875,0.9576,1.1552,1.2094,1.2839,1.3752,1.3074,1.2136,1.0916,0.856,0.6234,0.388,0.0724,-0.1627,-0.2943,-0.4678,-0.6136,-0.7422,-0.8687,-0.9539,-0.979,-1.0151,-1.0065,-0.947,0.0,0.0,0.0,0.0,0.0,0.0,0.0,0.0,0.0,0.0,0.0,0.0,0.0,0.0,0.0,0.4356,0.0,0.4699,0.4347,0.0,0.0,0.0,0.5307,0.7027,0.7258,0.8885,1.2857,0.0,0.0,0.0,0.0,1.3261,1.1721,1.0742,0.9909,0.899,0.7404,0.5897,0.4476,0.3494,0.2598,0.1524,0.0269,-0.0897,-0.1615,-0.1974,-0.1795,-0.0987,0.0448,0.1793,0.2778,0.3315,0.3765,0.4208,0.4297,0.4121,0.3765,0.3676,0.3765,0.3941,0.4383,0.5008,-1.6708,-1.7245,-1.6978,-1.6846,-1.6549,-1.3834,-1.0981,-0.8075,-0.5877,-0.3584,-0.1126,0.0781,0.3951,0.7985,1.0623,1.2546,1.3831,1.3781,1.3496,1.2947,1.1944,1.0863,0.9729,0.8386,0.7406,0.6854,0.6743,0.707,0.7863,0.9401,1.088,1.2196,1.3155,1.3729,1.3956,1.3124,1.2189,1.1038,0.881,0.608,0.2858,0.0595,-0.1238,-0.2748,-0.4266,-0.5704,-0.7058,-0.8371,-0.9336,-0.9797,-1.0213,-1.0292,-0.994,-0.9058,0.0,0.0,0.0,0.0,0.0,0.0,0.0,0.0,0.0,0.1699,0.2783,0.0,0.3571,0.0,0.5171,0.5538,0.54,0.4812,0.0,0.0,0.4893,0.5806,0.7119,0.7984,0.9462,1.2211,1.3621,1.4155,1.3635,1.3454,1.2798,1.1283,1.0704,0.9971,0.8364,0.7136,0.5897,0.4565,0.3494,0.2689,0.1973,0.0179,-0.1256,-0.1436,-0.1525,-0.1256,-0.0359,0.0987,0.2242,0.3048,0.3406,0.3764,0.421,0.4297,0.4297,0.4121,0.4119,0.421,0.4478,0.4924,0.528,-1.474,-1.5132,-1.5188,-1.4777,-1.399,-1.2324,-0.9938,-0.7032,-0.4676,-0.2481,-0.027,0.288,0.6248,0.9782,1.1877,1.3419,1.4471,1.4393,1.4072,1.3521,1.2546,1.1543,1.0565,0.9536,0.8776,0.8327,0.8366,0.8763,0.9542,1.0571,1.1652,1.2788,1.3476,1.3772,1.3672,1.3228,1.2458,1.144,0.8236,0.5355,0.2797,0.0861,-0.1044,-0.2883,-0.4102,-0.5339,-0.6685,-0.8091,-0.9236,-0.9962,-1.0379,-1.0468,-1.0133,-0.9505,-0.8607,0.0,0.0,0.0,0.0,0.0,0.0,0.0,0.0,0.0,0.0,0.0,0.4599,0.0,0.0,0.0,0.5734,0.5107,0.4589,0.4428,0.5094,0.618,0.7913,0.8601,0.9911,1.2377,1.3522,1.3975,1.3621,1.3229,1.251,1.1046,1.0345,0.9563,0.8162,0.7048,0.5899,0.4476,0.3494,0.2509,0.1615,0.0,-0.1166,-0.1346,-0.1436,-0.1076,-0.0179,0.1256,0.2423,0.3138,0.3496,0.3764,0.421,0.4297,0.4297,0.4297,0.4297,0.4478,0.4748,0.5191,0.5636,-1.2392,-1.2635,-1.2905,-1.1777,-0.9778,-0.9289,-0.7711,-0.5358,-0.2686,-0.0442,0.1551,0.5605,0.8682,1.0847,1.2754,1.4018,1.4754,1.4629,1.4294,1.3734,1.2805,1.1971,1.1238,1.0487,1.001,0.9791,0.9764,1.0303,1.1234,1.145,1.2158,1.3155,1.3375,1.3332,1.3094,1.3186,1.2544,1.1297,0.7305,0.4586,0.3297,0.1198,-0.0917,-0.3017,-0.3986,-0.5009,-0.6256,-0.7737,-0.8977,-0.9951,-1.0393,-1.0407,-1.0005,-0.9645,-0.886,0.0,-0.6495,0.0,0.0,0.0,0.0,0.0,0.0,0.0,0.0,0.482,0.5836,0.6854,0.6547,0.6112,0.5906,0.5346,0.4806,0.461,0.5147,0.6475,0.8703,0.9175,1.026,1.2721,1.3236,1.3485,1.3621,1.3151,1.2195,1.0723,0.9862,0.9027,0.8064,0.6981,0.5835,0.4455,0.3489,0.224,0.0896,-0.009,-0.0807,-0.1256,-0.1436,-0.1076,-0.009,0.1346,0.2512,0.3138,0.3496,0.3765,0.421,0.4297,0.4297,0.4297,0.4297,0.4478,0.4832,0.5277,0.5988,-0.9157,-0.9479,-1.0547,-0.9144,-0.6086,-0.4463,-0.3508,-0.2936,-0.0935,0.2206,0.6032,0.7805,0.9504,1.1182,1.2864,1.3952,1.456,1.4572,1.4401,1.4083,1.3424,1.2759,1.2026,1.1166,1.0692,1.0692,1.0811,1.1078,1.1554,1.2192,1.261,1.276,1.3122,1.3063,0.0,0.0,0.0,0.0,0.6051,0.4459,0.3468,0.1225,-0.0734,-0.2348,-0.3529,0.0,-0.5793,-0.7026,-0.8041,-0.883,-0.9176,0.0,0.0,0.0,0.0,0.0,0.0,0.0,0.0,0.0,0.0,0.0,0.4241,0.5133,0.4706,0.5959,0.7069,0.7581,0.7236,0.6791,0.6218,0.5628,0.5177,0.5203,0.5431,0.636,0.8309,0.901,1.0135,1.2136,1.2808,1.2896,1.2635,1.2091,1.12,1.0084,0.9226,0.8452,0.7605,0.6541,0.5469,0.4524,0.3277,0.1972,0.0807,0.0179,-0.0448,-0.1166,-0.1436,-0.0897,0.0269,0.1705,0.2782,0.3227,0.3585,0.3946,0.421,0.4297,0.4297,0.4297,0.4297,0.4389,0.4659,0.5104,0.5636,-0.6162,0.0,-0.6392,-0.5164,0.0,-0.0619,0.06,0.1259,0.1877,0.4092,0.7467,0.8619,1.0087,1.1789,1.3046,1.4046,1.4681,1.4714,1.4544,1.4181,1.3761,1.3216,1.2552,1.2073,1.1745,1.1616,1.1806,1.1927,1.2132,1.2585,1.2664,1.2382,1.2764,1.2604,1.171,1.0834,0.929,0.7143,0.5301,0.4023,0.3246,0.123,-0.0671,-0.235,0.0,0.0,0.0,0.0,0.0,0.0,0.0,0.0,0.0,0.0,0.0,-0.7491,-0.634,-0.5235,-0.4255,-0.2003,0.037,0.2761,0.5148,0.6573,0.658,0.7176,0.7776,0.8426,0.7724,0.6997,0.6538,0.586,0.5473,0.5553,0.578,0.6546,0.7995,0.8859,0.9974,1.1552,1.235,1.2587,1.2375,1.1744,1.0867,0.9797,0.9011,0.8149,0.6973,0.6116,0.532,0.406,0.3152,0.2128,0.0984,0.0269,-0.009,-0.0628,-0.0718,-0.0269,0.0718,0.2064,0.2962,0.3138,0.3585,0.4036,0.421,0.4297,0.4297,0.4297,0.4389,0.4567,0.4835,0.528,0.5902,-0.327,-0.2362,-0.211,-0.1023,0.0639,0.2748,0.4378,0.5502,0.0,0.0,0.0,0.9044,1.0559,1.2246,1.3228,1.4038,1.4644,1.4741,1.4505,1.413,1.383,1.3346,1.2805,1.2744,1.2552,1.2305,1.2436,1.2498,1.2514,1.2656,1.2488,1.2067,1.2351,1.1975,1.0771,0.9564,0.8214,0.66,0.498,0.3719,0.286,0.1293,-0.047,-0.2417,-0.3086,-0.3956,-0.5163,-0.599,-0.6889,-0.7733,-0.8334,-0.8499,-0.8291,-0.8259,-0.7892,-0.6899,-0.5901,-0.5081,-0.4391,-0.2046,0.0579,0.3312,0.6075,0.7947,0.8554,0.8374,0.8392,0.8978,0.8032,0.7183,0.6626,0.6015,0.5702,0.5941,0.6167,0.6865,0.8124,0.8756,0.9674,1.1238,1.2152,1.2441,1.2305,1.169,1.0803,0.9831,0.9011,0.7886,0.6506,0.5773,0.4944,0.3599,0.312,0.2541,0.1337,0.0628,0.0269,0.0269,0.0269,0.0628,0.1524,0.2423,0.3051,0.3317,0.3676,0.4034,0.421,0.4297,0.4297,0.4389,0.4569,0.4835,0.5013,0.5636,0.6346,-0.0398,0.0066,0.0795,0.1855,0.3173,0.5756,0.7286,0.7875,0.7633,0.8044,0.901,1.02,1.1233,1.2193,1.3135,1.365,1.3805,1.4015,1.4016,0.0,1.3354,1.2989,1.2805,1.249,1.2367,1.2305,1.2189,1.2182,1.2166,1.2274,1.2071,1.1666,1.1826,1.1238,0.9883,0.9311,0.809,0.624,0.5359,0.4114,0.2443,0.1482,0.0134,-0.1681,-0.2552,-0.3424,-0.4431,-0.511,-0.5867,-0.6569,-0.6894,-0.712,-0.7374,-0.7225,-0.6787,-0.5947,-0.5306,-0.4485,-0.3409,-0.1265,0.1762,0.5599,0.7737,0.8934,0.9233,0.9307,0.9223,0.8812,0.8291,0.7532,0.6553,0.6093,0.6015,0.6257,0.656,0.7451,0.8921,0.8723,0.9388,1.1721,1.2311,1.2343,1.2031,1.1513,1.0816,0.9776,0.8932,0.7992,0.6488,0.535,0.4442,0.3785,0.3433,0.2974,0.2228,0.1613,0.1256,0.1166,0.1256,0.1613,0.2689,0.3227,0.3588,0.3767,0.4034,0.421,0.4297,0.4297,0.4389,0.4569,0.4835,0.5013,0.5099,0.5988,0.6707,0.2809,0.3209,0.3944,0.4604,0.5259,0.7391,0.8581,0.9017,0.921,0.9414,0.9673,1.0523,1.1363,1.2249,1.3032,1.3464,1.3703,1.399,1.395,1.3657,1.361,1.341,1.3113,1.3044,1.2938,1.2866,1.2672,1.247,1.2305,1.2401,1.213,1.1465,1.1096,1.0335,0.9296,0.8799,0.7706,0.5946,0.5213,0.4133,0.2686,0.1694,0.0538,-0.1076,-0.1883,-0.282,-0.3892,-0.4504,-0.5123,-0.5845,-0.6141,-0.6233,-0.6203,-0.6166,-0.5864,-0.5092,-0.4722,-0.3934,-0.2711,0.0924,0.4092,0.6634,0.8059,0.9212,0.9958,0.9849,0.9739,0.9625,0.8718,0.7799,0.7026,0.6637,0.6556,0.6802,0.725,0.796,0.8992,0.9463,1.011,1.1576,1.2041,1.2119,1.1881,1.1255,1.0606,0.9673,0.8665,0.7409,0.644,0.5279,0.4309,0.3863,0.3596,0.3324,0.2945,0.2509,0.2331,0.2511,0.2511,0.278,0.3406,0.3676,0.3765,0.3857,0.4121,0.43,0.4297,0.4478,0.4569,0.4835,0.528,0.5547,0.5811,0.6432,0.6966,0.5163,0.5634,0.623,0.6679,0.7116,0.849,0.9332,0.9716,1.0104,1.0239,1.0203,1.0682,1.1358,1.219,1.284,1.3296,1.3623,1.389,1.3813,1.3604,1.3768,1.37,1.3356,1.3431,1.3349,1.3132,1.2931,1.2654,1.2419,1.2423,1.2073,1.1237,1.0497,0.9659,0.8922,0.8327,0.7339,0.5917,0.5038,0.4037,0.2942,0.2045,0.0941,-0.0403,-0.121,-0.215,-0.3222,-0.3756,-0.4289,-0.4957,-0.5282,-0.5353,-0.5122,-0.5153,-0.497,-0.4431,-0.4111,-0.3163,-0.1218,0.2979,0.5983,0.704,0.8111,0.9199,1.0185,0.9916,0.9862,1.0046,0.8956,0.7953,0.7504,0.7223,0.7076,0.7324,0.7936,0.8542,0.9237,1.0251,1.0952,1.1438,1.1763,1.179,1.15,1.0958,1.0292,0.9455,0.8187,0.717,0.6662,0.5653,0.473,0.4075,0.3781,0.3587,0.339,0.3226,0.3227,0.3585,0.3406,0.3406,0.3587,0.3585,0.3587,0.3765,0.3944,0.4121,0.4212,0.4389,0.4656,0.4921,0.5544,0.6171,0.6432,0.67,0.7054,0.5811,0.6334,0.6728,0.7577,0.8753,0.9268,0.9779,1.0174,1.0308,1.0471,1.0691,1.1093,1.1465,1.1881,1.2549,1.2948,1.3119,1.3277,1.3515,1.3693,1.3307,1.3259,1.3486,1.3057,1.2788,1.2743,1.248,1.2237,1.2039,1.1948,1.1552,1.0861,1.0248,0.9508,0.8775,0.8169,0.7314,0.614,0.524,0.4184,0.2945,0.2388,0.1547,0.0336,-0.0672,-0.1547,-0.2288,-0.2824,-0.3355,-0.3756,-0.4018,-0.4276,-0.4337,-0.4151,-0.3954,-0.3875,-0.3351,-0.1762,0.118,0.428,0.6292,0.7016,0.8014,0.9054,0.9846,0.9392,0.9241,0.9352,0.8803,0.8119,0.759,0.7403,0.7482,0.774,0.8456,0.9206,0.9766,1.0752,1.126,1.1321,1.1299,1.1171,1.0833,1.0443,0.9937,0.9122,0.8369,0.7765,0.7521,0.6655,0.5617,0.4583,0.3994,0.3858,0.3748,0.3676,0.3585,0.3587,0.3587,0.3496,0.3406,0.3496,0.3585,0.3585,0.3587,0.3855,0.4034,0.4123,0.4565,0.5099,0.5633,0.6257,0.6789,0.6969,0.6881,0.7064,0.7386,0.7847,0.8565,0.9472,0.9849,1.011,1.0301,1.0428,1.0561,1.0688,1.0933,1.1185,1.1553,1.212,1.2476,1.272,1.2979,1.3299,1.3451,1.3325,1.3301,1.3378,1.3157,1.3019,1.2948,1.2735,1.2522,1.225,1.1913,1.1378,1.0651,1.0137,0.9544,0.8699,0.8089,0.7403,0.6475,0.5415,0.4551,0.3734,0.286,0.196,0.1104,0.0138,-0.0683,-0.155,-0.2153,-0.2621,-0.2817,-0.3288,-0.3556,-0.3625,-0.3493,-0.3021,-0.2083,-0.0817,0.0897,0.3285,0.4865,0.618,0.713,0.7979,0.8827,0.9421,0.9199,0.9018,0.8969,0.858,0.8155,0.7948,0.7781,0.7744,0.7927,0.8639,0.9294,0.9704,1.0493,1.1043,1.1219,1.0595,1.0235,1.0279,0.9864,0.9345,0.8823,0.8491,0.8198,0.777,0.6981,0.6008,0.4946,0.4333,0.417,0.4117,0.4032,0.3855,0.3676,0.3587,0.3496,0.3315,0.3406,0.3585,0.3585,0.3853,0.4034,0.4393,0.4567,0.4832,0.5364,0.5808,0.652,0.7234,0.7061,0.6881,0.8182,0.8436,0.8899,0.9414,0.9932,1.018,1.0301,1.0448,1.0641,1.0739,1.0752,1.0884,1.1111,1.1354,1.1799,1.2116,1.24,1.2691,1.3006,1.3202,1.3254,1.3264,1.3233,1.3078,1.3039,1.2973,1.2813,1.264,1.2418,1.2058,1.1407,1.0625,1.0122,0.9555,0.8702,0.8128,0.748,0.6703,0.5755,0.5103,0.441,0.3448,0.2563,0.1777,0.0992,0.021,-0.0613,-0.1225,-0.1625,-0.1746,-0.2217,-0.2418,-0.2418,-0.2351,-0.1616,-0.0068,0.1589,0.3168,0.4788,0.5396,0.6112,0.7139,0.7875,0.849,0.889,0.8862,0.8747,0.8712,0.8302,0.8118,0.8242,0.8147,0.8002,0.8014,0.875,0.9289,0.9393,1.0115,1.0712,1.0631,0.9908,0.9461,0.968,0.9257,0.8828,0.8652,0.8568,0.8392,0.7775,0.7061,0.6169,0.5006,0.4293,0.3939,0.4032,0.4032,0.3853,0.3585,0.3406,0.3406,0.3226,0.3405,0.3587,0.3676,0.4032,0.4389,0.4569,0.4837,0.5277,0.5719,0.6257,0.6707,0.7231,0.7081,0.7029,0.8958,0.9274,0.9728,1.006,1.0314,1.0321,1.0448,1.0641,1.0862,1.0975,1.1009,1.1236,1.1376,1.1417,1.1633,1.1926,1.2198,1.2422,1.2665,1.2972,1.2875,1.2892,1.3164,1.282,1.2599,1.2599,1.2486,1.2322,1.219,1.2139,1.1642,1.0884,1.0284,0.9546,0.8737,0.8207,0.7573,0.6953,0.6395,0.5774,0.4991,0.4133,0.3277,0.2415,0.1819,0.115,0.0561,0.014,-0.0138,-0.0538,-0.0605,-0.0538,-0.047,-0.0269,0.0476,0.1806,0.3219,0.4512,0.5513,0.5952,0.6392,0.7134,0.7642,0.8039,0.8467,0.8356,0.8354,0.8577,0.8171,0.8119,0.8359,0.8123,0.8106,0.8377,0.8694,0.8873,0.8973,0.9932,1.0135,0.9689,0.9318,0.9231,0.8995,0.8744,0.8656,0.8568,0.8572,0.848,0.804,0.751,0.6349,0.4825,0.3757,0.3045,0.3315,0.3585,0.3405,0.3136,0.3136,0.3136,0.3224,0.3314,0.3585,0.3855,0.4121,0.4478,0.4659,0.5015,0.5544,0.5991,0.6459,0.691,0.7108,0.7288,0.7343,0.9606,0.9913,1.011,1.0405,1.077,1.077,1.087,1.1122,1.1223,1.1269,1.1283,1.1376,1.153,1.1703,1.1805,1.195,1.22,1.2333,1.2572,1.292,1.2732,1.2715,1.2732,1.2519,1.2452,1.2405,1.2573,1.2593,1.2465,1.2419,1.1903,1.1003,1.0461,0.9772,0.8935,0.8308,0.7733,0.7246,0.6613,0.5938,0.5401,0.4616,0.388,0.3286,0.2558,0.2065,0.1796,0.198,0.1814,0.1244,0.1223,0.1008,0.074,0.1708,0.263,0.336,0.4183,0.4958,0.5722,0.627,0.6801,0.7326,0.7754,0.8053,0.8307,0.8275,0.8199,0.8303,0.8107,0.7993,0.806,0.7997,0.7937,0.8024,0.8245,0.8464,0.8544,0.917,0.9533,0.899,0.8807,0.8807,0.8761,0.8656,0.8568,0.8572,0.8572,0.8492,0.8132,0.7779,0.6811,0.4914,0.3755,0.3223,0.3045,0.3226,0.3226,0.2959,0.278,0.2957,0.3045,0.3494,0.3676,0.421,0.4478,0.4835,0.5193,0.557,0.6008,0.6373,0.6754,0.6924,0.7011,0.7322,0.7393,1.0386,1.0581,1.0647,1.0817,1.1122,1.1129,1.1243,1.143,1.153,1.157,1.1583,1.1663,1.1824,1.1984,1.2011,1.2143,1.2349,1.2418,1.2473,1.2659,1.2599,1.2526,1.2466,1.2472,1.2445,1.2498,1.2752,1.2896,1.2753,1.2705,1.2095,1.1106,1.0608,0.9916,0.9064,0.8414,0.7918,0.748,0.6911,0.6386,0.607,0.5357,0.4706,0.4274,0.3511,0.2895,0.2657,0.2904,0.2867,0.2339,0.2215,0.2045,0.1843,0.2701,0.3668,0.438,0.4806,0.5298,0.5954,0.6546,0.7025,0.7348,0.7656,0.7918,0.8089,0.805,0.8018,0.8066,0.7944,0.7856,0.7768,0.7672,0.7584,0.7573,0.7845,0.7937,0.7933,0.8432,0.8678,0.8637,0.8653,0.8645,0.8739,0.8747,0.8755,0.8739,0.8739,0.8645,0.8376,0.802,0.7292,0.5373,0.4574,0.4124,0.3767,0.3776,0.3443,0.307,0.3057,0.3053,0.3321,0.3681,0.4039,0.4572,0.5018,0.5369,0.5738,0.6123,0.6409,0.678,0.706,0.7257,0.7303,0.7373,0.7533,1.1136,1.1178,1.1348,1.1328,1.143,1.143,1.1436,1.1536,1.1764,1.187,1.1904,1.2151,1.2271,1.2305,1.2345,1.2478,1.2708,1.254,1.2446,1.2472,1.2385,1.2378,1.2398,1.2645,1.2779,1.2882,1.3073,1.312,1.3054,1.2909,1.2427,1.139,1.0636,0.9971,0.9048,0.8534,0.8102,0.7922,0.7484,0.7237,0.7019,0.6331,0.5773,0.527,0.4598,0.3793,0.2956,0.2943,0.2829,0.2548,0.2419,0.2525,0.28,0.3091,0.3505,0.4686,0.5127,0.5648,0.6398,0.6777,0.6936,0.714,0.7267,0.7507,0.7628,0.7695,0.7778,0.7819,0.7683,0.7595,0.7503,0.7337,0.7248,0.7418,0.7517,0.7531,0.7549,0.7739,0.8063,0.8347,0.8556,0.8788,0.8987,0.9035,0.9019,0.9023,0.9031,0.893,0.8633,0.8262,0.756,0.6611,0.5738,0.5062,0.472,0.4458,0.3802,0.3367,0.3348,0.3426,0.3881,0.4244,0.4703,0.5153,0.565,0.6102,0.6297,0.66,0.6816,0.7126,0.7326,0.75,0.7543,0.76,0.7677,1.1361,1.1354,1.1354,1.1543,1.1717,1.173,1.183,1.2031,1.2138,1.2171,1.2218,1.2553,1.2612,1.2665,1.2819,1.2973,1.3053,1.2959,1.2926,1.2926,1.2926,1.2906,1.2933,1.3019,1.3173,1.3347,1.346,1.3408,1.3297,1.3174,1.2468,1.1381,1.0651,0.9938,0.9234,0.8556,0.8291,0.8191,0.7832,0.7525,0.7267,0.6857,0.6374,0.5925,0.5422,0.4946,0.4498,0.4121,0.3843,0.3661,0.3574,0.3667,0.396,0.4675,0.5126,0.5349,0.5825,0.6251,0.6702,0.6933,0.702,0.7204,0.7435,0.7532,0.761,0.7537,0.7614,0.7588,0.7411,0.7231,0.7248,0.7334,0.7258,0.7245,0.7327,0.7396,0.742,0.7625,0.8002,0.8516,0.8528,0.8621,0.9007,0.9108,0.9129,0.9125,0.912,0.9023,0.8543,0.8577,0.8367,0.7412,0.6664,0.6032,0.5764,0.5391,0.4946,0.4483,0.4346,0.4211,0.4572,0.4842,0.5299,0.5772,0.6276,0.6584,0.6875,0.7098,0.7233,0.7379,0.756,0.7614,0.7654,0.7717,0.7892,1.1757,1.1757,1.175,1.1857,1.2024,1.2031,1.2124,1.2305,1.2425,1.2465,1.2525,1.2786,1.2919,1.2959,1.3133,1.3273,1.3367,1.3373,1.3434,1.3474,1.3273,1.3213,1.3233,1.3333,1.3527,1.3761,1.3808,1.3644,1.3392,1.3143,1.2534,1.1408,1.0636,0.9946,0.934,0.8715,0.839,0.8373,0.8203,0.7966,0.7793,0.7535,0.7119,0.674,0.6388,0.6124,0.572,0.5389,0.5024,0.4738,0.4635,0.4719,0.5015,0.5841,0.6321,0.6126,0.6447,0.6803,0.6866,0.6948,0.7005,0.7126,0.7346,0.7429,0.7451,0.7369,0.7319,0.7323,0.7197,0.7135,0.7251,0.7366,0.7305,0.7326,0.7397,0.7475,0.7529,0.7617,0.7896,0.8321,0.8442,0.8619,0.881,0.9104,0.9104,0.9108,0.92,0.92,0.8814,0.8833,0.8343,0.7863,0.7221,0.6748,0.6628,0.6332,0.6034,0.5674,0.5414,0.5263,0.5317,0.5596,0.5966,0.6345,0.6848,0.6948,0.7243,0.7335,0.7488,0.7647,0.779,0.7858,0.7811,0.7841,0.7997,1.2298,1.2305,1.2298,1.2285,1.2318,1.2325,1.2371,1.2425,1.2652,1.2849,1.2916,1.31,1.3233,1.3233,1.332,1.3474,1.3627,1.3667,1.3788,1.3828,1.3581,1.3347,1.3387,1.3581,1.3801,1.4015,1.4048,1.3815,1.3398,1.3228,1.254,1.1322,1.0636,0.9951,0.934,0.8823,0.8632,0.8536,0.854,0.8528,0.8532,0.8265,0.8005,0.7669,0.7392,0.701,0.6606,0.6468,0.6159,0.5476,0.5415,0.5507,0.5891,0.6514,0.6839,0.6669,0.6882,0.6979,0.695,0.6891,0.6902,0.6943,0.7044,0.7149,0.7153,0.7258,0.72,0.7224,0.7222,0.7197,0.7315,0.7423,0.75,0.7624,0.7617,0.7665,0.7598,0.7724,0.7962,0.8062,0.8219,0.8517,0.8776,0.9083,0.919,0.919,0.9375,0.9363,0.9068,0.875,0.8506,0.8001,0.7464,0.7356,0.7223,0.6923,0.6522,0.6491,0.6321,0.6261,0.61,0.6278,0.6501,0.6887,0.7162,0.7348,0.7478,0.7674,0.7727,0.7851,0.7919,0.8011,0.8038,0.8035,0.8035,1.2305,1.2305,1.2305,1.2425,1.2688,1.2625,1.2766,1.2959,1.3039,1.3086,1.3153,1.3407,1.3534,1.3547,1.3754,1.3908,1.3941,1.3955,1.3995,1.4055,1.3955,1.3861,1.3861,1.3928,1.4008,1.4095,1.4135,1.3822,1.3398,1.318,1.2478,1.1327,1.0845,1.0139,0.9345,0.902,0.874,0.8656,0.8572,0.8572,0.8572,0.8568,0.8384,0.8138,0.7959,0.7678,0.7398,0.7375,0.6911,0.6035,0.5979,0.6106,0.644,0.6924,0.7119,0.6893,0.6919,0.6957,0.6922,0.6905,0.689,0.7071,0.7126,0.7187,0.7302,0.7309,0.7366,0.7444,0.7426,0.7346,0.7563,0.7672,0.7887,0.7892,0.7918,0.7911,0.7831,0.7878,0.7994,0.8018,0.823,0.8428,0.873,0.8931,0.9034,0.9031,0.9229,0.943,0.8931,0.8836,0.8634,0.8247,0.7826,0.7836,0.7633,0.7329,0.712,0.7108,0.706,0.7104,0.7033,0.6985,0.7249,0.741,0.7563,0.7741,0.7791,0.7868,0.7977,0.7946,0.7984,0.8038,0.8038,0.8038,0.8038,1.2485,1.2505,1.2632,1.2786,1.2933,1.2939,1.3046,1.3213,1.334,1.3387,1.3454,1.3701,1.3828,1.3848,1.4015,1.4082,1.4088,1.4088,1.4082,1.4115,1.4202,1.4188,1.4142,1.4188,1.4269,1.4289,1.4303,1.4102,1.3754,1.3399,1.2692,1.1822,1.1185,1.0474,0.9791,0.9324,0.9008,0.8783,0.867,0.8649,0.8576,0.8572,0.8524,0.8422,0.8319,0.8154,0.7991,0.7899,0.7585,0.7027,0.6907,0.7066,0.716,0.74,0.7415,0.7151,0.7083,0.7024,0.698,0.7017,0.7085,0.72,0.7238,0.7319,0.7428,0.7468,0.7522,0.7573,0.755,0.7583,0.7712,0.7918,0.794,0.7997,0.796,0.7946,0.8035,0.8031,0.8035,0.8031,0.8134,0.8237,0.8432,0.8733,0.8733,0.873,0.9027,0.9031,0.8733,0.8733,0.8638,0.8244,0.7949,0.7945,0.7945,0.764,0.7537,0.7537,0.7528,0.7592,0.7556,0.7593,0.7641,0.7803,0.7925,0.8038,0.8038,0.8038,0.8024,0.8011,0.8035,0.8045,0.8052,0.8102,0.8092,1.2842,1.2812,1.3093,1.3227,1.3247,1.3253,1.33,1.3367,1.3587,1.3694,1.3741,1.3968,1.4035,1.4088,1.4075,1.4088,1.4088,1.4088,1.4128,1.4215,1.4355,1.4402,1.4322,1.4482,1.4556,1.4596,1.4569,1.443,1.404,1.3724,1.3121,1.2337,1.172,1.1012,1.0223,0.9701,0.9271,0.8968,0.8848,0.8796,0.8706,0.869,0.8678,0.8662,0.8601,0.8503,0.8333,0.8191,0.8002,0.7745,0.7962,0.7897,0.791,0.7765,0.7689,0.7565,0.7289,0.7219,0.7143,0.719,0.7248,0.7366,0.7397,0.7461,0.758,0.7617,0.7641,0.7695,0.7671,0.7724,0.7851,0.796,0.8014,0.8035,0.8031,0.8035,0.8038,0.8038,0.8038,0.8038,0.8038,0.8038,0.8137,0.8237,0.8535,0.8435,0.873,0.873,0.8733,0.8737,0.8535,0.8131,0.8035,0.8038,0.7939,0.7939,0.7939,0.7839,0.7839,0.7819,0.7819,0.7892,0.7912,0.8038,0.8038,0.8038,0.8038,0.8038,0.8045,0.8062,0.8079,0.8079,0.8089,0.818,0.8211,1.2963,1.312,1.3186,1.334,1.3534,1.3554,1.3681,1.3888,1.3948,1.3968,1.4008,1.4068,1.4095,1.4095,1.4128,1.4088,1.4135,1.4148,1.4195,1.4429,1.4469,1.4649,1.473,1.4863,1.487,1.4897,1.4655,1.4514,1.416,1.3944,1.3344,1.2437,1.2113,1.1313,1.032,0.9979,0.955,0.9132,0.9039,0.9015,0.8966,0.8946,0.8946,0.8942,0.8832,0.8686,0.8544,0.8289,0.8178,0.8115,0.8127,0.8101,0.7998,0.7827,0.7661,0.758,0.7507,0.7368,0.7333,0.7322,0.7413,0.7536,0.7556,0.7708,0.7746,0.7767,0.7824,0.7909,0.7974,0.7872,0.7977,0.8011,0.8052,0.8062,0.8065,0.7962,0.8045,0.8041,0.8038,0.8048,0.8045,0.8041,0.8041,0.8035,0.8134,0.8137,0.8336,0.8432,0.8638,0.8744,0.8546,0.8148,0.8079,0.8085,0.8038,0.8038,0.8038,0.8038,0.8038,0.8038,0.8038,0.8038,0.8038,0.8038,0.8038,0.8045,0.8072,0.8069,0.8082,0.8102,0.8143,0.8187,0.8235,0.8299,0.8326,1.3267,1.3427,1.3567,1.3707,1.3841,1.3854,1.3941,1.4068,1.4088,1.4088,1.4122,1.4215,1.4289,1.4302,1.4429,1.4509,1.4502,1.4496,1.4583,1.475,1.4856,1.5023,1.517,1.5284,1.5324,1.5217,1.514,1.4896,1.4625,1.4334,1.3824,1.2946,1.2559,1.1842,1.0863,1.0378,0.9871,0.9514,0.9313,0.9185,0.9112,0.9096,0.9096,0.9092,0.8999,0.8901,0.8828,0.8627,0.8438,0.8391,0.8259,0.8166,0.7959,0.7759,0.7661,0.7595,0.7434,0.7506,0.7478,0.7456,0.7429,0.7695,0.7699,0.7787,0.7875,0.7916,0.795,0.8014,0.8035,0.8038,0.8045,0.8019,0.8036,0.8163,0.8106,0.8136,0.8018,0.8026,0.8075,0.8106,0.8092,0.8106,0.8102,0.8102,0.8055,0.8168,0.835,0.8549,0.8578,0.8685,0.8585,0.8396,0.8237,0.8133,0.8062,0.8038,0.8038,0.8038,0.8038,0.8038,0.8038,0.8038,0.8038,0.8052,0.8072,0.8113,0.8133,0.8126,0.818,0.8272,0.8333,0.8357,0.8381,0.8418,0.8431,1.3667,1.3728,1.3981,1.4088,1.4088,1.4075,1.4075,1.4088,1.4135,1.4188,1.4208,1.4456,1.4589,1.4636,1.481,1.495,1.4943,1.493,1.4917,1.5044,1.5211,1.5357,1.5484,1.5625,1.5658,1.5504,1.5457,1.5292,1.5026,1.4783,1.4208,1.3607,1.313,1.2485,1.175,1.0984,1.0405,0.9987,0.9686,0.9448,0.9337,0.9214,0.921,0.9153,0.9149,0.91,0.8959,0.8761,0.859,0.8613,0.8337,0.8099,0.793,0.776,0.762,0.7661,0.7533,0.7619,0.7621,0.7577,0.7644,0.7841,0.7845,0.7798,0.7895,0.8055,0.8082,0.8096,0.8119,0.8147,0.8119,0.8119,0.8186,0.8316,0.8307,0.8256,0.8115,0.8044,0.8221,0.8361,0.8248,0.8241,0.8241,0.8238,0.816,0.8196,0.8382,0.8578,0.8614,0.8539,0.8549,0.8456,0.8295,0.8143,0.8069,0.8065,0.8062,0.8116,0.8099,0.8116,0.8123,0.818,0.8201,0.8116,0.8123,0.818,0.8245,0.8286,0.8357,0.8465,0.8509,0.8516,0.8526,0.8537,0.8557,1.3781,1.4021,1.4068,1.4088,1.4088,1.4088,1.4095,1.4135,1.4342,1.4449,1.4489,1.475,1.489,1.4917,1.4923,1.4977,1.505,1.507,1.5144,1.5291,1.5418,1.5518,1.5718,1.5772,1.5785,1.569,1.5629,1.5356,1.5178,1.479,1.4502,1.3931,1.3539,1.2953,1.2268,1.1683,1.1082,1.0626,1.0134,0.9909,0.9782,0.9668,0.9522,0.9423,0.9407,0.9349,0.9051,0.8636,0.8337,0.8337,0.7969,0.7761,0.7819,0.7891,0.7905,0.7844,0.7834,0.7811,0.7777,0.7885,0.7855,0.7997,0.7987,0.7994,0.8065,0.8153,0.8204,0.8255,0.8323,0.8391,0.8411,0.8317,0.8334,0.8459,0.8591,0.8516,0.8391,0.8462,0.8421,0.8577,0.8438,0.8394,0.8397,0.8384,0.8429,0.8361,0.8414,0.8599,0.8704,0.8624,0.8435,0.8445,0.8459,0.8167,0.8069,0.8085,0.8106,0.8221,0.8248,0.819,0.8217,0.8394,0.8387,0.8313,0.8272,0.8306,0.8367,0.8435,0.8496,0.8574,0.8621,0.8669,0.8682,0.8703,0.8777,1.3961,1.4082,1.4088,1.4088,1.4088,1.4088,1.4175,1.4322,1.4462,1.4609,1.4796,1.5044,1.519,1.5231,1.5371,1.5411,1.5398,1.5411,1.5498,1.5611,1.5631,1.5671,1.5832,1.5832,1.5825,1.5825,1.5737,1.556,1.5363,1.5166,1.4783,1.4208,1.3823,1.3335,1.2754,1.2273,1.178,1.1287,1.0703,1.031,1.0105,1.001,0.9951,0.9909,0.9875,0.9833,0.9686,0.9268,0.8983,0.8891,0.8501,0.8304,0.8201,0.829,0.8165,0.7928,0.7973,0.7955,0.7913,0.8004,0.8028,0.8035,0.8045,0.8085,0.8147,0.8231,0.8313,0.8384,0.8414,0.8482,0.8472,0.8444,0.8485,0.8615,0.8659,0.8699,0.871,0.8713,0.8699,0.8665,0.8557,0.852,0.8567,0.8646,0.8703,0.8636,0.846,0.8625,0.8808,0.8625,0.844,0.8443,0.8457,0.8429,0.8231,0.8214,0.8238,0.833,0.8394,0.8438,0.8367,0.8523,0.855,0.8526,0.8503,0.8469,0.8526,0.8604,0.8645,0.8686,0.8754,0.8811,0.8838,0.8882,0.892,1.4088,1.4088,1.4088,1.4088,1.4095,1.4155,1.4309,1.4509,1.4663,1.485,1.507,1.5344,1.5484,1.5538,1.5685,1.5805,1.5825,1.5805,1.5792,1.5792,1.5798,1.5818,1.5832,1.5899,1.5945,1.5985,1.6072,1.5836,1.5553,1.5445,1.5064,1.4592,1.4202,1.3908,1.3335,1.2948,1.2457,1.1868,1.1287,1.0792,1.0391,1.04,1.0511,1.0511,1.0507,1.0493,1.0462,0.987,0.9678,0.9485,0.9099,0.881,0.8825,0.8825,0.8568,0.8174,0.8056,0.8028,0.8001,0.8085,0.8109,0.8113,0.8123,0.8201,0.8286,0.837,0.8438,0.8537,0.8587,0.8601,0.8635,0.8578,0.8632,0.8662,0.8852,0.8927,0.8903,0.8889,0.8872,0.8801,0.8665,0.8652,0.8713,0.873,0.8797,0.8849,0.8772,0.863,0.882,0.8643,0.8452,0.8448,0.8459,0.8482,0.8445,0.8401,0.8431,0.8499,0.8543,0.8574,0.8491,0.8515,0.8548,0.8703,0.8682,0.8665,0.872,0.8757,0.8784,0.8828,0.8903,0.893,0.891,0.8906,0.8927,1.4088,1.4088,1.4088,1.4088,1.4135,1.4355,1.4482,1.4603,1.505,1.5304,1.5364,1.5625,1.5752,1.5772,1.5785,1.5825,1.5832,1.5777,1.579,1.5797,1.5817,1.5836,1.5905,1.6119,1.6206,1.6246,1.644,1.6168,1.5744,1.5632,1.5408,1.5051,1.498,1.4719,1.4219,1.3934,1.3323,1.2657,1.1986,1.1203,1.06,1.0703,1.0801,1.0801,1.09,1.0913,1.1025,1.0542,1.0151,0.9958,0.9244,0.8939,0.9034,0.8928,0.8928,0.881,0.8609,0.8216,0.8072,0.8153,0.8235,0.8255,0.833,0.8421,0.8479,0.8581,0.8693,0.8866,0.8866,0.8838,0.8825,0.8879,0.8906,0.8899,0.891,0.8937,0.8937,0.8937,0.8937,0.893,0.8794,0.8825,0.8876,0.8886,0.8996,0.9047,0.9075,0.892,0.8727,0.8649,0.8567,0.8564,0.8611,0.8645,0.8642,0.8601,0.8611,0.8672,0.8689,0.8713,0.8737,0.8767,0.8828,0.8859,0.8835,0.8818,0.8838,0.8869,0.891,0.8923,0.8933,0.8937,0.8933,0.8937,0.8937,1.4088,1.4088,1.4088,1.4182,1.4335,1.4469,1.4716,1.5023,1.5277,1.5491,1.5638,1.5758,1.5825,1.5825,1.5825,1.5825,1.577,1.582,1.5899,1.5952,1.6031,1.6019,1.6176,1.6354,1.6513,1.6553,1.662,1.6593,1.6255,1.6124,1.6032,1.5823,1.5738,1.5678,1.5195,1.493,1.4447,1.3916,1.3232,1.2299,1.1609,1.1683,1.1888,1.1888,1.1893,1.1845,1.1717,1.1359,1.092,1.0672,1.0209,1.0124,1.0132,0.9929,0.9827,0.9627,0.9218,0.8769,0.84,0.835,0.8419,0.8488,0.8567,0.8615,0.8611,0.8743,0.8849,0.8923,0.8937,0.8937,0.8937,0.8937,0.8937,0.8937,0.8937,0.8937,0.8937,0.8937,0.8937,0.8937,0.8937,0.8937,0.8937,0.893,0.9027,0.9102,0.9029,0.8915,0.8849,0.8749,0.8662,0.8679,0.8747,0.8821,0.8815,0.8791,0.8788,0.8821,0.8825,0.8849,0.8882,0.8923,0.8937,0.8937,0.8899,0.8906,0.8937,0.8933,0.8927,0.893,0.8937,0.8937,0.8937,0.8937,0.8937,1.4128,1.4195,1.4195,1.4322,1.4536,1.4669,1.4983,1.5364,1.5478,1.5631,1.5778,1.5825,1.5825,1.5858,1.5912,1.5972,1.5972,1.5967,1.598,1.609,1.6095,1.6173,1.6286,1.6533,1.672,1.682,1.6961,1.6954,1.6947,1.6901,1.6753,1.6432,1.6321,1.6166,1.5998,1.5758,1.5325,1.4494,1.4182,1.333,1.2496,1.2766,1.286,1.2947,1.2947,1.3001,1.272,1.2269,1.1861,1.1616,1.1034,1.0828,1.094,1.0621,1.0418,1.0211,0.9688,0.9064,0.8816,0.863,0.8549,0.8618,0.8701,0.8679,0.8757,0.8886,0.8937,0.8937,0.8937,0.8937,0.8937,0.8937,0.8937,0.8937,0.8937,0.8937,0.8937,0.8937,0.8937,0.8937,0.8937,0.8937,0.8937,0.8937,0.904,0.9137,0.9074,0.8886,0.8862,0.8852,0.8862,0.8771,0.8825,0.8896,0.8899,0.8906,0.893,0.8937,0.8937,0.893,0.8927,0.8933,0.8937,0.8937,0.893,0.8937,0.8937,0.8937,0.8937,0.8937,0.8937,0.8937,0.8937,0.8937,0.8937,1.4249,1.4496,1.4496,1.4522,1.4589,1.5117,1.5344,1.5458,1.5685,1.5785,1.5818,1.5832,1.5832,1.5905,1.6092,1.6206,1.6259,1.6255,1.6166,1.6098,1.6124,1.6201,1.638,1.6619,1.6929,1.7168,1.7275,1.7402,1.7482,1.7368,1.7128,1.6794,1.6766,1.6572,1.639,1.6266,1.563,1.4891,1.461,1.4163,1.3469,1.3453,1.3645,1.3543,1.3672,1.3925,1.4044,1.3233,1.256,1.2398,1.1694,1.1281,1.1408,1.0985,1.0884,1.0674,0.9934,0.933,0.9041,0.8831,0.8776,0.8838,0.89,0.8852,0.8882,0.891,0.8937,0.8937,0.8937,0.8937,0.8937,0.8937,0.8937,0.8937,0.8937,0.8937,0.8937,0.8937,0.8937,0.8937,0.8937,0.8937,0.8937,0.8937,0.8937,0.9037,0.9037,0.8852,0.8838,0.8828,0.8838,0.8859,0.8896,0.893,0.893,0.8937,0.8937,0.8937,0.8937,0.8923,0.8906,0.8916,0.8937,0.891,0.8899,0.892,0.8937,0.8937,0.8937,0.8937,0.8937,0.8937,0.8937,0.8937,0.8937,1.4416,1.4549,1.4903,1.5057,1.507,1.5297,1.5405,1.547,1.5684,1.5825,1.5832,1.5832,1.5932,1.6099,1.6199,1.6288,1.6268,1.6341,1.6247,1.6144,1.611,1.6295,1.6586,1.6801,1.7121,1.7435,1.7542,1.7589,1.7569,1.7589,1.7508,1.7288,1.7194,1.7255,1.7048,1.6678,1.5952,1.5285,1.4994,1.4596,1.4287,1.4214,1.4378,1.448,1.448,1.4578,1.4464,1.3986,1.3441,1.2881,1.238,1.2162,1.194,1.1416,1.1202,1.0988,1.013,0.9634,0.9331,0.8991,0.875,0.8849,0.8903,0.894,0.895,0.894,0.8937,0.8937,0.894,0.8937,0.8937,0.8937,0.8937,0.8937,0.8944,0.895,0.8957,0.8967,0.894,0.8944,0.894,0.8937,0.8937,0.8937,0.8937,0.8937,0.8937,0.8933,0.891,0.8893,0.8896,0.8896,0.8927,0.8937,0.8937,0.8937,0.8937,0.8933,0.893,0.8886,0.8859,0.892,0.8927,0.8893,0.8876,0.8906,0.8923,0.8933,0.8937,0.8937,0.8937,0.8937,0.8937,0.8937,0.8937,1.4623,1.4823,1.5231,1.5398,1.5404,1.5484,1.5538,1.552,1.5635,1.573,1.5743,1.5817,1.6066,1.6266,1.6407,1.644,1.6387,1.6304,1.6216,1.6101,1.6194,1.6411,1.6636,1.6942,1.7127,1.7483,1.7589,1.7589,1.7589,1.7589,1.7549,1.7542,1.7582,1.7549,1.7443,1.6942,1.6405,1.5813,1.5505,1.5269,1.5053,1.4994,1.5154,1.5269,1.5184,1.5035,1.4832,1.4345,1.3869,1.3424,1.3043,1.2856,1.254,1.211,1.1678,1.1131,1.0472,0.9816,0.9453,0.9088,0.8825,0.8906,0.8927,0.896,0.8988,0.8974,0.895,0.9011,0.8981,0.8944,0.8947,0.8937,0.8988,0.9008,0.9032,0.9039,0.9035,0.8923,0.8984,0.895,0.8944,0.8937,0.8937,0.8937,0.8937,0.8937,0.8937,0.8937,0.893,0.892,0.8923,0.8927,0.8933,0.8937,0.8937,0.895,0.8957,0.891,0.8889,0.8811,0.8801,0.8872,0.8879,0.8808,0.8811,0.8879,0.8916,0.8937,0.894,0.8937,0.8944,0.8954,0.8937,0.8937,0.8937,1.485,1.5357,1.5398,1.5418,1.5458,1.5698,1.5622,1.5452,1.5445,1.5465,1.5612,1.6016,1.6279,1.6341,1.6531,1.6632,1.6555,1.6367,1.6268,1.6174,1.6068,1.6311,1.6518,1.6836,1.7054,1.7483,1.7589,1.7589,1.7589,1.7589,1.7589,1.7589,1.7589,1.7589,1.7582,1.7047,1.6524,1.6318,1.5974,1.5837,1.5801,1.5765,1.5741,1.5834,1.5734,1.5553,1.5246,1.4832,1.4438,1.4046,1.363,1.3202,1.2881,1.2436,1.2001,1.1455,1.0692,1.0147,0.9702,0.9151,0.895,0.8967,0.8991,0.9032,0.9089,0.9066,0.9035,0.9137,0.9069,0.8998,0.8964,0.8971,0.9062,0.9103,0.913,0.9106,0.91,0.8933,0.8984,0.895,0.8944,0.8937,0.8937,0.8937,0.8937,0.8937,0.8937,0.8937,0.8937,0.8937,0.894,0.896,0.8964,0.9001,0.9008,0.8991,0.8971,0.8916,0.891,0.8906,0.8845,0.8862,0.8828,0.8743,0.8815,0.894,0.8947,0.8944,0.8994,0.9049,0.8984,0.8974,0.8954,0.8981,0.9032,1.5037,1.5411,1.5605,1.5685,1.5698,1.5589,1.5445,1.5261,1.5166,1.5345,1.5809,1.6253,1.6441,1.6537,1.6625,1.6645,1.6398,1.6436,1.6217,1.5998,1.5891,1.6311,1.6518,1.673,1.7054,1.7477,1.7589,1.7589,1.7589,1.7589,1.7589,1.7589,1.7589,1.7483,1.7279,1.6961,1.6755,1.633,1.6016,1.5916,1.6111,1.5998,1.6099,1.6405,1.6311,1.5998,1.5672,1.5238,1.4922,1.4606,1.4067,1.3635,1.3098,1.2659,1.1782,1.1131,1.0366,0.982,0.9411,0.9113,0.9076,0.9086,0.9093,0.9154,0.9262,0.9266,0.9273,0.9161,0.9232,0.9201,0.9356,0.9239,0.9279,0.9259,0.9245,0.9167,0.912,0.9028,0.896,0.8947,0.8937,0.8937,0.8937,0.8937,0.8937,0.8937,0.8937,0.8937,0.8937,0.894,0.8944,0.8984,0.9011,0.9059,0.9086,0.911,0.915,0.915,0.9157,0.9174,0.9093,0.8937,0.892,0.8906,0.8954,0.9001,0.9025,0.9059,0.9144,0.9174,0.9137,0.9096,0.9089,0.9161,0.9259,1.5284,1.5465,1.5651,1.5642,1.5553,1.5547,1.5356,1.4981,1.4975,1.5223,1.5752,1.6183,1.6487,1.6658,1.6554,1.6533,1.6324,1.6217,1.6105,1.5885,1.5885,1.6205,1.6518,1.6723,1.7054,1.7477,1.7589,1.7589,1.7589,1.7589,1.7589,1.7589,1.7483,1.7272,1.706,1.6849,1.6643,1.633,1.6123,1.6123,1.6217,1.6318,1.6311,1.663,1.653,1.6205,1.5885,1.5678,1.5363,1.4934,1.4504,1.4067,1.3418,1.2659,1.1782,1.1021,1.0147,0.9625,0.9255,0.9079,0.9178,0.9317,0.9266,0.931,0.9401,0.9388,0.9412,0.9302,0.9415,0.9388,0.9501,0.9391,0.9378,0.9351,0.9306,0.9225,0.9133,0.9045,0.8984,0.8967,0.8937,0.8937,0.8937,0.8937,0.8937,0.8937,0.8937,0.8944,0.8957,0.8977,0.9005,0.9059,0.9127,0.9201,0.9249,0.9276,0.932,0.9371,0.9361,0.9337,0.9188,0.9015,0.9042,0.9066,0.9076,0.9096,0.9133,0.9188,0.9269,0.933,0.9344,0.9296,0.9245,0.9313,0.9415,1.5465,1.5527,1.5445,1.5356,1.5178,1.5356,1.5166,1.479,1.5,1.5274,1.5528,1.6121,1.6527,1.6575,1.6411,1.6299,1.6211,1.5998,1.5992,1.5885,1.5885,1.6311,1.6518,1.6723,1.7047,1.7371,1.7589,1.7589,1.7589,1.7589,1.7589,1.7483,1.7384,1.706,1.6849,1.6636,1.653,1.6217,1.6004,1.6111,1.6318,1.6418,1.6636,1.6855,1.6636,1.6311,1.5992,1.5678,1.5357,1.5035,1.4713,1.4288,1.3748,1.3207,1.2223,1.1126,0.9923,0.945,0.9219,0.9154,0.9313,0.9466,0.9469,0.9507,0.9537,0.9534,0.9547,0.9554,0.9544,0.9466,0.9415,0.9412,0.9405,0.9378,0.9347,0.9266,0.9284,0.9205,0.9143,0.8991,0.895,0.8937,0.8937,0.8937,0.8954,0.8957,0.8967,0.889,0.9025,0.9076,0.9117,0.9305,0.938,0.9364,0.9412,0.9445,0.9493,0.9547,0.9435,0.9381,0.9225,0.9184,0.9245,0.9269,0.9195,0.9201,0.9296,0.9351,0.9395,0.9449,0.9523,0.9476,0.9418,0.9439,0.9503,1.5191,1.5261,1.5274,1.5172,1.5083,1.4975,1.4688,1.4514,1.4977,1.5423,1.5595,1.6718,1.6872,1.6424,1.6499,1.6305,1.6105,1.5998,1.5885,1.5885,1.5885,1.6311,1.6518,1.6723,1.7047,1.7371,1.7589,1.7589,1.7589,1.7589,1.7483,1.7279,1.7173,1.6855,1.6643,1.6543,1.6324,1.6111,1.5891,1.6105,1.6424,1.653,1.6749,1.6961,1.706,1.663,1.6305,1.6205,1.5779,1.525,1.5035,1.4504,1.3748,1.2985,1.1891,1.0245,0.9607,0.9328,0.9253,0.9256,0.9405,0.9585,0.9632,0.971,0.9734,0.9703,0.968,0.9659,0.9642,0.9574,0.9486,0.9459,0.9408,0.9347,0.9306,0.9228,0.914,0.9093,0.9039,0.9055,0.9011,0.8977,0.8971,0.8967,0.8984,0.8981,0.9011,0.8957,0.9127,0.9191,0.936,0.9439,0.9542,0.9527,0.9585,0.9622,0.9673,0.97,0.9588,0.954,0.9554,0.9534,0.9523,0.9476,0.9405,0.9432,0.951,0.9544,0.9551,0.9652,0.972,0.9652,0.9605,0.9612,0.9629,1.5018,1.4968,1.4987,1.4885,1.4783,1.4592,1.4545,1.4667,1.5218,1.5543,1.5821,1.6727,1.6918,1.6393,1.6424,1.6318,1.5885,1.5885,1.5885,1.5885,1.5885,1.6311,1.6518,1.673,1.7054,1.7371,1.7589,1.7589,1.7589,1.7582,1.7477,1.7173,1.7067,1.6749,1.6436,1.6217,1.6105,1.5998,1.5891,1.6111,1.6217,1.6424,1.6749,1.7067,1.7279,1.6955,1.6617,1.6518,1.6099,1.5571,1.525,1.4713,1.3743,1.2654,1.1564,1.0029,0.9599,0.9395,0.9336,0.932,0.9483,0.9625,0.971,0.9707,0.9747,0.9737,0.9724,0.9707,0.97,0.9673,0.9585,0.9496,0.9398,0.93,0.9232,0.9164,0.9117,0.8957,0.9083,0.9113,0.9093,0.9052,0.9032,0.9025,0.9035,0.9076,0.9164,0.9161,0.9334,0.9391,0.9545,0.971,0.9703,0.9693,0.973,0.9744,0.9761,0.9778,0.9754,0.9737,0.9819,0.9788,0.969,0.9646,0.9618,0.9646,0.9663,0.969,0.9713,0.9791,0.9819,0.9758,0.9717,0.973,0.9758,1.4879,1.4688,1.4694,1.4586,1.4298,1.4328,1.4667,1.5091,1.5468,1.5712,1.598,1.6555,1.6742,1.6405,1.643,1.6211,1.5998,1.5885,1.5885,1.5885,1.5885,1.6205,1.6518,1.6723,1.7054,1.7371,1.7589,1.7589,1.7589,1.7582,1.7477,1.7173,1.6842,1.6524,1.6217,1.6105,1.5998,1.5885,1.5891,1.6004,1.6217,1.6324,1.6537,1.6967,1.6868,1.6649,1.6524,1.6311,1.5891,1.5678,1.5357,1.4713,1.3521,1.2545,1.1236,1.0472,0.9816,0.9518,0.9439,0.9306,0.9473,0.9595,0.9669,0.9612,0.9618,0.9652,0.9629,0.9605,0.9578,0.951,0.9418,0.9361,0.9283,0.9188,0.911,0.911,0.913,0.9137,0.9211,0.9232,0.9218,0.9181,0.9174,0.9174,0.9178,0.9205,0.93,0.9325,0.9389,0.9561,0.9713,0.9856,0.981,0.9764,0.9781,0.9791,0.9802,0.9815,0.9819,0.9819,0.9819,0.9819,0.9819,0.9768,0.972,0.9761,0.9788,0.9785,0.9778,0.9802,0.9819,0.9819,0.9819,0.9812,0.9815,1.4592,1.4394,1.4394,1.4394,1.4328,1.4527,1.4832,1.5134,1.5847,1.6145,1.6369,1.6918,1.6976,1.6418,1.653,1.6318,1.5998,1.5885,1.5885,1.5885,1.5885,1.6205,1.6624,1.6723,1.7047,1.7477,1.7589,1.7589,1.7589,1.7582,1.7371,1.6836,1.6723,1.6524,1.6105,1.5885,1.5885,1.5885,1.5891,1.5891,1.5998,1.6217,1.643,1.6649,1.6549,1.6543,1.653,1.6436,1.601,1.5589,1.5256,1.439,1.3202,1.2436,1.1568,1.0802,1.0257,0.9835,0.9497,0.9356,0.9351,0.9432,0.9469,0.9449,0.9449,0.9476,0.9476,0.9449,0.9408,0.933,0.9256,0.9211,0.9167,0.9079,0.891,0.9086,0.9157,0.9259,0.9351,0.9473,0.9466,0.9452,0.933,0.9327,0.9327,0.9384,0.9479,0.9578,0.9499,0.9666,0.971,0.9854,0.9758,0.9808,0.9819,0.9819,0.9819,0.9819,0.9819,0.9819,0.9819,0.9819,0.9819,0.9819,0.9808,0.9819,0.9819,0.9815,0.9815,0.9819,0.9819,0.9819,0.9819,0.9815,0.9819,1.449,1.4298,1.4298,1.4377,1.4503,1.4654,1.4935,1.5493,1.5894,1.6399,1.6723,1.7088,1.6955,1.6324,1.6424,1.6318,1.5891,1.5885,1.5885,1.5885,1.5992,1.6205,1.6518,1.6723,1.7153,1.7477,1.7582,1.7589,1.7589,1.7589,1.7371,1.6836,1.6624,1.6411,1.5992,1.5885,1.5885,1.5885,1.5885,1.5885,1.5885,1.5998,1.6217,1.6324,1.6324,1.643,1.643,1.633,1.5903,1.5369,1.4826,1.4072,1.3207,1.2441,1.1782,1.1017,1.0488,0.9994,0.9658,0.9387,0.9211,0.9296,0.9175,0.9168,0.9259,0.9276,0.9252,0.9232,0.9273,0.9215,0.9113,0.9052,0.9042,0.8988,0.9069,0.9167,0.934,0.952,0.9581,0.9612,0.9568,0.9486,0.9483,0.9483,0.9486,0.9513,0.9618,0.9686,0.9727,0.9613,0.9788,0.9819,0.9819,0.9819,0.9819,0.9819,0.9819,0.9819,0.9819,0.9819,0.9819,0.9819,0.9819,0.9819,0.9819,0.9819,0.9819,0.9819,0.9819,0.9819,0.9819,0.9819,0.9819,0.9819,0.9819,1.4298,1.4298,1.4298,1.4455,1.4702,1.4763,1.5141,1.5756,1.5964,1.6422,1.7022,1.7054,1.6749,1.6537,1.6324,1.6111,1.5998,1.5885,1.5885,1.5885,1.5885,1.6205,1.6518,1.6723,1.7153,1.7371,1.7589,1.7589,1.7589,1.7483,1.7272,1.6842,1.6524,1.6418,1.6099,1.5885,1.5885,1.5885,1.5885,1.5885,1.5885,1.5885,1.5998,1.6105,1.6105,1.5998,1.6111,1.6004,1.5684,1.5267,1.4515,1.3867,1.3093,1.2327,1.1778,1.1122,1.0472,1.0105,0.9626,0.9205,0.9174,0.9114,0.8934,0.9007,0.91,0.9086,0.9062,0.9083,0.9123,0.9106,0.9005,0.8957,0.895,0.9022,0.915,0.9279,0.9386,0.959,0.9758,0.9798,0.973,0.9635,0.9629,0.9629,0.9642,0.9666,0.9703,0.9771,0.9812,0.9791,0.9805,0.9819,0.9819,0.9819,0.9819,0.9819,0.9819,0.9819,0.9819,0.9819,0.9819,0.9819,0.9819,0.9819,0.9819,0.9819,0.9819,0.9819,0.9819,0.9819,0.9819,0.9819,0.9819,0.9819,0.9819,1.4298,1.4298,1.4298,1.4467,1.4733,1.4938,1.5209,1.5615,1.6051,1.6499,1.6624,1.6636,1.643,1.663,1.6324,1.6111,1.5891,1.5885,1.5885,1.5885,1.5885,1.6205,1.663,1.6836,1.7153,1.7371,1.7589,1.7589,1.7589,1.7384,1.7166,1.6736,1.643,1.6211,1.5992,1.5891,1.5885,1.5885,1.5885,1.5885,1.5885,1.5885,1.5885,1.5885,1.5885,1.5791,1.569,1.547,1.5148,1.4838,1.4542,1.3883,1.3103,1.2209,1.1664,1.1122,1.0582,1.0056,0.9554,0.9119,0.9076,0.9066,0.8903,0.8897,0.8994,0.8994,0.8988,0.9008,0.9035,0.9035,0.8971,0.8971,0.8977,0.9054,0.9208,0.9329,0.9496,0.9607,0.9798,0.9812,0.9791,0.9751,0.9751,0.9751,0.9751,0.9764,0.9764,0.9819,0.9819,0.9819,0.9819,0.9819,0.9819,0.9819,0.9819,0.9819,0.9819,0.9819,0.9819,0.9819,0.9819,0.9819,0.9819,0.9819,0.9819,0.9819,0.9819,0.9819,0.9819,0.9819,0.9819,0.9819,0.9819,0.9819,0.9819]}]]